Date StartTime U_cm/s V_cm/s W_cm/s Ustd_cm/s Vstd_cm/s Wstd_cm/s Uvar_(cm/s)^2 Vvar_(cm/s)^2 Wvar_(cm/s)^2 KE_(m/s)^2 TurbulentKE_(m/s)^2 HorizWindSpeed_cm/s FrictionSpeec_cm/s DragCoef SpeedOfSound_m/s SonicTemperature_C Pressure_mb 
06/09/2014  00:00:00      -66.516      -10.070       -1.547       47.271       44.957       29.155     2234.594     2021.169      850.010        0.482        0.255       67.274       32.585        0.235      343.639       19.893      860.882
06/09/2014  00:01:00     -137.594      -64.034       -7.305       57.693       49.773       30.385     3328.491     2477.342      923.224        1.491        0.336      151.765       28.282        0.035      343.865       20.278      860.877
06/09/2014  00:02:00      -54.807      -18.773       -1.620       39.475       34.001       28.056     1558.300     1156.044      787.129        0.343        0.175       57.933       23.237        0.161      343.801       20.167      860.883
06/09/2014  00:03:00      -41.997       -2.700       10.998       41.704       43.999       23.752     1739.207     1935.951      564.138        0.306        0.212       42.084       22.703        0.291      343.618       19.857      860.892
06/09/2014  00:04:00      -34.693        3.813       -2.468       30.374       34.844       19.045      922.553     1214.098      362.708        0.186        0.125       34.902       12.436        0.127      343.725       20.039      860.878
06/09/2014  00:05:00      -65.611      -17.902       -4.793       45.891       28.783       22.117     2105.992      828.487      489.150        0.404        0.171       68.010       23.779        0.122      343.752       20.086      860.864
06/09/2014  00:06:00      -35.382       -2.440        2.921       35.260       33.007       18.549     1243.253     1089.439      344.055        0.197        0.134       35.466       13.743        0.150      343.671       19.946      860.866
06/09/2014  00:07:00      -49.098        0.505        5.878       31.293       28.691       26.066      979.272      823.169      679.439        0.246        0.124       49.101       17.712        0.130      343.678       19.959      860.857
06/09/2014  00:08:00      -60.818       14.653        5.659       41.075       25.411       28.599     1687.191      645.735      817.923        0.355        0.158       62.559       12.245        0.038      343.622       19.863      860.851
06/09/2014  00:09:00      -39.919       19.786       18.761       33.742       28.694       22.899     1138.552      823.337      524.353        0.241        0.124       44.553       16.634        0.139      343.478       19.618      860.839
06/09/2014  00:10:00      -74.313      -11.781        3.687       40.418       28.275       29.404     1633.647      799.494      864.587        0.449        0.165       75.241       20.709        0.076      343.618       19.855      860.826
06/09/2014  00:11:00      -62.500      -35.978       -4.815       51.711       23.793       27.272     2674.065      566.106      743.763        0.460        0.199       72.115       13.356        0.034      343.588       19.804      860.826
06/09/2014  00:12:00       -0.968       25.319       25.622       21.430       24.146       24.244      459.261      583.042      587.748        0.146        0.082       25.338       19.858        0.614      343.083       18.946      860.818
06/09/2014  00:13:00        7.456        5.984       20.038       36.571       22.361       21.196     1337.449      500.035      449.264        0.139        0.114        9.560       14.554        2.318      343.083       18.945      860.819
06/09/2014  00:14:00      -50.219      -29.941        1.518       45.723       27.170       24.677     2090.578      738.204      608.978        0.343        0.172       58.467       25.778        0.194      343.527       19.703      860.828
06/09/2014  00:15:00      -78.340      -51.078       -4.705       46.778       20.329       18.985     2188.214      413.281      360.448        0.586        0.148       93.521       10.169        0.012      343.513       19.677      860.811
06/09/2014  00:16:00      -62.194      -11.053       -2.283       39.440       31.252       23.166     1555.481      976.676      536.645        0.353        0.153       63.168       26.737        0.179      343.558       19.755      860.803
06/09/2014  00:17:00      -79.420      -12.533       -4.664       35.493       30.979       23.516     1259.773      959.676      553.010        0.463        0.139       80.403       18.681        0.054      343.594       19.815      860.801
06/09/2014  00:18:00      -94.434       -8.927      -10.312       34.108       34.577       25.590     1163.332     1195.555      654.852        0.606        0.151       94.855       16.761        0.031      343.638       19.890      860.791
06/09/2014  00:19:00      -64.167      -14.251        7.726       39.677       40.769       23.419     1574.300     1662.071      548.457        0.408        0.189       65.730       17.639        0.072      343.544       19.730      860.789
06/09/2014  00:20:00      -65.249      -36.284       -1.426       39.469       41.529       23.090     1557.773     1724.652      533.126        0.470        0.191       74.659       19.251        0.066      343.571       19.776      860.781
06/09/2014  00:21:00       14.275        4.970       25.786       22.008       15.722       16.772      484.341      247.185      281.301        0.095        0.051       15.115       13.467        0.794      343.131       19.025      860.779
06/09/2014  00:22:00       11.039        6.329       32.726       30.504       16.222       17.954      930.468      263.149      322.353        0.137        0.076       12.725       11.944        0.881      343.105       18.981      860.779
06/09/2014  00:23:00      -31.233       30.787       15.856       31.055       22.017       20.657      964.414      484.758      426.695        0.202        0.094       43.856       19.248        0.193      343.397       19.480      860.769
06/09/2014  00:24:00      -29.190       -5.135       -3.070       29.945       33.414       19.266      896.733     1116.480      371.186        0.164        0.119       29.638       15.115        0.260      343.412       19.505      860.773
06/09/2014  00:25:00      -36.451      -44.889       -3.010       46.815       36.720       34.425     2191.634     1348.393     1185.068        0.404        0.236       57.825       33.912        0.344      343.435       19.544      860.777
06/09/2014  00:26:00      -78.727      -60.063      -12.066       40.862       27.697       21.232     1669.708      767.143      450.779        0.642        0.144       99.023       18.516        0.035      343.465       19.595      860.785
06/09/2014  00:27:00     -103.979      -75.454      -10.511       29.328       25.260       21.110      860.134      638.055      445.630        0.928        0.097      128.472        8.437        0.004      343.539       19.721      860.811
06/09/2014  00:28:00     -123.215      -57.465       -6.680       29.226       32.497       17.262      854.149     1056.049      297.969        1.037        0.110      135.957        8.365        0.004      343.559       19.755      860.814
06/09/2014  00:29:00     -105.706      -63.471      -24.297       29.494       31.218       18.510      869.886      974.553      342.606        0.899        0.109      123.298       10.735        0.008      343.559       19.756      860.816
06/09/2014  00:30:00     -106.817      -47.073      -16.741       26.690       32.823       22.176      712.381     1077.366      491.762        0.809        0.114      116.729        9.640        0.007      343.594       19.814      860.827
06/09/2014  00:31:00     -118.133      -14.385      -17.307       39.294       32.666       22.986     1544.035     1067.078      528.362        0.880        0.157      119.006       15.390        0.017      343.568       19.772      860.812
06/09/2014  00:32:00     -122.850      -35.829      -32.367       24.606       28.801       25.172      605.447      829.486      633.607        0.975        0.103      127.968       13.446        0.011      343.517       19.683      860.802
06/09/2014  00:33:00     -120.052      -15.088      -17.816       30.855       28.588       20.150      952.007      817.268      406.028        0.857        0.109      120.997       14.132        0.014      343.518       19.684      860.808
06/09/2014  00:34:00     -133.955      -23.393      -22.529       27.720       27.039       20.732      768.423      731.084      429.810        1.046        0.096      135.982       10.913        0.006      343.543       19.729      860.799
06/09/2014  00:35:00     -138.737      -23.397      -19.290       23.452       31.844       20.507      550.011     1014.045      420.550        1.108        0.099      140.696       19.214        0.019      343.584       19.799      860.800
06/09/2014  00:36:00     -128.269      -20.142      -20.082       22.729       32.275       14.104      516.606     1041.696      198.914        0.951        0.088      129.841       12.244        0.009      343.547       19.734      860.801
06/09/2014  00:37:00     -127.237      -33.222      -12.495       33.351       27.104       19.236     1112.302      734.626      370.008        0.983        0.111      131.502       17.255        0.017      343.466       19.597      860.790
06/09/2014  00:38:00     -126.208      -38.809      -27.158       29.766       31.157       19.307      886.043      970.767      372.747        1.020        0.111      132.040       14.112        0.011      343.443       19.557      860.795
06/09/2014  00:39:00      -92.960      -56.648      -18.295       28.595       31.547       21.206      817.649      995.241      449.704        0.722        0.113      108.860       18.527        0.029      343.463       19.591      860.799
06/09/2014  00:40:00      -90.744      -47.173      -21.953       32.505       28.398       19.673     1056.578      806.428      387.026        0.660        0.113      102.273        8.629        0.007      343.489       19.637      860.800
06/09/2014  00:41:00     -109.414      -32.084      -19.894       30.687       31.740       19.348      941.661     1007.396      374.350        0.786        0.116      114.021       14.881        0.017      343.480       19.622      860.808
06/09/2014  00:42:00     -131.209      -26.096      -13.859       33.061       27.228       20.130     1093.004      741.369      405.217        1.016        0.112      133.779       17.874        0.018      343.406       19.494      860.802
06/09/2014  00:43:00     -119.736      -43.041      -10.156       31.804       27.214       17.393     1011.509      740.594      302.532        0.917        0.103      127.237       17.044        0.018      343.464       19.593      860.790
06/09/2014  00:44:00     -125.327      -47.936      -16.044       23.540       19.099       17.503      554.137      364.774      306.368        0.974        0.061      134.182       11.161        0.007      343.416       19.512      860.784
06/09/2014  00:45:00     -100.274      -46.154      -28.227       31.930       21.315       20.137     1019.496      454.344      405.517        0.743        0.094      110.386       13.838        0.016      343.388       19.466      860.783
06/09/2014  00:46:00      -60.689      -66.907       -3.855       49.585       34.447       30.090     2458.676     1186.569      905.432        0.636        0.228       90.331       27.654        0.094      343.362       19.421      860.781
06/09/2014  00:47:00     -138.459      -55.582      -15.201       27.300       35.749       19.691      745.293     1278.018      387.752        1.245        0.121      149.199       11.591        0.006      343.290       19.298      860.787
06/09/2014  00:48:00     -112.274      -49.405      -14.828       40.705       40.198       24.596     1656.858     1615.891      604.942        0.957        0.194      122.664       23.545        0.037      343.321       19.350      860.782
06/09/2014  00:49:00      -62.940      -50.873       -8.500       38.018       42.767       27.704     1445.349     1829.001      767.503        0.533        0.202       80.929       19.750        0.060      343.338       19.381      860.774
06/09/2014  00:50:00      -90.738      -48.755      -14.070       46.127       32.761       23.005     2127.736     1073.289      529.213        0.727        0.187      103.007       23.881        0.054      343.293       19.302      860.779
06/09/2014  00:51:00     -132.974      -37.909      -12.696       23.213       20.052       16.893      538.825      402.064      285.358        1.025        0.061      138.272        9.558        0.005      343.245       19.222      860.782
06/09/2014  00:52:00     -131.494      -54.381      -12.019       19.338       20.866       14.125      373.951      435.383      199.510        1.070        0.050      142.295        9.404        0.004      343.235       19.203      860.776
06/09/2014  00:53:00     -102.459      -54.433       -4.810       23.949       29.613       22.387      573.552      876.946      501.172        0.772        0.098      116.020       14.316        0.015      343.279       19.279      860.782
06/09/2014  00:54:00      -77.929      -42.191      -13.116       45.894       35.480       18.061     2106.244     1258.806      326.193        0.586        0.185       88.617        9.360        0.011      343.271       19.265      860.787
06/09/2014  00:55:00     -120.857      -83.011      -10.438       30.121       29.548       22.621      907.258      873.088      511.730        1.195        0.115      146.620        7.054        0.002      343.269       19.263      860.783
06/09/2014  00:56:00     -132.687      -59.358      -13.289       30.617       23.350       13.813      937.371      545.216      190.801        1.149        0.084      145.359       14.554        0.010      343.322       19.350      860.786
06/09/2014  00:57:00     -150.299      -32.850      -14.239       35.844       34.075       22.423     1284.759     1161.110      502.780        1.341        0.147      153.847       20.835        0.018      343.320       19.348      860.781
06/09/2014  00:58:00     -154.804       -9.762      -23.104       37.775       18.152       17.261     1426.924      329.478      297.933        1.332        0.103      155.111       18.201        0.014      343.312       19.335      860.778
06/09/2014  00:59:00     -128.594      -40.339      -13.354       22.245       22.900       16.537      494.825      524.392      273.482        0.982        0.065      134.772       12.229        0.008      343.267       19.258      860.781
06/09/2014  01:00:00     -139.892      -51.082      -10.231       21.705       21.800       14.872      471.113      475.225      221.191        1.173        0.058      148.926        8.304        0.003      343.291       19.300      860.781
06/09/2014  01:01:00     -153.623      -54.306      -11.070       17.884       26.558       11.453      319.846      705.310      131.171        1.391        0.058      162.939        7.752        0.002      343.248       19.225      860.781
06/09/2014  01:02:00     -101.070      -61.254       -3.819       42.965       27.769       23.965     1845.959      771.128      574.325        0.859        0.160      118.183       13.051        0.012      343.199       19.143      860.774
06/09/2014  01:03:00     -133.253      -83.267      -11.151       32.711       25.041       21.401     1070.003      627.030      458.013        1.348        0.108      157.130       16.314        0.011      343.179       19.109      860.777
06/09/2014  01:04:00     -116.251      -82.563       -6.818       25.158       22.854       13.832      632.918      522.308      191.330        1.086        0.067      142.587       12.415        0.008      343.083       18.947      860.775
06/09/2014  01:05:00     -109.150      -62.857       -7.964       23.565       21.558       17.211      555.295      464.760      296.226        0.862        0.066      125.955       12.972        0.011      343.103       18.980      860.771
06/09/2014  01:06:00     -108.727      -70.649       -6.218       16.066       19.240       19.311      258.119      370.167      372.908        0.893        0.050      129.664        9.798        0.006      343.108       18.988      860.776
06/09/2014  01:07:00     -125.113      -55.621       -8.822       19.123       16.293       12.510      365.680      265.458      156.507        0.981        0.039      136.920        4.454        0.001      343.044       18.879      860.771
06/09/2014  01:08:00     -124.594      -67.552      -11.577       22.071       18.892       16.115      487.127      356.894      259.696        1.066        0.055      141.728        7.994        0.003      343.090       18.958      860.755
06/09/2014  01:09:00     -104.398      -76.965       -7.976       36.613       28.809       19.139     1340.502      829.941      366.294        0.971        0.127      129.702       15.226        0.014      343.014       18.827      860.756
06/09/2014  01:10:00     -134.709      -82.404      -14.868       16.681       18.263       13.110      278.261      333.546      171.864        1.297        0.039      157.914       10.942        0.005      342.957       18.730      860.750
06/09/2014  01:11:00     -133.911      -62.422      -17.733       15.123       22.233       14.741      228.719      494.289      217.303        1.154        0.047      147.745        8.004        0.003      342.951       18.720      860.734
06/09/2014  01:12:00     -109.322      -65.974       -3.794       23.328       18.782       17.220      544.191      352.780      296.542        0.876        0.060      127.687       13.512        0.011      342.906       18.645      860.722
06/09/2014  01:13:00     -128.629      -48.918      -14.227       23.854       21.536       17.492      568.999      463.808      305.973        1.024        0.067      137.616       11.998        0.008      343.001       18.805      860.727
06/09/2014  01:14:00      -90.549      -52.027      -15.063       22.078       16.211       14.756      487.458      262.785      217.743        0.605        0.048      104.431        6.130        0.003      342.975       18.762      860.717
06/09/2014  01:15:00     -101.176      -40.709       -6.800       21.333       23.568       13.904      455.095      555.474      193.335        0.657        0.060      109.059       10.445        0.009      342.910       18.651      860.723
06/09/2014  01:16:00     -104.935      -53.534       -1.849       38.232       23.504       16.523     1461.714      552.424      273.021        0.808        0.114      117.802       13.239        0.013      342.920       18.669      860.730
06/09/2014  01:17:00     -102.757      -78.958       -1.938       38.285       21.425       24.249     1465.755      459.043      588.016        0.965        0.126      129.590       17.974        0.019      342.860       18.566      860.725
06/09/2014  01:18:00      -78.890      -71.949        5.923       43.654       32.749       25.235     1905.636     1072.475      636.790        0.752        0.181      106.772       24.850        0.054      342.908       18.646      860.723
06/09/2014  01:19:00      -84.926      -79.947       -4.243       42.732       31.025       23.266     1826.012      962.576      541.311        0.848        0.166      116.636       17.465        0.022      342.884       18.606      860.731
06/09/2014  01:20:00      -78.842      -80.421        4.585       41.702       40.578       26.081     1739.066     1646.580      680.229        0.838        0.203      112.621       21.794        0.037      342.829       18.513      860.738
06/09/2014  01:21:00     -146.724      -82.159       -1.639       47.100       39.582       32.113     2218.392     1566.751     1031.250        1.655        0.241      168.160       31.516        0.035      342.844       18.539      860.736
06/09/2014  01:22:00     -155.585     -119.291       -9.214       38.823       35.445       27.164     1507.226     1256.375      737.876        2.101        0.175      196.054       21.450        0.012      342.857       18.557      860.740
06/09/2014  01:23:00     -132.832     -106.970       -0.629       46.208       35.791       28.820     2135.220     1280.976      830.591        1.667        0.212      170.549       28.056        0.027      342.829       18.512      860.724
06/09/2014  01:24:00     -124.644     -105.191       -3.837       47.640       29.492       28.779     2269.590      869.765      828.259        1.529        0.198      163.099       29.528        0.033      342.857       18.559      860.718
06/09/2014  01:25:00     -107.870      -87.440       -5.354       39.262       27.508       21.519     1541.484      756.676      463.057        1.104        0.138      138.859       19.058        0.019      342.774       18.420      860.716
06/09/2014  01:26:00     -110.914      -63.671       -2.990       51.424       35.203       28.459     2644.424     1239.236      809.940        1.053        0.235      127.891       28.803        0.051      342.857       18.561      860.716
06/09/2014  01:27:00     -129.577      -76.117       -6.483       39.408       31.784       18.046     1552.986     1010.236      325.654        1.276        0.144      150.280       14.455        0.009      342.843       18.536      860.705
06/09/2014  01:28:00     -106.433      -57.915        0.171       45.450       36.567       22.951     2065.680     1337.150      526.759        0.931        0.196      121.170       22.405        0.034      342.756       18.388      860.698
06/09/2014  01:29:00     -113.189      -83.742        3.728       39.459       26.296       23.870     1557.002      691.499      569.800        1.133        0.141      140.800       19.244        0.019      342.744       18.368      860.700
06/09/2014  01:30:00      -76.497      -64.035        3.431       56.162       35.739       23.757     3154.187     1277.303      564.372        0.748        0.250       99.761       22.723        0.052      342.734       18.351      860.692
06/09/2014  01:31:00      -89.773      -65.311        5.378       48.235       40.785       30.618     2326.641     1663.404      937.436        0.864        0.246      111.017       24.869        0.050      342.688       18.273      860.683
06/09/2014  01:32:00     -126.559      -76.625        0.247       41.867       34.284       26.401     1752.860     1175.373      696.995        1.276        0.181      147.948       21.383        0.021      342.697       18.288      860.678
06/09/2014  01:33:00      -82.112      -69.647        5.620       50.749       40.893       24.932     2575.442     1672.256      621.594        0.825        0.243      107.672       23.108        0.046      342.645       18.201      860.664
06/09/2014  01:34:00     -108.890      -76.015        2.822       65.687       42.531       23.592     4314.771     1808.891      556.596        1.216        0.334      132.798       25.186        0.036      342.615       18.148      860.655
06/09/2014  01:35:00     -107.466      -67.405       -0.000       58.583       39.904       33.489     3431.926     1592.340     1121.499        1.112        0.307      126.856       29.471        0.054      342.565       18.065      860.648
06/09/2014  01:36:00      -86.767      -67.803        4.617       40.425       32.611       25.029     1634.195     1063.451      626.431        0.773        0.166      110.117       19.244        0.031      342.523       17.991      860.645
06/09/2014  01:37:00      -86.133      -63.575        8.536       47.232       38.965       25.115     2230.826     1518.239      630.768        0.796        0.219      107.054       21.073        0.039      342.479       17.919      860.644
06/09/2014  01:38:00     -110.987      -90.170        6.221       56.914       40.422       28.477     3239.239     1633.911      810.958        1.308        0.284      143.000       26.698        0.035      342.502       17.957      860.638
06/09/2014  01:39:00      -94.994      -81.240        5.192       50.484       44.352       30.039     2548.625     1967.134      902.319        1.053        0.271      124.995       27.176        0.047      342.481       17.923      860.624
06/09/2014  01:40:00     -114.508      -92.122        3.288       38.563       42.429       27.945     1487.116     1800.256      780.898        1.284        0.203      146.964       24.626        0.028      342.434       17.841      860.617
06/09/2014  01:41:00     -117.957      -98.335       -6.497       38.637       34.979       23.410     1492.794     1223.503      548.038        1.344        0.163      153.570       18.156        0.014      342.385       17.759      860.613
06/09/2014  01:42:00     -135.531      -54.434       -2.147       37.912       24.419       23.773     1437.319      596.266      565.147        1.197        0.130      146.054       11.231        0.006      342.379       17.746      860.611
06/09/2014  01:43:00     -145.620      -58.179       -6.961       43.438       27.728       16.922     1886.869      768.839      286.349        1.379        0.147      156.812       11.974        0.006      342.480       17.917      860.600
06/09/2014  01:44:00     -137.521      -43.425        2.763       46.835       36.738       25.867     2193.533     1349.650      669.100        1.251        0.211      144.214       29.530        0.042      342.382       17.753      860.600
06/09/2014  01:45:00     -166.211      -36.297       -5.332       37.882       35.911       20.814     1435.084     1289.602      433.222        1.606        0.158      170.128       20.444        0.014      342.324       17.653      860.595
06/09/2014  01:46:00     -166.509      -33.379       -3.418       58.300       35.970       24.581     3398.879     1293.835      604.227        1.707        0.265      169.822       26.281        0.024      342.325       17.654      860.579
06/09/2014  01:47:00     -144.343      -75.458        1.862       58.605       41.625       24.438     3434.596     1732.637      597.194        1.615        0.288      162.877       29.814        0.034      342.282       17.581      860.577
06/09/2014  01:48:00     -102.987      -57.034       -1.655       58.199       53.652       28.598     3387.108     2878.511      817.866        1.047        0.354      117.725       31.727        0.073      342.282       17.581      860.598
06/09/2014  01:49:00     -127.178      -64.359        1.717       25.238       29.938       18.670      636.939      896.288      348.569        1.110        0.094      142.535       16.429        0.013      342.321       17.648      860.599
06/09/2014  01:50:00     -107.533      -74.498       -0.298       43.325       32.390       24.510     1877.059     1049.099      600.763        1.032        0.176      130.818       23.344        0.032      342.355       17.707      860.597
06/09/2014  01:51:00     -126.932      -76.066       -0.690       46.028       32.679       21.322     2118.547     1067.894      454.623        1.277        0.182      147.979       25.302        0.029      342.357       17.709      860.589
06/09/2014  01:52:00     -146.637      -49.640       -8.883       23.898       21.828       17.281      571.106      476.481      298.629        1.270        0.067      154.811       11.910        0.006      342.340       17.681      860.568
06/09/2014  01:53:00     -166.175      -56.888       -8.380       30.901       28.997       19.518      954.880      840.837      380.969        1.655        0.109      175.643       16.044        0.008      342.321       17.648      860.554
06/09/2014  01:54:00     -136.829      -53.568       -4.644       64.919       38.256       25.036     4214.534     1463.555      626.779        1.396        0.315      146.941       32.697        0.050      342.344       17.688      860.561
06/09/2014  01:55:00     -141.660      -46.198       -2.696       41.756       42.895       24.177     1743.530     1840.006      584.525        1.319        0.208      149.003       21.062        0.020      342.299       17.610      860.550
06/09/2014  01:56:00     -132.682      -66.411       -2.185       47.987       28.317       19.106     2302.792      801.861      365.049        1.274        0.173      148.374       18.052        0.015      342.327       17.658      860.540
06/09/2014  01:57:00     -135.585      -73.778       -8.233       40.388       21.517       18.667     1631.200      462.987      348.449        1.317        0.122      154.359       20.273        0.017      342.271       17.563      860.544
06/09/2014  01:58:00     -124.964      -73.391       -8.114       32.043       23.168       21.531     1026.746      536.776      463.574        1.155        0.101      144.921       16.586        0.013      342.209       17.458      860.535
06/09/2014  01:59:00     -124.383      -71.767       -6.369       32.945       25.626       20.794     1085.342      656.703      432.388        1.142        0.109      143.602       10.952        0.006      342.204       17.450      860.519
06/09/2014  02:00:00     -139.915      -65.116        0.524       35.225       37.150       24.020     1240.825     1380.095      576.939        1.351        0.160      154.325       15.514        0.010      342.160       17.375      860.524
06/09/2014  02:01:00      -68.832      -44.898       -2.348       43.502       43.535       27.902     1892.415     1895.309      778.500        0.566        0.228       82.181       22.721        0.076      342.200       17.442      860.528
06/09/2014  02:02:00     -105.498      -70.357        1.303       47.497       37.087       25.965     2256.003     1375.463      674.168        1.019        0.215      126.807       25.006        0.039      342.202       17.445      860.522
06/09/2014  02:03:00     -134.913      -65.800       -6.775       34.103       27.049       21.167     1163.007      731.653      448.022        1.246        0.117      150.104       18.406        0.015      342.206       17.453      860.529
06/09/2014  02:04:00     -122.749      -46.211       -5.444       31.653       27.403       17.685     1001.927      750.917      312.764        0.965        0.103      131.159       16.184        0.015      342.192       17.429      860.527
06/09/2014  02:05:00     -106.930      -29.228       -0.307       28.128       29.022       16.578      791.210      842.273      274.815        0.710        0.095      110.853       13.774        0.015      342.158       17.372      860.520
06/09/2014  02:06:00     -125.851      -49.211       -4.073       21.984       24.159       13.972      483.300      583.639      195.211        0.977        0.063      135.130       12.148        0.008      342.185       17.418      860.507
06/09/2014  02:07:00     -141.383      -72.757       -7.806       32.584       23.708       21.294     1061.696      562.052      453.443        1.371        0.104      159.005       15.056        0.009      342.159       17.374      860.491
06/09/2014  02:08:00      -98.183      -49.241      -11.673       34.613       31.663       16.861     1198.036     1002.570      284.292        0.734        0.124      109.839       13.067        0.014      342.179       17.407      860.473
06/09/2014  02:09:00     -109.616      -83.374      -14.276       22.210       24.666       15.581      493.267      608.436      242.752        1.026        0.067      137.721        9.197        0.004      342.123       17.311      860.461
06/09/2014  02:10:00     -108.025      -54.329      -16.348       33.586       25.253       20.050     1127.990      637.704      402.020        0.853        0.108      120.917       20.657        0.029      342.167       17.387      860.462
06/09/2014  02:11:00      -92.512      -59.001       -9.339       24.556       20.207       14.875      602.983      408.315      221.273        0.668        0.062      109.725       12.323        0.013      342.139       17.339      860.451
06/09/2014  02:12:00     -111.138      -51.269       -8.815       25.967       28.631       20.490      674.274      819.716      419.852        0.849        0.096      122.394       19.060        0.024      342.065       17.213      860.450
06/09/2014  02:13:00      -95.659      -52.699      -13.789       21.716       30.088       15.364      471.603      905.273      236.050        0.687        0.081      109.215       14.517        0.018      342.114       17.295      860.444
06/09/2014  02:14:00     -110.059      -38.624      -12.409       19.675       18.202       14.073      387.108      331.297      198.062        0.734        0.046      116.640        7.937        0.005      342.055       17.198      860.449
06/09/2014  02:15:00     -100.446      -42.800       -1.516       22.071       23.245       16.183      487.107      540.352      261.877        0.661        0.064      109.184        9.846        0.008      342.109       17.288      860.447
06/09/2014  02:16:00     -113.422      -71.040      -11.156       20.139       22.064       15.263      405.586      486.819      232.944        0.958        0.056      133.833        9.872        0.005      342.097       17.266      860.440
06/09/2014  02:17:00      -85.909      -64.616       -0.287       47.496       28.730       20.416     2255.835      825.417      416.803        0.753        0.175      107.497       14.783        0.019      342.062       17.208      860.447
06/09/2014  02:18:00      -55.771      -64.519        3.494       57.876       43.403       30.202     3349.655     1883.833      912.188        0.671        0.307       85.282       30.812        0.131      342.037       17.167      860.469
06/09/2014  02:19:00     -108.093     -110.818       -7.347       60.160       50.390       27.372     3619.229     2539.151      749.220        1.546        0.345      154.805       29.218        0.036      342.089       17.254      860.481
06/09/2014  02:20:00      -74.056      -69.582        7.666       71.836       57.798       37.571     5160.363     3340.573     1411.612        1.015        0.496      101.617       29.765        0.086      342.007       17.114      860.481
06/09/2014  02:21:00     -147.869     -120.707      -14.265       42.319       52.429       26.239     1790.859     2748.850      688.498        2.093        0.261      190.880       17.815        0.009      341.951       17.019      860.487
06/09/2014  02:22:00     -143.426     -110.486       -6.375       39.829       59.838       26.757     1586.381     3580.568      715.921        1.935        0.294      181.047       23.106        0.016      341.971       17.054      860.477
06/09/2014  02:23:00     -130.052      -86.895       -0.247       56.472       64.168       39.977     3189.095     4117.563     1598.168        1.668        0.445      156.411       34.478        0.049      341.944       17.006      860.472
06/09/2014  02:24:00     -170.615     -116.381      -10.884       55.589       58.565       35.723     3090.103     3429.810     1276.120        2.528        0.390      206.529       32.727        0.025      341.888       16.911      860.476
06/09/2014  02:25:00     -161.854     -130.846      -13.159       53.835       61.315       35.594     2898.219     3759.574     1266.906        2.571        0.396      208.129       26.916        0.017      341.853       16.851      860.479
06/09/2014  02:26:00     -163.783     -140.921      -11.839       74.148       51.042       38.060     5497.910     2605.318     1448.534        2.819        0.478      216.064       31.432        0.021      341.813       16.784      860.469
06/09/2014  02:27:00     -185.086     -138.402      -27.366       50.688       44.046       29.774     2569.322     1940.033      886.463        2.978        0.270      231.110       18.351        0.006      341.903       16.936      860.469
06/09/2014  02:28:00     -149.883      -75.479       -3.026       68.092       50.070       34.719     4636.564     2506.978     1205.392        1.826        0.417      167.815       31.724        0.036      341.830       16.812      860.460
06/09/2014  02:29:00     -132.138      -79.884        1.595       63.923       54.726       32.775     4086.208     2994.905     1074.218        1.600        0.408      154.408       36.590        0.056      341.814       16.788      860.449
06/09/2014  02:30:00     -117.796      -79.791        4.549       71.624       46.505       32.818     5129.960     2162.672     1077.002        1.431        0.418      142.276       36.445        0.066      341.834       16.821      860.433
06/09/2014  02:31:00     -122.235      -95.251       -1.630       62.490       52.760       35.094     3905.033     2783.625     1231.573        1.597        0.396      154.965       35.397        0.052      341.840       16.831      860.445
06/09/2014  02:32:00      -83.831      -72.699       16.158       56.394       55.240       29.257     3180.302     3051.472      855.990        0.983        0.354      110.963       24.641        0.049      341.843       16.838      860.439
06/09/2014  02:33:00     -123.591      -92.733        6.508       64.049       57.992       31.580     4102.334     3363.118      997.326        1.619        0.423      154.513       36.027        0.054      341.850       16.848      860.426
06/09/2014  02:34:00     -126.063      -88.094        9.053       76.003       54.475       36.368     5776.427     2967.546     1322.645        1.690        0.503      153.793       41.532        0.073      341.868       16.878      860.422
06/09/2014  02:35:00     -175.744     -105.719       -5.489       48.211       29.403       30.304     2324.260      864.512      918.353        2.310        0.205      205.091       28.506        0.019      341.897       16.925      860.425
06/09/2014  02:36:00     -121.657      -75.487        1.124       61.726       44.303       25.827     3810.088     1962.746      667.038        1.347        0.322      143.174       29.556        0.043      341.858       16.862      860.418
06/09/2014  02:37:00     -115.543      -66.010       -1.859       54.209       32.654       26.652     2938.605     1066.302      710.342        1.121        0.236      133.070       28.395        0.046      341.890       16.916      860.422
06/09/2014  02:38:00     -111.951      -51.365        7.233       42.759       30.760       23.830     1828.292      946.188      567.866        0.928        0.167      123.172       24.068        0.038      341.848       16.845      860.435
06/09/2014  02:39:00      -78.080      -44.461        7.926       65.560       28.164       26.975     4298.067      793.218      727.642        0.698        0.291       89.851       22.752        0.064      341.859       16.865      860.436
06/09/2014  02:40:00     -101.136      -72.448       -7.190       34.678       30.914       23.580     1202.591      955.680      556.035        0.912        0.136      124.407       10.002        0.006      341.885       16.908      860.425
06/09/2014  02:41:00     -139.380      -65.154       -5.519       29.296       25.199       20.376      858.260      635.009      415.195        1.280        0.095      153.856       12.648        0.007      341.834       16.822      860.411
06/09/2014  02:42:00     -128.185      -29.383       -4.781       37.262       36.649       21.698     1388.471     1343.134      470.785        1.026        0.160      131.510       20.423        0.024      341.674       16.550      860.394
06/09/2014  02:43:00     -163.497      -35.475       -8.811       29.165       25.539       17.189      850.622      652.230      295.446        1.493        0.090      167.301       11.350        0.005      341.711       16.614      860.389
06/09/2014  02:44:00     -124.485      -69.085       -5.656       33.926       28.225       21.451     1150.949      796.629      460.165        1.135        0.120      142.371       16.067        0.013      341.711       16.613      860.386
06/09/2014  02:45:00     -124.325      -48.197       -2.265       32.136       28.762       20.876     1032.729      827.245      435.827        1.004        0.115      133.340       15.766        0.014      341.680       16.563      860.377
06/09/2014  02:46:00     -113.184      -48.036        3.348       32.070       38.160       18.462     1028.478     1456.165      340.831        0.898        0.141      122.956       18.567        0.023      341.757       16.691      860.372
06/09/2014  02:47:00      -69.941      -47.635       -5.356       21.865       16.377       12.981      478.092      268.221      168.510        0.405        0.046       84.622        6.327        0.006      341.782       16.734      860.373
06/09/2014  02:48:00      -75.035      -20.131       -2.638       26.157       19.982       15.174      684.179      399.268      230.258        0.368        0.066       77.689       17.398        0.050      341.706       16.606      860.370
06/09/2014  02:49:00     -119.200      -40.321      -11.954       16.513       17.745        9.790      272.667      314.887       95.850        0.833        0.034      125.835        5.780        0.002      341.750       16.679      860.361
06/09/2014  02:50:00     -140.896      -37.958       -8.709       11.501       14.262       10.720      132.270      203.398      114.929        1.091        0.023      145.919        7.554        0.003      341.713       16.616      860.348
06/09/2014  02:51:00     -135.062      -60.483       -3.660       25.848       18.553       15.666      668.121      344.210      245.425        1.159        0.063      147.986       12.248        0.007      341.710       16.611      860.355
06/09/2014  02:52:00     -117.388      -31.649       -4.597       28.722       20.135       18.489      824.929      405.436      341.853        0.819        0.079      121.580       18.831        0.024      341.694       16.586      860.357
06/09/2014  02:53:00     -107.542      -28.396       -5.069       13.277       14.555       14.290      176.270      211.862      204.199        0.649        0.030      111.228        8.984        0.007      341.712       16.616      860.338
06/09/2014  02:54:00     -130.958      -29.455       -7.389       23.112       19.658       12.093      534.174      386.428      146.237        0.957        0.053      134.230        6.802        0.003      341.683       16.566      860.321
06/09/2014  02:55:00     -128.037      -29.585        1.008       38.618       40.153       24.162     1491.369     1612.282      583.813        1.048        0.184      131.410       22.419        0.029      341.653       16.515      860.321
06/09/2014  02:56:00      -92.981      -45.113        5.714       38.355       33.103       19.488     1471.087     1095.835      379.794        0.683        0.147      103.347       15.919        0.024      341.656       16.519      860.320
06/09/2014  02:57:00      -71.157      -37.713       -5.487       50.822       31.106       19.654     2582.865      967.576      386.270        0.523        0.197       80.533       18.119        0.051      341.710       16.612      860.340
06/09/2014  02:58:00      -52.984      -48.181        2.229       42.780       38.084       25.826     1830.125     1450.353      666.989        0.454        0.197       71.615       20.708        0.084      341.696       16.587      860.345
06/09/2014  02:59:00      -61.121      -72.195        2.710       47.792       40.992       23.810     2284.082     1680.346      566.904        0.674        0.227       94.593       25.545        0.073      341.671       16.544      860.362
06/09/2014  03:00:00      -74.417      -89.357       -1.766       34.073       37.056       21.273     1160.953     1373.162      452.537        0.826        0.149      116.287       20.380        0.031      341.724       16.635      860.362
06/09/2014  03:01:00      -78.974     -100.207        2.402       37.747       37.013       23.302     1424.832     1369.939      543.004        0.981        0.167      127.587       21.198        0.028      341.648       16.506      860.362
06/09/2014  03:02:00     -115.224     -105.844        1.416       37.642       54.053       28.220     1416.899     2921.691      796.379        1.481        0.257      156.459       24.459        0.024      341.553       16.345      860.362
06/09/2014  03:03:00     -136.192      -65.126       -5.877       29.628       30.548       21.681      877.794      933.186      470.079        1.255        0.114      150.962       15.140        0.010      341.587       16.403      860.359
06/09/2014  03:04:00     -103.140      -49.441       -1.203       69.481       47.908       30.078     4827.571     2295.209      904.709        1.055        0.401      114.378       38.103        0.111      341.485       16.228      860.343
06/09/2014  03:05:00     -126.976      -78.414       -2.453       52.347       36.386       23.564     2740.235     1323.917      555.241        1.345        0.231      149.237       23.292        0.024      341.527       16.302      860.322
06/09/2014  03:06:00      -86.526      -64.966        6.872       50.382       27.187       24.960     2538.321      739.123      622.991        0.783        0.195      108.200       22.340        0.043      341.523       16.295      860.314
06/09/2014  03:07:00      -85.632      -61.108       -0.500       45.707       28.362       15.608     2089.122      804.387      243.609        0.710        0.157      105.200       15.337        0.021      341.531       16.308      860.311
06/09/2014  03:08:00      -45.094      -38.860        2.296       42.092       37.250       21.437     1771.761     1387.572      459.546        0.358        0.181       59.528       20.376        0.117      341.621       16.461      860.314
06/09/2014  03:09:00      -74.697      -64.593        2.568       35.584       34.057       21.061     1266.246     1159.903      443.565        0.631        0.143       98.752       18.871        0.037      341.574       16.380      860.315
06/09/2014  03:10:00      -78.560      -65.840        4.098       42.760       26.355       22.236     1828.444      694.562      494.458        0.677        0.151      102.502       23.652        0.053      341.588       16.406      860.316
06/09/2014  03:11:00      -85.429      -66.050        5.563       34.613       22.036       17.440     1198.091      485.570      304.167        0.684        0.099      107.985       10.858        0.010      341.552       16.344      860.324
06/09/2014  03:12:00      -91.841      -70.465        2.570       36.741       29.179       19.194     1349.867      851.410      368.428        0.799        0.128      115.759       21.569        0.035      341.526       16.298      860.319
06/09/2014  03:13:00      -86.445      -63.245       -2.290       25.001       26.559       16.261      625.025      705.384      264.412        0.654        0.080      107.110       12.949        0.015      341.484       16.227      860.329
06/09/2014  03:14:00     -109.227      -63.032       -6.904       23.509       20.961       17.673      552.666      439.379      312.352        0.863        0.065      126.109       14.351        0.013      341.469       16.202      860.335
06/09/2014  03:15:00      -86.447      -48.997        1.237       31.280       24.289       18.410      978.454      589.942      338.912        0.589        0.095       99.367       16.181        0.027      341.371       16.037      860.337
06/09/2014  03:16:00      -81.036      -42.014       -2.974       37.908       22.002       17.958     1437.022      484.085      322.497        0.529        0.112       91.280       16.516        0.033      341.455       16.179      860.345
06/09/2014  03:17:00     -123.891      -59.875       -7.386       26.707       23.073       15.048      713.282      532.341      226.432        1.023        0.074      137.601        7.779        0.003      341.442       16.157      860.344
06/09/2014  03:18:00      -80.007      -60.417        9.107       41.302       30.872       24.716     1705.894      953.070      610.896        0.670        0.163      100.257       22.968        0.052      341.370       16.035      860.344
06/09/2014  03:19:00     -115.267      -43.075       -9.846       34.646       27.372       15.087     1200.376      749.217      227.610        0.871        0.109      123.053       10.168        0.007      341.326       15.960      860.341
06/09/2014  03:20:00      -86.374      -44.016        0.420       41.513       21.833       17.209     1723.368      476.677      296.153        0.595        0.125       96.943        9.576        0.010      341.349       16.000      860.336
06/09/2014  03:21:00     -103.423      -63.366       -0.686       29.806       27.480       16.121      888.392      755.171      259.893        0.831        0.095      121.292        6.562        0.003      341.374       16.043      860.338
06/09/2014  03:22:00      -89.872      -55.180       -1.737       36.610       26.781       20.018     1340.282      717.247      400.730        0.679        0.123      105.460       13.768        0.017      341.413       16.109      860.336
06/09/2014  03:23:00      -98.263      -60.940        5.423       41.513       30.870       27.516     1723.338      952.955      757.124        0.842        0.172      115.626       21.284        0.034      341.306       15.927      860.328
06/09/2014  03:24:00      -94.672      -67.355        1.369       44.355       36.050       22.032     1967.387     1299.622      485.422        0.863        0.188      116.187       24.513        0.045      341.340       15.985      860.317
06/09/2014  03:25:00      -84.121      -69.578        7.147       48.915       29.796       22.917     2392.703      887.783      525.194        0.789        0.190      109.167       21.255        0.038      341.309       15.932      860.315
06/09/2014  03:26:00      -97.688      -70.997       -0.357       52.169       26.573       25.228     2721.563      706.107      636.443        0.932        0.203      120.762       28.086        0.054      341.339       15.983      860.318
06/09/2014  03:27:00     -117.895      -79.321       -1.755       26.269       27.090       18.713      690.065      733.891      350.174        1.098        0.089      142.095       16.896        0.014      341.377       16.048      860.304
06/09/2014  03:28:00     -125.304      -64.669       -4.929       26.323       17.722       18.218      692.907      314.069      331.899        1.062        0.067      141.008       12.129        0.007      341.354       16.009      860.292
06/09/2014  03:29:00     -125.370      -45.697       -9.442       19.167       26.480       17.586      367.370      701.181      309.267        0.964        0.069      133.438       10.905        0.007      341.361       16.021      860.282
06/09/2014  03:30:00      -92.903      -54.491        6.371       54.108       27.380       22.054     2927.676      749.686      486.381        0.790        0.208      107.704       25.949        0.058      341.311       15.936      860.278
06/09/2014  03:31:00      -98.203      -68.630        3.616       46.226       31.923       20.853     2136.830     1019.051      434.831        0.898        0.180      119.808       23.643        0.039      341.337       15.979      860.284
06/09/2014  03:32:00      -62.201      -47.386        2.362       53.873       30.601       20.060     2902.257      936.447      402.402        0.518        0.212       78.195       18.726        0.057      341.337       15.979      860.284
06/09/2014  03:33:00     -110.969      -66.549       -2.464       40.859       27.830       17.371     1669.490      774.515      301.750        0.975        0.137      129.394       18.824        0.021      341.296       15.911      860.278
06/09/2014  03:34:00      -61.925      -45.307        4.255       38.616       28.761       18.163     1491.231      827.167      329.880        0.428        0.132       76.730       12.127        0.025      341.330       15.966      860.275
06/09/2014  03:35:00      -76.042      -63.410        2.295       37.193       27.532       20.455     1383.307      758.024      418.410        0.618        0.128       99.011       22.927        0.054      341.317       15.947      860.279
06/09/2014  03:36:00      -62.040      -45.625        7.118       46.179       25.558       24.252     2132.489      653.188      588.150        0.468        0.169       77.011       29.300        0.145      341.285       15.892      860.283
06/09/2014  03:37:00      -64.632      -47.237        1.416       37.202       24.571       19.470     1383.980      603.730      379.092        0.439        0.118       80.054       18.326        0.052      341.259       15.847      860.277
06/09/2014  03:38:00      -96.048      -60.665        3.873       27.047       26.534       21.837      731.515      704.029      476.850        0.742        0.096      113.602       17.825        0.025      341.249       15.831      860.259
06/09/2014  03:39:00      -86.307      -57.837        4.452       38.271       25.452       21.963     1464.638      647.826      482.360        0.670        0.130      103.894       16.845        0.026      341.193       15.736      860.260
06/09/2014  03:40:00      -90.975      -64.976       -2.510       29.790       28.014       18.246      887.429      784.793      332.899        0.725        0.100      111.796       10.954        0.010      341.289       15.899      860.269
06/09/2014  03:41:00      -33.684      -43.376       10.809       26.533       23.080       17.813      703.980      532.685      317.311        0.234        0.078       54.919       17.078        0.097      341.273       15.871      860.276
06/09/2014  03:42:00      -33.376      -45.917        5.917       29.976       21.528       16.101      898.568      463.464      259.248        0.244        0.081       56.766       17.160        0.091      341.303       15.921      860.281
06/09/2014  03:43:00      -54.883      -46.400        2.034       21.455       15.177       13.299      460.312      230.334      176.873        0.302        0.043       71.869       12.013        0.028      341.408       16.098      860.286
06/09/2014  03:44:00      -73.296      -27.525       -1.718       31.137       18.283       15.853      969.517      334.279      251.305        0.384        0.078       78.294       10.308        0.017      341.376       16.046      860.284
06/09/2014  03:45:00      -61.928      -34.696        2.590       33.528       22.299       17.757     1124.102      497.241      315.297        0.349        0.097       70.985       15.932        0.050      341.223       15.787      860.283
06/09/2014  03:46:00      -78.054      -52.070       -0.823       31.337       19.803       16.687      981.992      392.150      278.459        0.523        0.083       93.829       11.917        0.016      341.272       15.869      860.274
06/09/2014  03:47:00      -62.589      -49.069        0.619       40.978       32.890       23.207     1679.221     1081.739      538.543        0.481        0.165       79.531       25.210        0.100      341.263       15.855      860.276
06/09/2014  03:48:00      -63.819      -47.580        6.956       42.698       27.882       21.261     1823.095      777.426      452.046        0.472        0.153       79.604       23.636        0.088      341.266       15.860      860.294
06/09/2014  03:49:00      -92.096      -64.750        1.663       50.563       32.536       24.793     2556.578     1058.609      614.681        0.845        0.211      112.580       25.312        0.051      341.290       15.900      860.298
06/09/2014  03:50:00     -102.294      -72.769        1.195       34.517       50.680       23.390     1191.425     2568.420      547.114        1.003        0.215      125.536       28.060        0.050      341.337       15.979      860.295
06/09/2014  03:51:00      -73.670      -66.435       -0.841       47.008       29.104       19.749     2209.757      847.067      390.011        0.664        0.172       99.201       18.372        0.034      341.313       15.939      860.306
06/09/2014  03:52:00      -88.582      -73.041       -8.383       39.068       25.994       19.879     1526.330      675.695      395.167        0.792        0.130      114.812       17.594        0.023      341.311       15.936      860.329
06/09/2014  03:53:00     -110.485      -87.447       -3.450       38.592       41.622       24.040     1489.317     1732.360      577.930        1.183        0.190      140.904       21.417        0.023      341.230       15.798      860.333
06/09/2014  03:54:00      -84.244      -89.294       -6.288       48.963       33.657       27.533     2397.422     1132.811      758.052        0.970        0.214      122.762       23.687        0.037      341.233       15.802      860.333
06/09/2014  03:55:00     -106.776      -96.167      -13.257       37.615       40.356       23.506     1414.867     1628.571      552.546        1.221        0.180      143.699       20.344        0.020      341.227       15.792      860.339
06/09/2014  03:56:00      -87.023      -65.170        0.879       53.322       29.496       23.059     2843.277      870.041      531.695        0.803        0.212      108.720       25.550        0.055      341.212       15.767      860.345
06/09/2014  03:57:00      -91.071      -91.995       -5.349       28.337       40.859       19.069      802.984     1669.420      363.611        0.981        0.142      129.449       17.348        0.018      341.197       15.744      860.362
06/09/2014  03:58:00     -103.427      -51.995       -2.233       32.516       30.591       18.559     1057.277      935.790      344.448        0.787        0.117      115.761       14.843        0.016      341.213       15.769      860.369
06/09/2014  03:59:00     -106.482      -83.836       -3.823       40.826       45.053       25.547     1666.764     2029.774      652.670        1.136        0.217      135.524       19.913        0.022      341.206       15.758      860.367
06/09/2014  04:00:00     -106.429      -96.627        0.218       54.111       45.164       30.732     2928.018     2039.814      944.428        1.329        0.296      143.750       32.866        0.052      341.138       15.641      860.372
06/09/2014  04:01:00     -102.305      -80.937       -2.705       34.422       32.485       22.910     1184.853     1055.305      524.883        0.989        0.138      130.450       24.261        0.035      341.168       15.694      860.367
06/09/2014  04:02:00      -98.698      -53.837       -2.357       27.397       22.597       15.587      750.574      510.621      242.967        0.707        0.075      112.427       14.910        0.018      341.161       15.682      860.353
06/09/2014  04:03:00      -56.749      -46.131       -4.132       26.968       21.563       14.827      727.278      464.947      219.834        0.339        0.071       73.133        5.520        0.006      341.212       15.768      860.348
06/09/2014  04:04:00      -66.742      -20.046       -1.446       33.930       24.239       14.215     1151.228      587.533      202.071        0.340        0.097       69.687       18.100        0.067      341.132       15.633      860.354
06/09/2014  04:05:00      -80.936      -37.314       -8.484       17.963       13.586       10.364      322.652      184.570      107.411        0.431        0.031       89.124        4.997        0.003      341.119       15.611      860.369
06/09/2014  04:06:00      -44.787      -29.113        3.289       38.842       22.926       19.635     1508.674      525.587      385.525        0.264        0.121       53.418       18.402        0.119      341.075       15.536      860.370
06/09/2014  04:07:00      -87.994      -40.863        2.828       34.335       22.872       18.983     1178.897      523.107      360.357        0.574        0.103       97.020       16.448        0.029      341.072       15.531      860.361
06/09/2014  04:08:00      -64.863      -40.758        4.716       38.227       25.101       19.051     1461.307      630.042      362.926        0.417        0.123       76.606       17.476        0.052      341.048       15.491      860.354
06/09/2014  04:09:00      -27.075      -22.833        4.473       30.391       18.588       15.734      923.618      345.530      247.574        0.140        0.076       35.417       17.520        0.245      341.062       15.514      860.364
06/09/2014  04:10:00      -86.376      -20.437       -3.335       27.880       19.362       14.121      777.320      374.881      199.396        0.462        0.068       88.760       10.815        0.015      341.059       15.509      860.364
06/09/2014  04:11:00     -113.289      -11.017       -8.285       22.842       21.005       12.818      521.777      441.220      164.311        0.708        0.056      113.824       10.001        0.008      341.049       15.492      860.349
06/09/2014  04:12:00      -76.207       -4.165        2.150       40.380       22.239       17.651     1630.557      494.580      311.552        0.413        0.122       76.320       21.651        0.080      340.928       15.287      860.334
06/09/2014  04:13:00      -93.901      -22.369       -6.879       13.890       16.196       12.069      192.930      262.316      145.655        0.498        0.030       96.529        6.849        0.005      341.019       15.440      860.333
06/09/2014  04:14:00      -87.959      -30.361       -7.659       18.522       14.291       11.616      343.082      204.224      134.942        0.470        0.034       93.051        9.366        0.010      341.052       15.498      860.325
06/09/2014  04:15:00      -96.954      -37.483      -13.170       21.132       13.390       12.021      446.546      179.298      144.501        0.587        0.039      103.947        4.050        0.002      341.000       15.410      860.324
06/09/2014  04:16:00      -66.431      -48.426       -4.534       27.619       23.137       11.099      762.786      535.301      123.193        0.410        0.071       82.208       11.733        0.020      340.991       15.394      860.341
06/09/2014  04:17:00        0.520      -44.660       -2.517       25.032       21.104       22.471      626.594      445.361      504.941        0.179        0.079       44.663       18.341        0.169      341.001       15.409      860.353
06/09/2014  04:18:00      -29.839      -15.869        7.824       32.751       13.900       15.197     1072.621      193.210      230.961        0.135        0.075       33.796       17.202        0.259      340.858       15.169      860.351
06/09/2014  04:19:00      -70.582      -15.402        5.582       22.473       26.609       15.314      505.054      708.014      234.529        0.335        0.072       72.243       14.065        0.038      340.859       15.171      860.348
06/09/2014  04:20:00      -54.073       -8.957       -3.209       21.653       13.978       10.746      468.857      195.371      115.472        0.190        0.039       54.810       11.085        0.041      340.934       15.297      860.356
06/09/2014  04:21:00      -57.223      -36.389       -7.809       25.992       20.460       13.495      675.598      418.625      182.107        0.297        0.064       67.814       11.371        0.028      340.906       15.251      860.354
06/09/2014  04:22:00      -26.933      -26.427      -15.901       33.131       14.220       13.972     1097.646      202.205      195.204        0.159        0.075       37.733       10.975        0.085      340.927       15.286      860.357
06/09/2014  04:23:00       -2.017      -23.030        1.713       16.137       16.862       14.324      260.388      284.317      205.186        0.064        0.037       23.118       11.955        0.267      340.898       15.236      860.372
06/09/2014  04:24:00      -32.419      -14.792        0.049       28.468       19.659       16.283      810.438      386.463      265.121        0.137        0.073       35.634       17.648        0.245      340.897       15.235      860.366
06/09/2014  04:25:00      -75.316      -49.746       -6.933       18.070       19.982       14.434      326.524      399.279      208.329        0.456        0.047       90.261       10.870        0.015      340.880       15.206      860.361
06/09/2014  04:26:00      -93.485      -39.984      -10.708       14.343       11.845        8.546      205.729      140.311       73.039        0.544        0.021      101.677        5.657        0.003      340.848       15.151      860.347
06/09/2014  04:27:00      -85.150      -25.596       -7.921       36.473       21.809       14.268     1330.274      475.616      203.563        0.499        0.100       88.913       11.036        0.015      340.904       15.247      860.332
06/09/2014  04:28:00      -94.659      -13.850       -4.052       15.717       15.341       13.000      247.016      235.347      168.989        0.491        0.033       95.667        9.416        0.010      340.841       15.139      860.324
06/09/2014  04:29:00      -90.419      -32.235      -12.610       18.347       17.465       11.779      336.605      305.020      138.739        0.508        0.039       95.993        8.651        0.008      340.914       15.263      860.326
06/09/2014  04:30:00      -87.746      -42.759      -10.517       12.326       11.427        9.844      151.940      130.580       96.907        0.501        0.019       97.610        3.759        0.001      340.970       15.357      860.332
06/09/2014  04:31:00      -65.019      -28.963      -11.594       15.327       14.969        9.503      234.923      224.060       90.314        0.287        0.027       71.178        5.816        0.007      340.996       15.402      860.317
06/09/2014  04:32:00      -90.102      -18.164       -9.758       14.527       11.631        9.702      211.040      135.283       94.133        0.449        0.022       91.915        3.983        0.002      340.990       15.393      860.300
06/09/2014  04:33:00     -102.750      -30.457       -6.500       14.503       15.173       11.041      210.340      230.231      121.897        0.604        0.028      107.169        5.449        0.003      340.986       15.386      860.275
06/09/2014  04:34:00     -105.403      -35.148       -5.839       12.424       11.599        9.722      154.360      134.542       94.515        0.638        0.019      111.108        6.759        0.004      340.933       15.296      860.259
06/09/2014  04:35:00     -101.673      -40.099      -14.808        8.280       11.087        7.074       68.554      122.913       50.047        0.620        0.012      109.294        6.452        0.003      340.846       15.148      860.241
06/09/2014  04:36:00      -85.626      -29.192      -12.243       12.290       16.219       11.469      151.033      263.047      131.534        0.444        0.027       90.466        4.525        0.003      340.821       15.106      860.234
06/09/2014  04:37:00      -69.067      -22.768       -1.492       17.330       14.623       11.441      300.322      213.840      130.897        0.297        0.032       72.722        5.969        0.007      340.789       15.050      860.240
06/09/2014  04:38:00      -74.366      -43.251       -5.831       22.987       18.890       11.832      528.385      356.846      139.985        0.423        0.051       86.029       11.722        0.019      340.908       15.253      860.238
06/09/2014  04:39:00     -123.432      -37.357       -7.242       12.260       17.397        9.666      150.309      302.655       93.441        0.861        0.027      128.961        3.551        0.001      340.826       15.115      860.224
06/09/2014  04:40:00     -125.455      -33.433      -14.033       15.715       17.620       12.317      246.954      310.465      151.707        0.888        0.035      129.834        4.511        0.001      340.753       14.991      860.204
06/09/2014  04:41:00     -130.988      -33.084       -7.129       20.895       21.919       12.620      436.598      480.446      159.267        0.969        0.054      135.101       10.845        0.006      340.717       14.930      860.192
06/09/2014  04:42:00     -133.077      -52.675        0.280       21.848       21.377       15.361      477.321      456.973      235.947        1.083        0.059      143.123       11.378        0.006      340.736       14.962      860.196
06/09/2014  04:43:00     -112.509      -51.276        5.467       32.810       36.376       20.963     1076.470     1323.246      439.437        0.908        0.142      123.643       18.520        0.022      340.675       14.860      860.202
06/09/2014  04:44:00      -65.029      -56.430        6.661       50.189       30.075       24.058     2518.980      904.517      578.794        0.573        0.200       86.100       21.409        0.062      340.683       14.872      860.205
06/09/2014  04:45:00      -70.112      -58.272        6.001       47.791       43.319       29.720     2283.982     1876.537      883.297        0.669        0.252       91.166       32.454        0.127      340.696       14.894      860.198
06/09/2014  04:46:00      -86.372      -55.385        6.930       50.942       40.918       27.929     2595.068     1674.247      780.024        0.781        0.252      102.604       28.586        0.078      340.734       14.960      860.188
06/09/2014  04:47:00     -108.631      -46.590       -8.921       27.886       33.608       18.388      777.645     1129.464      338.117        0.815        0.112      118.200       16.865        0.020      340.708       14.915      860.176
06/09/2014  04:48:00     -111.750      -19.386       -6.052       27.281       23.888       19.287      744.266      570.640      371.969        0.729        0.084      113.419       14.130        0.016      340.625       14.774      860.186
06/09/2014  04:49:00      -89.148      -14.138        2.530       31.659       26.959       19.961     1002.295      726.766      398.426        0.514        0.106       90.262       15.984        0.031      340.584       14.705      860.203
06/09/2014  04:50:00      -92.902      -22.456       -0.644       37.418       37.960       21.985     1400.141     1440.962      483.335        0.623        0.166       95.577       17.363        0.033      340.591       14.718      860.208
06/09/2014  04:51:00      -75.376      -62.627       -2.539       33.324       30.557       16.282     1110.461      933.712      265.116        0.596        0.115       97.998       13.882        0.020      340.695       14.893      860.212
06/09/2014  04:52:00      -61.793      -48.508        3.411       41.090       22.260       20.795     1688.384      495.523      432.412        0.440        0.131       78.559       20.326        0.067      340.697       14.896      860.205
06/09/2014  04:53:00      -75.372      -62.805        2.460       35.779       30.776       16.669     1280.112      947.148      277.843        0.607        0.125       98.109       16.641        0.029      340.704       14.908      860.198
06/09/2014  04:54:00      -93.877      -54.493       -2.154       28.530       24.349       19.354      813.981      592.863      374.586        0.678        0.089      108.546       19.145        0.031      340.698       14.899      860.197
06/09/2014  04:55:00      -44.812      -35.969        5.108       34.296       26.289       18.400     1176.229      691.095      338.560        0.277        0.110       57.462       15.414        0.072      340.736       14.963      860.192
06/09/2014  04:56:00      -53.161      -32.139        1.412       30.496       18.015       16.012      930.015      324.542      256.376        0.269        0.076       62.121       15.579        0.063      340.679       14.867      860.197
06/09/2014  04:57:00       -8.412      -21.591        7.613       26.037       20.945       14.427      677.932      438.687      208.145        0.096        0.066       23.172       12.458        0.289      340.762       15.005      860.200
06/09/2014  04:58:00      -44.568      -55.312        1.413       35.403       23.141       20.414     1253.377      535.485      416.732        0.363        0.110       71.033       18.393        0.067      340.722       14.938      860.220
06/09/2014  04:59:00      -83.128      -49.880       -9.115       37.460       32.289       19.890     1403.275     1042.572      395.623        0.616        0.142       96.945       14.555        0.023      340.705       14.911      860.218
06/09/2014  05:00:00      -76.237      -61.903        2.092       42.307       33.694       22.496     1789.892     1135.289      506.086        0.654        0.172       98.204       18.496        0.035      340.689       14.882      860.214
06/09/2014  05:01:00     -106.352      -78.902       -7.405       25.800       25.045       18.307      665.634      627.227      335.141        0.961        0.081      132.425        8.282        0.004      340.711       14.918      860.207
06/09/2014  05:02:00     -112.356      -62.674        1.661       43.386       39.700       25.458     1882.303     1576.100      648.134        1.033        0.205      128.654       20.596        0.026      340.725       14.943      860.194
06/09/2014  05:03:00      -81.513      -51.185        2.531       50.165       38.494       21.814     2516.529     1481.750      475.836        0.687        0.224       96.251       24.576        0.065      340.743       14.974      860.185
06/09/2014  05:04:00      -36.624      -17.969        7.836       39.019       19.247       18.646     1522.487      370.441      347.667        0.198        0.112       40.795       19.130        0.220      340.704       14.908      860.188
06/09/2014  05:05:00      -56.409      -17.432       -5.491       24.849       18.818       10.695      617.488      354.099      114.390        0.230        0.054       59.041       10.448        0.031      340.835       15.127      860.180
06/09/2014  05:06:00      -47.746      -19.878        1.561       23.737       16.332       12.051      563.448      266.737      145.239        0.183        0.049       51.719        8.023        0.024      340.810       15.087      860.167
06/09/2014  05:07:00      -66.899      -31.592       -1.446       19.253       23.183       15.935      370.683      537.433      253.927        0.332        0.058       73.984       11.239        0.023      340.722       14.940      860.172
06/09/2014  05:08:00     -100.218      -25.214       -2.738       13.905       16.200        9.002      193.352      262.456       81.028        0.561        0.027      103.341        3.293        0.001      340.705       14.912      860.175
06/09/2014  05:09:00     -101.596      -34.908       -5.066       22.284       19.940       12.435      496.559      397.587      154.635        0.631        0.052      107.426        9.173        0.007      340.682       14.871      860.160
06/09/2014  05:10:00      -91.519      -30.080       -5.785       11.723       16.103        9.327      137.437      259.320       86.995        0.490        0.024       96.336        7.205        0.006      340.635       14.792      860.155
06/09/2014  05:11:00      -77.733      -14.576        0.283       18.338       11.753       12.417      336.289      138.126      154.184        0.344        0.031       79.087       10.661        0.018      340.601       14.735      860.140
06/09/2014  05:12:00      -55.930      -17.126       -4.022       18.588       12.440        9.915      345.515      154.743       98.305        0.202        0.030       58.494        8.184        0.020      340.608       14.746      860.132
06/09/2014  05:13:00      -63.972      -27.865       -7.844       12.900       16.347        9.881      166.417      267.211       97.637        0.273        0.027       69.777        5.662        0.007      340.641       14.803      860.123
06/09/2014  05:14:00      -64.464      -36.381       -5.231       20.228       12.790        9.264      409.160      163.592       85.830        0.308        0.033       74.022        3.782        0.003      340.651       14.819      860.119
06/09/2014  05:15:00      -90.556      -39.873       -8.349       12.417       11.976       11.332      154.192      143.435      128.412        0.514        0.021       98.945        2.781        0.001      340.679       14.868      860.116
06/09/2014  05:16:00     -102.472      -28.787       -1.824       15.292       19.771       10.377      233.851      390.905      107.674        0.603        0.037      106.438        8.445        0.006      340.650       14.818      860.117
06/09/2014  05:17:00      -46.937      -25.923        1.027       30.388       25.356       17.540      923.428      642.915      307.639        0.237        0.094       53.620       16.028        0.089      340.562       14.670      860.129
06/09/2014  05:18:00      -47.626      -32.424        4.831       39.921       36.589       20.773     1593.657     1338.756      431.527        0.335        0.168       57.615       23.558        0.167      340.520       14.598      860.134
06/09/2014  05:19:00      -74.379      -60.981        6.988       48.534       30.476       21.268     2355.537      928.806      452.343        0.652        0.187       96.182       24.948        0.067      340.603       14.736      860.140
06/09/2014  05:20:00      -46.403      -46.148       16.757       50.984       39.814       27.949     2599.365     1585.143      781.169        0.476        0.248       65.443       23.883        0.133      340.677       14.862      860.151
06/09/2014  05:21:00      -66.259      -48.917        4.814       45.611       49.677       27.686     2080.318     2467.790      766.538        0.606        0.266       82.360       29.549        0.129      340.653       14.822      860.143
06/09/2014  05:22:00      -99.065      -46.099       -0.656       32.127       25.382       13.259     1032.137      644.244      175.804        0.690        0.093      109.266        9.989        0.008      340.696       14.894      860.143
06/09/2014  05:23:00      -65.681      -29.724        0.050       33.985       23.383       13.197     1154.969      546.743      174.169        0.354        0.094       72.094       12.848        0.032      340.611       14.752      860.146
06/09/2014  05:24:00       -7.444      -50.698       -6.652       20.432       23.904       18.839      417.482      571.393      354.901        0.201        0.067       51.242       11.321        0.049      340.742       14.973      860.164
06/09/2014  05:25:00      -60.707      -47.039       -3.169       27.974       20.800       13.677      782.533      432.646      187.057        0.365        0.070       76.798        4.346        0.003      340.701       14.903      860.175
06/09/2014  05:26:00      -47.309      -29.373       -3.067       36.829       30.560       13.834     1356.407      933.933      191.372        0.280        0.124       55.685        7.572        0.018      340.690       14.886      860.180
06/09/2014  05:27:00      -25.456      -69.248       -2.653       19.507       20.615       16.800      380.511      424.989      282.250        0.327        0.054       73.779       11.868        0.026      340.657       14.829      860.187
06/09/2014  05:28:00      -60.776      -38.883       -0.054       39.717       31.035       23.115     1577.407      963.149      534.285        0.414        0.154       72.149       24.062        0.111      340.611       14.752      860.182
06/09/2014  05:29:00      -65.391      -23.919        8.991       37.846       33.970       20.322     1432.340     1153.987      412.999        0.396        0.150       69.629       18.164        0.068      340.564       14.670      860.161
06/09/2014  05:30:00      -60.249      -48.083       10.558       54.816       32.485       20.952     3004.837     1055.258      438.998        0.528        0.225       77.084       21.819        0.080      340.586       14.709      860.153
06/09/2014  05:31:00      -75.028      -67.514       -3.362       22.874       24.936       18.529      523.238      621.783      343.337        0.584        0.074      100.932        9.765        0.009      340.588       14.713      860.155
06/09/2014  05:32:00      -74.353      -60.065       -0.517       36.585       41.970       20.890     1338.481     1761.479      436.376        0.634        0.177       95.583       20.750        0.047      340.600       14.733      860.166
06/09/2014  05:33:00     -112.950      -55.498       -8.438       33.352       32.977       19.701     1112.332     1087.453      388.114        0.925        0.129      125.848       18.125        0.021      340.615       14.758      860.162
06/09/2014  05:34:00      -72.197      -60.042        3.306       45.496       33.606       18.791     2069.898     1129.378      353.100        0.619        0.178       93.901       15.566        0.027      340.612       14.753      860.167
06/09/2014  05:35:00      -96.584      -40.264       -2.161       27.129       33.548       20.882      735.986     1125.488      436.068        0.663        0.115      104.640       15.997        0.023      340.540       14.630      860.173
06/09/2014  05:36:00      -92.251      -44.940       -5.791       32.367       29.164       15.953     1047.654      850.558      254.505        0.636        0.108      102.615       15.055        0.022      340.584       14.707      860.179
06/09/2014  05:37:00      -88.478      -50.872        0.796       32.702       24.909       20.411     1069.433      620.470      416.595        0.626        0.105      102.061       19.755        0.037      340.589       14.714      860.190
06/09/2014  05:38:00      -62.255      -54.654        4.478       38.894       29.556       20.696     1512.716      873.582      428.330        0.485        0.141       82.842       13.321        0.026      340.594       14.720      860.196
06/09/2014  05:39:00      -42.636      -41.187        0.669       37.127       39.125       20.908     1378.444     1530.804      437.161        0.343        0.167       59.281       19.762        0.111      340.581       14.701      860.198
06/09/2014  05:40:00      -69.152       -9.873       -1.853       20.307       18.582       12.784      412.355      345.305      163.434        0.290        0.046       69.854        9.219        0.017      340.568       14.680      860.194
06/09/2014  05:41:00      -73.508       16.890        0.372       28.297       22.630       15.376      800.719      512.095      236.417        0.362        0.077       75.424       18.025        0.057      340.465       14.505      860.193
06/09/2014  05:42:00      -52.194      -34.672       -0.263       27.683       17.453       17.838      766.368      304.599      318.204        0.266        0.069       62.660       12.756        0.041      340.439       14.460      860.196
06/09/2014  05:43:00      -48.814      -37.996        7.890       35.950       18.439       14.756     1292.425      340.014      217.737        0.287        0.093       61.859       16.035        0.067      340.527       14.609      860.228
06/09/2014  05:44:00      -93.905      -84.692       -1.615       45.154       48.084       27.761     2038.878     2312.067      770.683        1.056        0.256      126.455       27.464        0.047      340.537       14.626      860.240
06/09/2014  05:45:00     -106.852      -89.912       -8.483       25.511       29.612       16.823      650.828      876.852      283.017        1.069        0.091      139.648       13.644        0.010      340.525       14.607      860.232
06/09/2014  05:46:00      -89.526      -67.172       -3.759       32.894       34.835       21.697     1081.992     1213.493      470.780        0.765        0.138      111.924       22.219        0.039      340.485       14.539      860.223
06/09/2014  05:47:00     -108.540      -15.444      -13.354       28.188       40.410       16.956      794.591     1632.999      287.520        0.746        0.136      109.633       10.856        0.010      340.496       14.557      860.218
06/09/2014  05:48:00     -127.185      -14.625      -11.450       21.166       21.238       16.315      447.999      451.073      266.179        0.884        0.058      128.024       12.155        0.009      340.397       14.389      860.225
06/09/2014  05:49:00      -96.345      -35.190        3.881       39.597       27.605       18.085     1567.930      762.062      327.049        0.660        0.133      102.570       16.642        0.026      340.369       14.342      860.240
06/09/2014  05:50:00     -103.106      -34.733       -3.810       43.643       19.993       20.600     1904.686      399.720      424.358        0.729        0.136      108.799       24.554        0.051      340.380       14.360      860.244
06/09/2014  05:51:00     -125.560      -49.255      -11.340       26.240       30.786       18.588      688.542      947.747      345.508        1.015        0.099      134.875       15.973        0.014      340.442       14.465      860.237
06/09/2014  05:52:00     -115.106      -64.419       -2.748       29.695       32.225       19.026      881.782     1038.459      361.999        0.984        0.114      131.906       13.190        0.010      340.356       14.320      860.231
06/09/2014  05:53:00      -63.988      -39.314        1.167       29.422       23.434       18.464      865.653      549.141      340.928        0.370        0.088       75.100       16.937        0.051      340.357       14.323      860.235
06/09/2014  05:54:00      -79.647       -0.363       -1.817       31.742       21.167       16.795     1007.532      448.033      282.071        0.404        0.087       79.648       16.835        0.045      340.269       14.173      860.240
06/09/2014  05:55:00      -92.391      -10.893       -2.884       32.439       25.841       16.412     1052.269      667.736      269.348        0.533        0.099       93.031       17.426        0.035      340.187       14.034      860.257
06/09/2014  05:56:00     -127.508      -36.756       -3.047       28.186       20.455       14.426      794.446      418.407      208.103        0.952        0.071      132.700       12.213        0.008      340.190       14.039      860.276
06/09/2014  05:57:00     -133.170      -50.910       -5.944       27.817       21.308       15.170      773.763      454.021      230.143        1.091        0.073      142.569        9.794        0.005      340.337       14.289      860.288
06/09/2014  05:58:00     -110.617      -62.449       -4.841       20.965       30.043       15.930      439.544      902.553      253.755        0.888        0.080      127.028       13.620        0.011      340.375       14.352      860.292
06/09/2014  05:59:00     -102.385      -37.096       -6.674       23.492       24.575       16.539      551.860      603.927      273.550        0.667        0.071      108.898       13.902        0.016      340.404       14.401      860.298
06/09/2014  06:00:00      -57.795      -59.134        3.907       31.024       25.287       15.297      962.507      639.433      234.011        0.434        0.092       82.686       11.072        0.018      340.460       14.495      860.314
06/09/2014  06:01:00      -83.088      -69.659       -3.831       30.689       26.703       15.821      941.841      713.073      250.309        0.684        0.095      108.425       14.544        0.018      340.421       14.429      860.315
06/09/2014  06:02:00      -93.173      -54.807       -4.242       21.549       28.300       16.532      464.361      800.881      273.298        0.662        0.077      108.097       15.598        0.021      340.394       14.383      860.304
06/09/2014  06:03:00     -104.341      -80.295       -9.138       18.884       22.548       13.299      356.623      508.404      176.872        0.923        0.052      131.660        4.274        0.001      340.469       14.512      860.294
06/09/2014  06:04:00      -90.457      -36.234       -8.831       41.241       27.063       18.779     1700.831      732.391      352.637        0.618        0.139       97.444       19.341        0.039      340.461       14.496      860.291
06/09/2014  06:05:00      -45.204      -35.493       -3.446       43.210       18.275       13.318     1867.133      333.961      177.371        0.285        0.119       57.473       13.513        0.055      340.489       14.544      860.304
06/09/2014  06:06:00      -37.790      -54.246       -4.902       37.713       24.069       14.565     1422.307      579.316      212.134        0.330        0.111       66.111        4.081        0.004      340.508       14.578      860.323
06/09/2014  06:07:00      -93.377      -73.692       -2.939       42.948       23.417       18.527     1844.547      548.370      343.233        0.845        0.137      118.953       24.080        0.041      340.456       14.488      860.323
06/09/2014  06:08:00      -66.802      -40.355        4.779       37.220       27.436       21.128     1385.325      752.746      446.374        0.435        0.129       78.045       14.344        0.034      340.415       14.420      860.323
06/09/2014  06:09:00      -25.853      -24.449        7.896       32.315       21.279       19.719     1044.267      452.814      388.840        0.161        0.094       35.583       17.099        0.231      340.523       14.604      860.327
06/09/2014  06:10:00      -76.745      -32.592      -10.381       15.359       20.134       11.671      235.908      405.377      136.209        0.392        0.039       83.379        7.258        0.008      340.490       14.546      860.328
06/09/2014  06:11:00      -65.293      -35.726       -1.353       23.279       14.580       13.192      541.895      212.567      174.019        0.323        0.046       74.428       13.648        0.034      340.567       14.675      860.316
06/09/2014  06:12:00      -52.282      -34.951        1.818       29.060       15.222       11.940      844.468      231.723      142.552        0.259        0.061       62.889        8.612        0.019      340.501       14.564      860.313
06/09/2014  06:13:00      -92.547      -34.764       -3.399       20.365       16.956       14.093      414.725      287.520      198.600        0.534        0.045       98.861        8.376        0.007      340.471       14.514      860.310
06/09/2014  06:14:00      -51.595      -47.503        1.904       31.360       18.968       16.123      983.478      359.798      259.966        0.326        0.080       70.132       16.457        0.055      340.522       14.599      860.319
06/09/2014  06:15:00      -67.197      -41.109       -5.749       35.941       21.342       13.225     1291.791      455.502      174.905        0.408        0.096       78.774       10.637        0.018      340.522       14.601      860.325
06/09/2014  06:16:00      -87.836      -34.686       -5.768       17.723       17.261       14.395      314.103      297.949      207.206        0.489        0.041       94.437        8.004        0.007      340.583       14.703      860.319
06/09/2014  06:17:00      -88.355      -33.821       -7.948       11.402       11.924       11.688      130.016      142.183      136.599        0.471        0.020       94.607        5.983        0.004      340.555       14.657      860.314
06/09/2014  06:18:00      -82.490      -31.483       -5.918       16.675       14.144       15.218      278.061      200.052      231.597        0.427        0.035       88.294       12.710        0.021      340.536       14.624      860.327
06/09/2014  06:19:00      -75.599      -47.325       -4.018       19.337       21.227       12.108      373.936      450.593      146.611        0.447        0.049       89.190        5.623        0.004      340.621       14.768      860.331
06/09/2014  06:20:00      -66.409      -60.389        1.380       40.604       30.416       13.680     1648.657      925.122      187.135        0.541        0.138       89.761       16.456        0.034      340.640       14.802      860.330
06/09/2014  06:21:00      -63.917      -55.737        2.841       32.159       18.889       16.786     1034.176      356.785      281.786        0.444        0.084       84.806       13.838        0.027      340.645       14.809      860.334
06/09/2014  06:22:00      -33.159      -52.955        3.395       34.963       32.713       20.622     1222.436     1070.135      425.250        0.332        0.136       62.480       20.822        0.111      340.678       14.864      860.339
06/09/2014  06:23:00      -56.000      -82.816       -4.558       22.733       22.763       15.660      516.776      518.145      245.223        0.565        0.064       99.972       12.948        0.017      340.664       14.838      860.353
06/09/2014  06:24:00      -48.019      -73.643       -9.610       21.387       13.600       12.044      457.401      184.951      145.055        0.430        0.039       87.916       10.206        0.013      340.712       14.921      860.366
06/09/2014  06:25:00      -45.976      -57.060       -7.704       19.763       15.605       12.517      390.579      243.514      156.668        0.311        0.040       73.278        6.102        0.007      340.720       14.936      860.362
06/09/2014  06:26:00      -66.486      -45.803      -11.015       19.763       21.487       15.922      390.592      461.684      253.510        0.387        0.055       80.736       10.016        0.015      340.657       14.829      860.365
06/09/2014  06:27:00      -74.319      -66.775       -4.688       41.847       24.640       20.073     1751.211      607.113      402.930        0.638        0.138       99.911       22.730        0.052      340.634       14.791      860.359
06/09/2014  06:28:00      -66.864      -60.986       -1.261       17.116       17.502       12.137      292.964      306.317      147.308        0.447        0.037       90.499       10.332        0.013      340.634       14.791      860.361
06/09/2014  06:29:00      -62.977      -71.656       -4.700       17.158       14.357       10.847      294.386      206.129      117.657        0.487        0.031       95.397        6.634        0.005      340.736       14.962      860.376
06/09/2014  06:30:00      -53.747      -73.487        6.629       31.415       27.475       21.397      986.881      754.903      457.811        0.527        0.110       91.045       22.349        0.060      340.721       14.937      860.380
06/09/2014  06:31:00      -70.070      -67.697       -0.008       29.426       30.852       16.994      865.865      951.830      288.794        0.580        0.105       97.430       15.567        0.026      340.699       14.900      860.394
06/09/2014  06:32:00      -67.892      -42.982       -0.661       38.799       22.128       20.743     1505.333      489.660      430.272        0.444        0.121       80.354       20.668        0.066      340.735       14.961      860.398
06/09/2014  06:33:00      -61.634      -46.537        6.069       36.184       35.155       20.946     1309.286     1235.908      438.725        0.449        0.149       77.230       20.413        0.070      340.771       15.022      860.406
06/09/2014  06:34:00      -84.310      -66.364       -8.540       20.357       20.256       14.289      414.405      410.298      204.186        0.631        0.051      107.296        7.084        0.004      340.759       15.002      860.399
06/09/2014  06:35:00      -63.031      -67.021       -0.233       34.203       24.614       20.703     1169.858      605.826      428.599        0.533        0.110       92.004       20.224        0.048      340.840       15.139      860.404
06/09/2014  06:36:00      -42.345      -51.578       -0.278       26.243       26.337       15.168      688.721      693.663      230.060        0.303        0.081       66.734       13.635        0.042      340.846       15.148      860.409
06/09/2014  06:37:00      -64.560      -67.740       -3.241       26.349       35.029       17.348      694.286     1227.029      300.950        0.549        0.111       93.577       17.510        0.035      340.888       15.219      860.423
06/09/2014  06:38:00      -35.273      -49.445       10.307       36.505       26.217       19.983     1332.588      687.329      399.318        0.311        0.121       60.737       23.310        0.147      340.980       15.373      860.422
06/09/2014  06:39:00      -87.452      -85.112       -5.526       21.194       15.660       14.001      449.180      245.247      196.016        0.791        0.045      122.033        8.965        0.005      340.838       15.133      860.416
06/09/2014  06:40:00      -70.593      -58.903        2.636       23.518       22.471       12.954      553.074      504.963      167.809        0.484        0.061       91.940        8.967        0.010      340.894       15.231      860.425
06/09/2014  06:41:00      -47.940      -41.505        8.331       31.959       23.304       15.404     1021.362      543.087      237.289        0.295        0.090       63.411       16.747        0.070      341.086       15.555      860.424
06/09/2014  06:42:00      -20.128      -32.683       10.790       27.837       21.930       16.218      774.879      480.922      263.030        0.155        0.076       38.384       18.752        0.239      341.241       15.818      860.441
06/09/2014  06:43:00      -19.246      -34.667        9.869       20.122       21.357       12.588      404.878      456.136      158.464        0.134        0.051       39.651       13.296        0.112      341.241       15.818      860.446
06/09/2014  06:44:00      -36.364      -23.100       -1.109       29.150       24.975       11.561      849.736      623.734      133.665        0.173        0.080       43.081       10.592        0.060      341.113       15.600      860.457
06/09/2014  06:45:00      -25.289      -30.103        5.641       22.911       20.788       14.488      524.902      432.150      209.891        0.137        0.058       39.315       16.980        0.187      341.229       15.796      860.460
06/09/2014  06:46:00       -4.661      -27.615        9.638       24.422       16.277       19.115      596.419      264.948      365.366        0.105        0.061       28.005       18.032        0.415      341.194       15.738      860.456
06/09/2014  06:47:00      -27.836      -23.704       -2.811       14.294       20.605       15.583      204.317      424.550      242.843        0.111        0.044       36.561       12.521        0.117      341.198       15.744      860.459
06/09/2014  06:48:00      -34.798      -33.783       -4.291       27.664       22.925       16.034      765.312      525.536      257.076        0.196        0.077       48.500       11.124        0.053      341.296       15.910      860.456
06/09/2014  06:49:00      -76.054      -16.216       -0.956       38.611       23.676       20.167     1490.801      560.552      406.727        0.425        0.123       77.764       23.425        0.091      341.383       16.057      860.448
06/09/2014  06:50:00      -68.257      -47.678        4.448       25.701       21.233       15.434      660.531      450.840      238.213        0.415        0.067       83.260       14.859        0.032      341.239       15.813      860.440
06/09/2014  06:51:00      -47.516      -41.081        0.550       17.658       15.120       11.593      311.803      228.627      134.407        0.231        0.034       62.813        8.700        0.019      341.247       15.828      860.445
06/09/2014  06:52:00        6.038      -41.416        0.377       21.349       21.603       23.463      455.765      466.669      550.502        0.161        0.074       41.854       11.469        0.075      340.868       15.187      860.441
06/09/2014  06:53:00       27.490      -29.795       12.443       23.524       30.211       27.987      553.397      912.717      783.298        0.202        0.112       40.539       24.421        0.363      340.940       15.308      860.442
06/09/2014  06:54:00       28.983      -44.712        5.492       23.844       19.554       22.670      568.540      382.344      513.942        0.217        0.073       53.284        9.635        0.033      340.912       15.261      860.437
06/09/2014  06:55:00        2.997      -19.419       10.378       22.121       17.273       13.941      489.360      298.364      194.338        0.074        0.049       19.649        9.104        0.215      341.213       15.770      860.435
06/09/2014  06:56:00       -7.165      -22.332        4.838       16.353       18.599       20.372      267.424      345.915      415.024        0.080        0.051       23.453       12.004        0.262      341.167       15.691      860.427
06/09/2014  06:57:00       -5.437      -19.391       -9.401       23.877       18.305       16.270      570.118      335.082      264.720        0.083        0.058       20.139       13.338        0.439      341.259       15.847      860.420
06/09/2014  06:58:00       30.222      -22.618        5.125       22.312       22.394       28.839      497.807      501.492      831.692        0.164        0.092       37.748       18.842        0.249      341.227       15.794      860.410
06/09/2014  06:59:00       34.868      -35.323       -6.194       25.306       22.214       24.618      640.376      493.464      606.030        0.212        0.087       49.634       15.246        0.094      340.979       15.374      860.393
06/09/2014  07:00:00       36.496      -26.419        6.150       25.934       19.656       20.350      672.571      386.356      414.135        0.177        0.074       45.055       12.932        0.082      341.124       15.619      860.385
06/09/2014  07:01:00       23.239      -17.089       -2.041       22.464       16.650       26.222      504.649      277.219      687.598        0.115        0.073       28.846       17.253        0.358      341.372       16.039      860.369
06/09/2014  07:02:00       26.070       -4.956       23.187       19.334       13.380       18.269      373.822      179.026      333.739        0.106        0.044       26.537        8.943        0.114      341.505       16.265      860.357
06/09/2014  07:03:00        3.680       -6.326       17.691       30.868       15.908       19.603      952.837      253.049      384.262        0.098        0.080        7.319       11.119        2.308      341.764       16.703      860.353
06/09/2014  07:04:00      -32.038      -45.291        6.713       33.143       23.072       19.808     1098.463      532.307      392.374        0.257        0.101       55.477       20.367        0.135      341.750       16.681      860.344
06/09/2014  07:05:00      -32.276      -46.324       -7.319       15.927       18.308       10.610      253.684      335.166      112.575        0.197        0.035       56.459        9.755        0.030      341.662       16.532      860.336
06/09/2014  07:06:00      -28.027      -20.205      -11.134       21.033       18.516       13.676      442.390      342.826      187.026        0.114        0.049       34.551        6.810        0.039      341.672       16.548      860.330
06/09/2014  07:07:00      -32.411      -25.711       -0.858       27.403       18.242       16.706      750.899      332.787      279.104        0.154        0.068       41.371       13.489        0.106      341.718       16.625      860.338
06/09/2014  07:08:00        3.101      -42.203       -8.172       24.655       24.879       19.102      607.849      618.968      364.868        0.172        0.080       42.317       12.720        0.090      341.397       16.081      860.337
06/09/2014  07:09:00      -65.493      -64.824        2.046       45.386       33.994       19.748     2059.933     1155.621      389.982        0.605        0.180       92.149       25.530        0.077      341.794       16.754      860.338
06/09/2014  07:10:00      -60.071      -47.170        2.300       17.800       19.127       18.849      316.855      365.851      355.294        0.344        0.052       76.377       12.502        0.027      341.737       16.658      860.331
06/09/2014  07:11:00      -48.668      -47.309       -1.538       23.140       18.253       14.381      535.441      333.175      206.820        0.284        0.054       67.873       16.967        0.062      341.919       16.965      860.333
06/09/2014  07:12:00       -9.970      -17.251       16.605       37.612       17.617       19.885     1414.651      310.374      395.393        0.140        0.106       19.925       23.573        1.400      342.239       17.511      860.332
06/09/2014  07:13:00       37.100       -4.335       24.236       25.167       22.455       25.447      633.364      504.214      647.538        0.188        0.089       37.352       17.102        0.210      341.762       16.702      860.331
06/09/2014  07:14:00       30.367      -17.371       10.242       25.850       21.704       29.520      668.240      471.080      871.417        0.167        0.101       34.984       19.002        0.295      341.799       16.763      860.340
06/09/2014  07:15:00       15.112      -17.931        4.248       15.126       19.733       22.634      228.786      389.408      512.290        0.085        0.057       23.450       14.972        0.408      341.766       16.707      860.347
06/09/2014  07:16:00       28.439       -3.538       25.449       27.433       14.651       22.263      752.544      214.665      495.622        0.147        0.073       28.658       15.010        0.274      341.983       17.076      860.351
06/09/2014  07:17:00        2.402      -13.498       15.466       21.784       15.831       14.792      474.527      250.635      218.813        0.069        0.047       13.710        9.675        0.498      342.056       17.198      860.357
06/09/2014  07:18:00      -19.816        1.175       -0.786        8.439       11.558        8.057       71.215      133.583       64.909        0.033        0.013       19.851        6.761        0.116      342.139       17.339      860.356
06/09/2014  07:19:00       -5.087       -9.274       12.956       12.199       12.437       12.594      148.821      154.681      158.598        0.037        0.023       10.577        8.973        0.720      342.404       17.790      860.369
06/09/2014  07:20:00       17.633        2.402       28.854       21.761       16.557       14.990      473.554      274.127      224.689        0.106        0.049       17.796        7.897        0.197      342.577       18.083      860.369
06/09/2014  07:21:00       42.723        5.656        6.329       19.604       17.544       22.920      384.313      307.783      525.322        0.156        0.061       43.096       11.457        0.071      341.770       16.714      860.374
06/09/2014  07:22:00       37.780       -0.393       15.449       19.276       12.450       22.939      371.575      155.004      526.201        0.136        0.053       37.782       12.332        0.107      341.817       16.794      860.381
06/09/2014  07:23:00       21.034      -10.952       12.841       27.958       18.062       27.722      781.672      326.222      768.527        0.130        0.094       23.714       19.999        0.711      342.252       17.533      860.375
06/09/2014  07:24:00       22.936      -28.081       20.457       26.987       24.372       19.498      728.296      594.010      380.168        0.172        0.085       36.257       13.682        0.142      341.979       17.068      860.376
06/09/2014  07:25:00       50.028      -15.407        6.021       31.350       24.309       25.971      982.823      590.944      674.514        0.251        0.112       52.347       18.896        0.130      341.921       16.969      860.379
06/09/2014  07:26:00       18.447       -0.230       21.688       22.874       16.574       23.749      523.214      274.713      564.028        0.109        0.068       18.449       11.387        0.381      342.320       17.647      860.366
06/09/2014  07:27:00        5.183       -1.123       18.266       18.822       17.192       14.339      354.275      295.557      205.619        0.061        0.043        5.303        3.467        0.428      342.596       18.117      860.368
06/09/2014  07:28:00       20.766       22.091       31.572       18.066       20.728       20.080      326.397      429.647      403.201        0.154        0.058       30.319       10.781        0.126      342.420       17.816      860.362
06/09/2014  07:29:00       27.067       34.531        3.161       22.947       14.926       21.018      526.552      222.798      441.740        0.156        0.060       43.875        9.873        0.051      342.071       17.225      860.367
06/09/2014  07:30:00       31.571        0.038        9.633       16.350       25.154       23.419      267.309      632.731      548.440        0.127        0.072       31.571       17.674        0.313      342.286       17.591      860.372
06/09/2014  07:31:00       40.822       28.366        2.975       20.288       15.754       16.119      411.584      248.195      259.814        0.170        0.046       49.710        9.399        0.036      342.142       17.347      860.369
06/09/2014  07:32:00       42.213       14.588       12.796       38.324       20.897       18.289     1468.699      436.695      334.503        0.220        0.112       44.662       14.316        0.103      342.497       17.949      860.359
06/09/2014  07:33:00       20.345       10.441       19.080       30.267       22.245       17.040      916.062      494.847      290.356        0.129        0.085       22.867       19.096        0.697      342.908       18.649      860.352
06/09/2014  07:34:00       24.608        2.714       20.177       38.143       26.757       28.515     1454.868      715.931      813.115        0.200        0.149       24.757       16.623        0.451      342.741       18.364      860.346
06/09/2014  07:35:00       39.286       33.025       19.557       27.572       36.156       27.536      760.189     1307.242      758.233        0.292        0.141       51.322       13.928        0.074      342.427       17.829      860.346
06/09/2014  07:36:00       44.012       59.475       28.526       24.835       23.084       23.863      616.790      532.880      569.451        0.400        0.086       73.989        9.358        0.016      342.255       17.537      860.343
06/09/2014  07:37:00       50.371       29.012       16.870       28.831       21.697       27.089      831.236      470.771      733.795        0.285        0.102       58.129       19.520        0.113      342.585       18.097      860.347
06/09/2014  07:38:00       43.419       43.116        1.218       27.910       19.746       25.579      778.948      389.889      654.296        0.278        0.091       61.190       16.712        0.075      342.680       18.260      860.353
06/09/2014  07:39:00       64.230       45.500        5.743       25.283       25.444       25.186      639.244      647.384      634.337        0.407        0.096       78.713       13.400        0.029      342.480       17.918      860.355
06/09/2014  07:40:00       57.435       54.789       15.861       31.546       28.274       23.400      995.142      799.411      547.567        0.445        0.117       79.376       19.282        0.059      342.525       17.995      860.363
06/09/2014  07:41:00       17.937       -4.086       24.154       27.946       38.860       20.453      780.994     1510.109      418.318        0.182        0.135       18.396       10.177        0.306      342.863       18.571      860.369
06/09/2014  07:42:00       59.253       54.209        6.946       41.661       24.413       23.850     1735.624      595.988      568.833        0.470        0.145       80.309       19.410        0.058      342.792       18.449      860.368
06/09/2014  07:43:00       77.139       57.161       15.494       27.674       23.560       25.260      765.851      555.064      638.086        0.571        0.098       96.009        8.228        0.007      342.674       18.250      860.369
06/09/2014  07:44:00       76.105       51.077       23.744       27.927       24.359       22.251      779.918      593.382      495.097        0.542        0.093       91.656       13.724        0.022      342.760       18.394      860.367
06/09/2014  07:45:00       65.927       50.703       20.228       19.093       27.755       25.354      364.561      770.325      642.830        0.455        0.089       83.170       14.508        0.030      342.671       18.244      860.371
06/09/2014  07:46:00       12.632       26.047       33.307       26.048       32.058       25.564      678.499     1027.702      653.505        0.215        0.118       28.948       13.802        0.227      343.385       19.460      860.364
06/09/2014  07:47:00       12.569       -1.889       42.274       27.526       20.271       19.512      757.661      410.933      380.732        0.175        0.077       12.710       14.193        1.247      343.172       19.098      860.365
06/09/2014  07:48:00       12.126       -6.245       34.907       17.748       37.666       15.024      314.998     1418.711      225.712        0.168        0.098       13.640        7.118        0.272      342.746       18.372      860.364
06/09/2014  07:49:00       15.669        5.786       19.387       22.652       27.454       22.623      513.115      753.733      511.805        0.122        0.089       16.703       20.344        1.483      342.792       18.451      860.364
06/09/2014  07:50:00       20.062       -4.011       27.178       33.158       34.003       28.905     1099.440     1156.198      835.488        0.212        0.155       20.460       26.849        1.722      342.730       18.345      860.364
06/09/2014  07:51:00       30.028       -2.711       17.955       27.825       25.283       26.300      774.247      639.245      691.695        0.167        0.105       30.151       21.324        0.500      342.544       18.028      860.361
06/09/2014  07:52:00       26.501      -17.379       18.158       17.265       30.991       20.569      298.084      960.435      423.085        0.151        0.084       31.691       18.159        0.328      342.603       18.128      860.368
06/09/2014  07:53:00       32.260       -3.320       17.237       23.451       24.463       18.909      549.951      598.456      357.552        0.143        0.075       32.431       17.898        0.305      342.548       18.034      860.383
06/09/2014  07:54:00       28.457        4.094       11.083       26.422       20.774       26.776      698.142      431.573      716.944        0.140        0.092       28.750       12.513        0.189      342.728       18.342      860.384
06/09/2014  07:55:00        8.624       -0.810       22.353       22.501       25.907       26.210      506.306      671.178      686.952        0.122        0.093        8.662       22.288        6.621      343.162       19.081      860.385
06/09/2014  07:56:00       19.706        5.000       16.747       21.643       15.674       17.567      468.435      245.689      308.585        0.086        0.051       20.331       12.972        0.407      343.020       18.836      860.383
06/09/2014  07:57:00       41.029       43.105        8.473       25.996       44.116       24.210      675.786     1946.207      586.110        0.341        0.160       59.510       23.451        0.155      343.192       19.131      860.371
06/09/2014  07:58:00       69.093       52.983       16.864       30.515       25.128       23.860      931.183      631.396      569.297        0.500        0.107       87.069       14.003        0.026      343.099       18.972      860.368
06/09/2014  07:59:00       71.489       38.572       -4.077       13.411       17.691       14.161      179.854      312.989      200.521        0.365        0.035       81.232       11.218        0.019      342.788       18.443      860.375
06/09/2014  08:00:00       40.192       30.810        1.379       22.269       19.006       19.456      495.916      361.243      378.533        0.190        0.062       50.642       12.689        0.063      342.848       18.544      860.372
06/09/2014  08:01:00       82.935       64.944       22.295       20.729       18.011       18.879      429.671      324.380      356.407        0.635        0.056      105.338        9.922        0.009      342.798       18.462      860.367
06/09/2014  08:02:00       58.024       48.436        6.846       21.399       23.224       22.251      457.921      539.363      495.106        0.363        0.075       75.583       10.374        0.019      342.990       18.786      860.372
06/09/2014  08:03:00       30.714       12.273        4.197       26.161       41.606       21.111      684.422     1731.085      445.654        0.199        0.143       33.076        9.411        0.081      343.088       18.954      860.374
06/09/2014  08:04:00       34.308      -38.454       18.709       30.464       37.897       29.466      928.029     1436.205      868.233        0.312        0.162       51.534       28.155        0.298      342.758       18.393      860.373
06/09/2014  08:05:00        9.682       20.241       24.443       30.932       25.999       23.372      956.758      675.935      546.228        0.164        0.109       22.437       11.175        0.248      343.294       19.307      860.371
06/09/2014  08:06:00       73.954       61.539        2.805       28.109       23.667       17.582      790.105      560.115      309.115        0.546        0.083       96.209       13.454        0.020      343.134       19.032      860.369
06/09/2014  08:07:00       58.014       23.514        6.242       31.124       31.617       24.623      968.676      999.605      606.282        0.327        0.129       62.598        9.492        0.023      343.345       19.392      860.364
06/09/2014  08:08:00       45.552       44.712        2.502       36.675       30.946       26.638     1345.047      957.682      709.606        0.355        0.151       63.829       22.094        0.120      343.301       19.317      860.349
06/09/2014  08:09:00        4.081       51.588        8.742       31.035       48.114       26.726      963.152     2314.921      714.281        0.337        0.200       51.749       30.661        0.351      343.857       20.265      860.340
06/09/2014  08:10:00      -16.747        4.604       16.181       22.887       20.999       16.090      523.796      440.965      258.903        0.089        0.061       17.368       10.369        0.356      343.776       20.126      860.338
06/09/2014  08:11:00      -18.229       25.943       17.023       26.588       26.773       24.466      706.943      716.816      598.568        0.166        0.101       31.707       19.371        0.373      344.132       20.735      860.340
06/09/2014  08:12:00       19.507       43.273       43.654       28.253       34.296       23.897      798.225     1176.248      571.072        0.335        0.127       47.467       12.089        0.065      343.992       20.496      860.340
06/09/2014  08:13:00       47.632       33.631       48.063       39.590       37.193       19.293     1567.369     1383.352      372.238        0.452        0.166       58.309       10.946        0.035      343.654       19.918      860.335
06/09/2014  08:14:00        7.461       25.130       31.356       19.092       26.110       19.844      364.496      681.715      393.773        0.155        0.072       26.214       11.898        0.206      343.981       20.476      860.332
06/09/2014  08:15:00       79.267       48.688       22.043       49.811       31.531       32.079     2481.160      994.194     1029.086        0.682        0.225       93.026       22.761        0.060      343.582       19.795      860.329
06/09/2014  08:16:00      117.418       63.493       -2.007       26.176       29.155       21.242      685.206      850.037      451.230        0.990        0.099      133.485        5.309        0.002      343.403       19.492      860.319
06/09/2014  08:17:00       42.373       33.633       30.172       28.978       24.291       35.400      839.731      590.058     1253.186        0.326        0.134       54.099       23.859        0.195      343.602       19.829      860.323
06/09/2014  08:18:00       69.240       47.454       25.931       44.712       33.010       39.662     1999.141     1089.691     1573.084        0.619        0.233       83.940       30.830        0.135      343.625       19.868      860.317
06/09/2014  08:19:00       69.732       51.752       -1.544       36.257       18.897       23.141     1314.577      357.094      535.513        0.487        0.110       86.838       12.458        0.021      343.706       20.006      860.307
06/09/2014  08:20:00       40.918       42.248        1.389       16.033       15.192       29.192      257.044      230.795      852.183        0.240        0.067       58.814       14.963        0.065      343.586       19.800      860.310
06/09/2014  08:21:00       43.716      -11.552       -2.238       30.504       40.639       27.542      930.466     1651.564      758.577        0.269        0.167       45.216       16.189        0.128      343.493       19.644      860.303
06/09/2014  08:22:00       34.004       40.940       13.872       30.477       35.466       29.402      928.870     1257.858      864.474        0.304        0.153       53.220       31.087        0.341      343.602       19.830      860.298
06/09/2014  08:23:00       41.819       45.626      -15.560       21.620       32.171       25.478      467.417     1034.999      649.111        0.311        0.108       61.892       23.151        0.140      343.602       19.831      860.292
06/09/2014  08:24:00        3.814       18.179       13.415       16.043       22.275       17.558      257.367      496.194      308.286        0.079        0.053       18.575       11.497        0.383      344.368       21.138      860.291
06/09/2014  08:25:00        5.877      -20.280       11.651       33.713       24.128       20.859     1136.565      582.145      435.095        0.137        0.108       21.115       12.605        0.356      344.091       20.666      860.285
06/09/2014  08:26:00       44.529       25.565       47.735       28.267       43.376       21.567      799.044     1881.502      465.127        0.403        0.157       51.345       19.788        0.149      343.781       20.136      860.288
06/09/2014  08:27:00       83.803       52.041       44.307       55.714       36.414       28.336     3104.037     1326.004      802.934        0.846        0.262       98.647       12.931        0.017      343.764       20.105      860.287
06/09/2014  08:28:00      113.519       65.750       13.827       34.294       28.240       23.917     1176.063      797.514      572.012        0.997        0.127      131.186       19.382        0.022      343.568       19.771      860.280
06/09/2014  08:29:00       62.236       37.106        8.609       27.925       34.285       22.297      779.831     1175.446      497.154        0.389        0.123       72.458       15.129        0.044      343.758       20.096      860.274
06/09/2014  08:30:00      126.505       65.298       24.984       32.409       23.361       29.134     1050.326      545.716      848.807        1.167        0.122      142.363       15.636        0.012      343.525       19.699      860.269
06/09/2014  08:31:00       70.033       22.792       16.582       28.483       26.545       24.365      811.255      704.652      593.669        0.390        0.105       73.649       18.884        0.066      343.599       19.824      860.267
06/09/2014  08:32:00       15.959      -30.026       -2.048       24.723       34.505       30.658      611.237     1190.574      939.934        0.195        0.137       34.004       28.707        0.713      343.707       20.012      860.273
06/09/2014  08:33:00       42.992       34.119       25.884       31.431       35.104       31.292      987.886     1232.298      979.188        0.344        0.160       54.886       21.992        0.161      343.852       20.257      860.273
06/09/2014  08:34:00       77.155       67.326       33.594       43.231       32.648       32.177     1868.927     1065.864     1035.352        0.779        0.199      102.399       16.357        0.026      344.005       20.516      860.263
06/09/2014  08:35:00       50.888       24.740       57.396       34.950       24.960       16.220     1221.473      622.992      263.097        0.430        0.105       56.583       12.003        0.045      344.165       20.792      860.267
06/09/2014  08:36:00       35.661       12.145       22.993       20.696       26.170       15.156      428.315      684.857      229.699        0.165        0.067       37.672       11.497        0.093      343.953       20.428      860.273
06/09/2014  08:37:00       29.226       20.149       22.769       30.868       19.850       20.347      952.814      394.036      414.003        0.177        0.088       35.499        7.993        0.051      344.148       20.762      860.261
06/09/2014  08:38:00       54.522       51.200       26.426       30.380       35.456       26.070      922.915     1257.121      679.620        0.458        0.143       74.794       12.146        0.026      344.077       20.641      860.269
06/09/2014  08:39:00       12.009       14.807       31.032       21.782       34.329       22.954      474.450     1178.473      526.901        0.175        0.109       19.065       19.930        1.093      344.743       21.778      860.271
06/09/2014  08:40:00       26.256        1.897       27.782       33.291       42.974       29.351     1108.293     1846.790      861.502        0.264        0.191       26.325        7.186        0.075      344.554       21.456      860.272
06/09/2014  08:41:00       22.945        9.463       37.298       28.840       30.134       25.600      831.772      908.076      655.340        0.220        0.120       24.820       16.675        0.451      344.583       21.505      860.273
06/09/2014  08:42:00       22.492       14.984       24.556       31.773       22.685       21.129     1009.494      514.595      446.449        0.165        0.099       27.026       19.280        0.509      344.566       21.478      860.260
06/09/2014  08:43:00       28.561        8.818        4.188       26.434       34.637       28.009      698.765     1199.729      784.528        0.180        0.134       29.892       12.434        0.173      344.224       20.892      860.263
06/09/2014  08:44:00       44.013        2.482       23.764       26.522       29.968       26.814      703.410      898.081      718.981        0.241        0.116       44.083       16.417        0.139      344.206       20.861      860.265
06/09/2014  08:45:00       11.136       28.761       33.503       26.579       24.591       22.672      706.425      604.725      514.030        0.195        0.091       30.841       16.520        0.287      344.410       21.209      860.259
06/09/2014  08:46:00       15.175       27.140       29.960       38.008       31.412       25.726     1444.589      986.735      661.839        0.248        0.155       31.094       19.743        0.403      344.824       21.917      860.261
06/09/2014  08:47:00       37.635       71.065        4.476       28.184       26.759       34.380      794.358      716.037     1181.999        0.459        0.135       80.415       20.159        0.063      344.312       21.041      860.257
06/09/2014  08:48:00       27.491       22.036       22.144       28.856       30.289       22.967      832.678      917.430      527.478        0.200        0.114       35.232       17.983        0.261      344.483       21.335      860.255
06/09/2014  08:49:00       32.798        1.209       30.634       32.323       28.235       23.383     1044.778      797.212      546.751        0.220        0.119       32.820       24.731        0.568      344.434       21.250      860.262
06/09/2014  08:50:00       24.537      -11.319       20.189       24.180       19.948       24.921      584.661      397.910      621.075        0.137        0.080       27.022       16.848        0.389      344.737       21.771      860.257
06/09/2014  08:51:00       46.463       34.365       -8.683       20.801       22.114       17.188      432.691      489.022      295.425        0.232        0.061       57.791        7.955        0.019      344.029       20.559      860.259
06/09/2014  08:52:00       35.444       24.758        2.159       20.987       19.451       19.711      440.460      378.340      388.504        0.154        0.060       43.235       13.054        0.091      344.418       21.221      860.256
06/09/2014  08:53:00       23.474       19.719       21.921       22.597       24.092       25.165      510.621      580.403      633.293        0.157        0.086       30.657       21.467        0.490      344.826       21.921      860.246
06/09/2014  08:54:00       19.136        0.220       21.759       19.144       17.396       20.787      366.506      302.634      432.086        0.097        0.055       19.137        8.232        0.185      344.767       21.820      860.232
06/09/2014  08:55:00       38.713        7.047        6.163       39.239       42.770       26.079     1539.734     1829.256      680.125        0.282        0.202       39.349       17.004        0.187      344.722       21.743      860.226
06/09/2014  08:56:00       28.508       52.251        4.762       30.398       23.723       21.562      924.052      562.802      464.928        0.276        0.098       59.522        8.788        0.022      345.111       22.408      860.218
06/09/2014  08:57:00       33.316       39.343       10.626       30.809       32.146       22.495      949.196     1033.355      506.036        0.263        0.124       51.554       18.491        0.129      345.258       22.661      860.212
06/09/2014  08:58:00        7.397       21.520       22.464       20.426       28.158       18.255      417.206      792.867      333.236        0.128        0.077       22.756       18.583        0.667      345.780       23.557      860.208
06/09/2014  08:59:00       -5.412       41.386       17.361       24.091       27.765       24.273      580.400      770.871      589.190        0.199        0.097       41.739       18.195        0.190      345.774       23.546      860.196
06/09/2014  09:00:00        1.049      -26.627       13.179       18.112       19.601       19.297      328.033      384.202      372.389        0.098        0.054       26.648       12.969        0.237      345.229       22.611      860.191
06/09/2014  09:01:00       25.784       16.018       14.145       25.341       16.967       31.666      642.167      287.870     1002.718        0.153        0.097       30.355       14.882        0.240      345.442       22.976      860.176
06/09/2014  09:02:00        2.998       22.630       24.467       17.266       34.526       22.077      298.117     1192.065      487.373        0.155        0.099       22.828       23.094        1.023      346.031       23.988      860.158
06/09/2014  09:03:00       23.243       41.971       13.971       25.106       40.097       26.995      630.328     1607.753      728.706        0.273        0.148       47.977       22.878        0.227      345.775       23.547      860.151
06/09/2014  09:04:00       37.496       17.728       24.326       28.836       29.917       21.647      831.506      895.031      468.606        0.225        0.110       41.476       13.271        0.102      345.326       22.778      860.141
06/09/2014  09:05:00       37.895      -14.773       26.006       33.705       26.412       30.019     1136.016      697.618      901.140        0.253        0.137       40.672       15.486        0.145      344.889       22.027      860.129
06/09/2014  09:06:00       56.676      -14.789       30.705       29.065       22.521       22.171      844.793      507.192      491.573        0.311        0.092       58.574        9.366        0.026      344.659       21.635      860.119
06/09/2014  09:07:00       10.428       23.341       38.549       21.393       28.327       16.530      457.665      802.430      273.250        0.184        0.077       25.565        7.366        0.083      345.375       22.862      860.110
06/09/2014  09:08:00       27.701       19.723       29.199       37.134       30.282       25.144     1378.944      917.024      632.212        0.247        0.146       34.005        9.372        0.076      345.335       22.794      860.099
06/09/2014  09:09:00       16.659       22.463       23.673       24.484       32.674       24.241      599.447     1067.563      587.626        0.180        0.113       27.966       22.578        0.652      346.013       23.955      860.085
06/09/2014  09:10:00       49.003        2.028       16.365       37.493       35.707       30.142     1405.752     1275.023      908.544        0.313        0.179       49.045       16.687        0.116      345.361       22.838      860.074
06/09/2014  09:11:00       41.013       -5.137       13.320       26.245       24.649       33.082      688.814      607.587     1094.404        0.214        0.120       41.333       15.523        0.141      345.001       22.221      860.072
06/09/2014  09:12:00       21.806      -17.028      -11.275       26.132       23.872       28.561      682.893      569.870      815.728        0.148        0.103       27.666       19.080        0.476      344.922       22.086      860.055
06/09/2014  09:13:00       20.844       12.355       13.892       31.233       18.017       23.276      975.490      324.620      541.768        0.131        0.092       24.231       12.162        0.252      345.808       23.604      860.049
06/09/2014  09:14:00       58.415      -24.116       15.382       34.720       33.420       23.012     1205.447     1116.891      529.562        0.354        0.143       63.197       18.339        0.084      345.464       23.015      860.049
06/09/2014  09:15:00        5.749       11.107       38.156       30.234       30.675       33.862      914.095      940.951     1146.613        0.231        0.150       12.507       18.945        2.295      346.207       24.289      860.038
06/09/2014  09:16:00       -2.785        1.491       74.745       23.255       53.835       21.051      540.796     2898.238      443.156        0.474        0.194        3.159       27.155       73.889      346.038       23.999      860.031
06/09/2014  09:17:00       49.510       51.210       59.151       25.910       23.925       22.176      671.317      572.392      491.755        0.515        0.087       71.230       11.160        0.025      345.661       23.350      860.027
06/09/2014  09:18:00       29.904       23.798       26.195       34.117       32.680       30.457     1163.996     1067.992      927.606        0.265        0.158       38.218       16.518        0.187      345.991       23.919      860.025
06/09/2014  09:19:00       10.762        4.367       38.503       19.566       31.204       23.506      382.821      973.706      552.515        0.176        0.095       11.615       13.110        1.274      346.520       24.827      860.012
06/09/2014  09:20:00       50.531        7.146       43.635       47.106       36.430       35.290     2218.993     1327.173     1245.381        0.465        0.240       51.034       35.692        0.489      345.957       23.860      860.013
06/09/2014  09:21:00       12.783        3.427       36.576       30.791       44.688       33.824      948.110     1996.996     1144.079        0.280        0.204       13.234       25.458        3.701      346.185       24.252      860.004
06/09/2014  09:22:00       41.819       26.098       19.680       35.954       30.018       28.815     1292.722      901.060      830.289        0.292        0.151       49.295       12.845        0.068      346.286       24.423      860.000
06/09/2014  09:23:00       13.416       22.025       29.361       19.014       16.822       12.227      361.546      282.995      149.488        0.116        0.040       25.789        8.054        0.098      346.668       25.081      859.992
06/09/2014  09:24:00       -1.274       49.754       11.831       24.187       35.112       28.450      585.018     1232.856      809.416        0.262        0.131       49.770       16.895        0.115      346.623       25.004      859.982
06/09/2014  09:25:00       31.992       29.082       28.612       38.608       29.400       26.971     1490.575      864.343      727.410        0.288        0.154       43.235       21.598        0.250      346.589       24.945      859.978
06/09/2014  09:26:00       39.601       32.156       17.380       39.525       20.758       22.577     1562.196      430.896      509.742        0.270        0.125       51.013       18.528        0.132      346.149       24.191      859.963
06/09/2014  09:27:00        5.442       14.155       20.139       18.180       28.276       23.118      330.521      799.513      534.454        0.115        0.083       15.165       17.583        1.344      346.990       25.637      859.962
06/09/2014  09:28:00       17.404       25.382       18.145       22.900       33.117       20.376      524.424     1096.738      415.189        0.166        0.102       30.775       15.613        0.257      346.927       25.527      859.950
06/09/2014  09:29:00       25.485       26.172       34.358       21.110       28.032       27.307      445.616      785.784      745.684        0.225        0.099       36.530       23.756        0.423      346.716       25.164      859.943
06/09/2014  09:30:00      -33.893        1.788       27.977       21.471       21.067       27.424      461.015      443.817      752.052        0.180        0.083       33.940       21.717        0.409      346.367       24.565      859.945
06/09/2014  09:31:00      -49.251      -21.606       -1.245       38.743       28.911       14.397     1501.056      835.854      207.263        0.272        0.127       53.782        6.868        0.016      345.895       23.754      859.943
06/09/2014  09:32:00      -44.229      -34.864        5.218       31.168       23.903       21.921      971.451      571.351      480.521        0.261        0.101       56.318       13.150        0.055      346.009       23.948      859.940
06/09/2014  09:33:00      -42.974      -26.975        8.055       33.837       30.559       25.583     1144.915      933.838      654.472        0.269        0.137       50.738       22.237        0.192      346.305       24.459      859.939
06/09/2014  09:34:00      -54.851      -62.240        2.246       27.377       22.796       17.651      749.512      519.643      311.571        0.423        0.079       82.960       19.244        0.054      345.948       23.844      859.933
06/09/2014  09:35:00      -48.256      -53.223        3.182       25.103       22.991       15.865      630.143      528.585      251.711        0.329        0.071       71.842       13.689        0.036      345.815       23.615      859.932
06/09/2014  09:36:00      -10.223      -14.655        7.739       29.156       32.129       25.036      850.064     1032.280      626.809        0.144        0.125       17.868       17.803        0.993      346.289       24.430      859.928
06/09/2014  09:37:00      -63.249       35.853       -8.446       23.463       21.162       19.035      550.520      447.844      362.347        0.336        0.068       72.704       12.147        0.028      345.969       23.877      859.926
06/09/2014  09:38:00      -46.501      -44.554       -2.479       35.102       38.459       16.553     1232.119     1479.113      273.987        0.357        0.149       64.400       16.872        0.069      345.938       23.828      859.917
06/09/2014  09:39:00      -24.573      -52.039        2.068       34.808       29.999       23.663     1211.602      899.919      559.928        0.299        0.134       57.549       24.667        0.184      346.057       24.030      859.908
06/09/2014  09:40:00      -20.866      -53.717       -3.263       18.745       28.955       12.733      351.386      838.405      162.117        0.234        0.068       57.627        9.787        0.029      345.795       23.581      859.901
06/09/2014  09:41:00      -80.311      -34.247      -10.704       15.319       17.787       12.927      234.675      316.366      167.104        0.423        0.036       87.308       12.973        0.022      345.803       23.595      859.893
06/09/2014  09:42:00      -59.526       12.997       -1.161       19.931       22.505       14.276      397.261      506.481      203.794        0.241        0.055       60.929       10.536        0.030      345.909       23.776      859.889
06/09/2014  09:43:00        0.485       41.589       17.539       19.928       26.891       26.432      397.143      723.114      698.624        0.193        0.091       41.592       10.571        0.065      347.009       25.670      859.880
06/09/2014  09:44:00       29.578       22.081       14.337       36.883       38.090       34.931     1360.359     1450.877     1220.201        0.280        0.202       36.911       25.228        0.467      346.943       25.555      859.874
06/09/2014  09:45:00       15.248       21.617       35.258       40.158       36.466       22.631     1612.625     1329.798      512.176        0.270        0.173       26.454       22.379        0.716      346.725       25.180      859.869
06/09/2014  09:46:00        4.670       -6.074        7.775       24.739       37.428       24.963      612.005     1400.878      623.132        0.138        0.132        7.662       22.822        8.873      346.629       25.015      859.853
06/09/2014  09:47:00      -27.172      -25.803        5.492       18.133       20.466       19.001      328.823      418.851      361.026        0.127        0.055       37.471        8.399        0.050      346.395       24.612      859.837
06/09/2014  09:48:00      -11.164       -0.105       11.911       18.995       27.343       13.593      360.812      747.629      184.780        0.078        0.065       11.164        7.591        0.462      346.915       25.507      859.823
06/09/2014  09:49:00       73.949       59.732       24.434       68.696       59.486       37.722     4719.159     3538.639     1422.971        0.966        0.484       95.060       33.969        0.128      347.043       25.728      859.813
06/09/2014  09:50:00      184.159       93.830        9.343       51.397       43.879       42.853     2641.604     1925.358     1836.412        2.460        0.320      206.685       27.441        0.018      346.341       24.516      859.801
06/09/2014  09:51:00      142.481       89.918       -7.162       54.452       41.604       41.180     2964.988     1730.885     1695.770        1.741        0.320      168.482       30.827        0.033      346.453       24.711      859.799
06/09/2014  09:52:00       78.989       52.141       -0.909       55.300       31.559       29.359     3058.145      995.988      861.924        0.694        0.246       94.647       19.956        0.044      346.728       25.185      859.798
06/09/2014  09:53:00      113.979       40.557       -1.059       64.417       43.924       35.895     4149.500     1929.291     1288.481        1.100        0.368      120.980       29.176        0.058      346.457       24.719      859.791
06/09/2014  09:54:00       81.555       65.873       14.779       63.091       46.452       35.562     3980.413     2157.784     1264.640        0.930        0.370      104.836       25.567        0.059      346.772       25.261      859.778
06/09/2014  09:55:00       65.433       44.546       16.585       49.623       35.611       33.832     2462.415     1268.169     1144.623        0.571        0.244       79.157       26.508        0.112      347.264       26.110      859.763
06/09/2014  09:56:00        2.131       57.117        6.812       39.027       42.791       31.375     1523.115     1831.070      984.364        0.383        0.217       57.157       19.464        0.116      347.005       25.662      859.754
06/09/2014  09:57:00       51.386       70.280       29.917       43.827       39.138       42.573     1920.829     1531.802     1812.473        0.687        0.263       87.062       23.988        0.076      346.932       25.537      859.750
06/09/2014  09:58:00        4.378       24.286       18.083       36.462       35.869       18.475     1329.456     1286.602      341.343        0.195        0.148       24.678       12.360        0.251      347.099       25.824      859.749
06/09/2014  09:59:00       56.480      105.009        2.201       43.795       53.500       47.693     1918.041     2862.219     2274.583        1.064        0.353      119.234       33.169        0.077      346.889       25.462      859.738
06/09/2014  10:00:00       38.767       21.777       12.479       37.195       34.330       44.224     1383.504     1178.576     1955.768        0.332        0.226       44.465       28.444        0.409      347.162       25.932      859.737
06/09/2014  10:01:00       41.410       56.875       67.080       66.158       58.822       46.592     4376.892     3459.970     2170.818        0.973        0.500       70.353       38.366        0.297      347.022       25.690      859.725
06/09/2014  10:02:00       17.589       80.573       89.960       47.073       55.817       53.684     2215.847     3115.546     2881.973        1.155        0.411       82.471       45.049        0.298      346.840       25.378      859.715
06/09/2014  10:03:00       62.802       70.022       76.210       70.385       45.443       39.547     4954.036     2065.023     1563.956        1.162        0.429       94.059       32.146        0.117      346.763       25.245      859.713
06/09/2014  10:04:00      105.837       92.798       62.238       63.596       57.413       67.813     4044.485     3296.209     4598.583        1.781        0.597      140.759       54.245        0.149      346.605       24.971      859.714
06/09/2014  10:05:00       94.880       68.932        6.528       59.324       41.784       30.121     3519.279     1745.881      907.298        0.998        0.309      117.276       18.105        0.024      346.581       24.931      859.716
06/09/2014  10:06:00       70.426       51.197       14.996       35.697       31.701       25.392     1274.282     1004.930      644.766        0.536        0.146       87.069       25.806        0.088      346.553       24.883      859.713
06/09/2014  10:07:00        7.342        0.143       22.718       33.608       23.279       22.056     1129.520      541.909      486.468        0.136        0.108        7.343       13.225        3.244      347.412       26.363      859.713
06/09/2014  10:08:00       36.810       11.781       28.612       61.016       50.778       36.267     3722.934     2578.384     1315.324        0.496        0.381       38.649       27.702        0.514      347.052       25.744      859.716
06/09/2014  10:09:00       -1.660        8.813       41.194       28.929       19.487       12.313      836.912      379.760      151.606        0.157        0.068        8.968        8.921        0.990      347.714       26.883      859.702
06/09/2014  10:10:00      -23.085       27.138       -5.472       16.312       17.852       20.376      266.072      318.698      415.161        0.115        0.050       35.629        9.553        0.072      347.175       25.954      859.699
06/09/2014  10:11:00       -3.250       15.505        8.760       25.944       15.610       30.755      673.099      243.681      945.849        0.109        0.093       15.842       26.387        2.774      347.418       26.374      859.681
06/09/2014  10:12:00       29.227       14.806       36.533       25.347       22.049       21.041      642.450      486.163      442.721        0.199        0.079       32.763       13.223        0.163      347.381       26.309      859.664
06/09/2014  10:13:00       50.043       37.557        4.414       32.630       33.305       29.201     1064.691     1109.229      852.702        0.348        0.151       62.568       17.891        0.082      347.399       26.339      859.655
06/09/2014  10:14:00       98.325       73.525       28.385       51.670       37.754       31.644     2669.820     1425.363     1001.320        1.049        0.255      122.775       28.294        0.053      347.200       25.999      859.642
06/09/2014  10:15:00       98.113       66.574       -0.395       60.609       32.522       23.872     3673.466     1057.711      569.892        0.968        0.265      118.567       10.217        0.007      346.808       25.324      859.645
06/09/2014  10:16:00       64.796       38.821       24.106       54.518       32.482       26.295     2972.159     1055.052      691.429        0.550        0.236       75.535       15.559        0.042      347.134       25.884      859.638
06/09/2014  10:17:00      -20.792        0.097       17.519       32.017       30.534       25.330     1025.079      932.299      641.631        0.167        0.130       20.792       22.832        1.206      347.308       26.184      859.630
06/09/2014  10:18:00       -1.234       26.519       18.886       35.405       34.082       27.005     1253.485     1161.565      729.281        0.210        0.157       26.547       10.358        0.152      347.702       26.865      859.631
06/09/2014  10:19:00       22.634       29.734       32.389       44.539       30.834       33.406     1983.742      950.745     1115.934        0.325        0.203       37.368       28.223        0.570      347.670       26.808      859.630
06/09/2014  10:20:00       60.021       49.350       39.421       73.554       47.929       45.429     5410.163     2297.149     2063.792        0.868        0.489       77.704       36.169        0.217      347.639       26.755      859.644
06/09/2014  10:21:00       72.373       63.751       36.566       48.576       38.745       46.297     2359.662     1501.143     2143.443        0.832        0.300       96.447       28.757        0.089      347.170       25.946      859.642
06/09/2014  10:22:00       82.929       51.851       40.565       51.435       43.945       41.992     2645.545     1931.135     1763.325        0.877        0.317       97.805       27.526        0.079      347.608       26.701      859.634
06/09/2014  10:23:00       57.295       55.146       31.168       51.841       39.712       42.652     2687.462     1577.029     1819.231        0.669        0.304       79.522       31.825        0.160      347.688       26.840      859.625
06/09/2014  10:24:00       -3.079        2.220       45.986       33.562       55.677       32.631     1126.385     3099.915     1064.767        0.371        0.265        3.796       17.419       21.057      348.013       27.401      859.605
06/09/2014  10:25:00      109.411       75.259        2.008       94.352       57.872       37.059     8902.214     3349.219     1373.368        1.563        0.681      132.795       32.292        0.059      347.356       26.264      859.593
06/09/2014  10:26:00      119.358       75.325       -5.770       59.529       36.133       31.225     3543.665     1305.558      975.020        1.289        0.291      141.139        6.789        0.002      347.194       25.986      859.589
06/09/2014  10:27:00       27.345       19.752       49.934       42.099       38.196       36.188     1772.286     1458.962     1309.560        0.409        0.227       33.733       26.542        0.619      347.653       26.778      859.582
06/09/2014  10:28:00       36.916      -12.766       15.453       24.816       30.581       28.648      615.810      935.185      820.683        0.207        0.119       39.061       24.536        0.395      347.645       26.765      859.566
06/09/2014  10:29:00      -19.107        3.572       39.876       21.379       15.590       14.957      457.049      243.063      223.707        0.145        0.046       19.438        5.648        0.084      348.357       27.995      859.550
06/09/2014  10:30:00       -8.405      -31.289       26.876       23.645       38.991       27.796      559.104     1520.267      772.625        0.231        0.143       32.398       25.294        0.610      348.057       27.477      859.536
06/09/2014  10:31:00        6.850       13.093       -7.541       38.268       37.911       22.025     1464.402     1437.268      485.117        0.183        0.169       14.776       18.935        1.642      347.747       26.942      859.526
06/09/2014  10:32:00       45.377       51.817        5.056       31.535       33.238       34.922      994.476     1104.755     1219.530        0.404        0.166       68.877       26.313        0.146      348.165       27.663      859.514
06/09/2014  10:33:00       62.331       71.496       52.970       48.014       46.930       32.387     2305.350     2202.453     1048.945        0.868        0.278       94.851       13.846        0.021      348.226       27.767      859.506
06/09/2014  10:34:00       32.849       51.432       59.802       51.131       68.894       58.376     2614.328     4746.350     3407.739        0.903        0.538       61.027       56.062        0.844      348.073       27.503      859.496
06/09/2014  10:35:00       50.614       34.450       58.023       50.739       97.066       50.152     2574.480     9421.886     2515.194        1.081        0.726       61.226       59.412        0.942      347.857       27.129      859.493
06/09/2014  10:36:00       33.749        7.995       39.748       44.016       55.633       50.779     1937.399     3095.058     2578.553        0.520        0.381       34.683       37.811        1.189      348.175       27.680      859.494
06/09/2014  10:37:00       32.931       27.838       55.705       34.989       36.290       28.698     1224.220     1316.954      823.574        0.416        0.168       43.121       15.790        0.134      348.137       27.614      859.482
06/09/2014  10:38:00       19.440      -11.635       46.783       37.336       85.469       46.302     1393.987     7304.921     2143.919        0.677        0.542       22.656       48.852        4.650      348.280       27.862      859.460
06/09/2014  10:39:00       36.263       38.486       54.954       42.651       43.605       30.639     1819.069     1901.401      938.738        0.524        0.233       52.879       25.697        0.236      347.960       27.309      859.440
06/09/2014  10:40:00       97.335      110.636       31.801       72.213       46.343       58.325     5214.663     2147.628     3401.856        1.674        0.538      147.358       42.414        0.083      347.826       27.076      859.417
06/09/2014  10:41:00      124.399       96.774       35.373       76.118       49.381       46.576     5794.004     2438.438     2169.309        1.824        0.520      157.608       50.530        0.103      348.006       27.386      859.405
06/09/2014  10:42:00        4.709       96.892      125.388       42.782       61.891       35.773     1830.292     3830.484     1279.688        1.604        0.347       97.006       40.171        0.171      348.128       27.598      859.398
06/09/2014  10:43:00       29.926       52.692       84.402       55.786       67.382       44.093     3112.064     4540.321     1944.190        1.019        0.480       60.597       38.430        0.402      348.103       27.556      859.391
06/09/2014  10:44:00       69.398       28.288       46.455       63.200       59.044       55.276     3994.226     3486.216     3055.469        0.915        0.527       74.942       53.332        0.506      347.742       26.931      859.400
06/09/2014  10:45:00       23.557       48.108       22.611       30.558       33.981       32.740      933.762     1154.720     1071.926        0.327        0.158       53.566       22.593        0.178      348.120       27.585      859.385
06/09/2014  10:46:00        1.436       73.306       -8.210       25.844       38.972       27.598      667.923     1518.818      761.653        0.420        0.147       73.320       27.157        0.137      347.960       27.309      859.367
06/09/2014  10:47:00       15.992       12.962       22.545       23.161       28.644       20.362      536.421      820.491      414.612        0.135        0.089       20.586       16.224        0.621      348.517       28.272      859.348
06/09/2014  10:48:00       20.599       24.119       -4.749       23.106       21.458       28.019      533.908      460.438      785.070        0.140        0.089       31.719       20.711        0.426      348.009       27.393      859.323
06/09/2014  10:49:00      -10.844       11.108       29.834       30.302       14.907       16.527      918.189      222.205      273.152        0.127        0.071       15.523       16.595        1.143      348.546       28.321      859.304
06/09/2014  10:50:00       45.402       73.778        2.794       45.806       54.272       34.914     2098.161     2945.471     1219.018        0.689        0.313       86.629       25.280        0.085      348.142       27.623      859.288
06/09/2014  10:51:00       36.694       63.980        5.477       50.085       43.318       28.512     2508.500     1876.410      812.924        0.533        0.260       73.756       19.118        0.067      348.346       27.974      859.277
06/09/2014  10:52:00       37.488       70.557       14.402       57.322       51.794       39.624     3285.836     2682.623     1570.022        0.706        0.377       79.897       25.522        0.102      348.344       27.974      859.261
06/09/2014  10:53:00       46.038       29.588       21.915       48.567       66.499       31.629     2358.797     4422.083     1000.393        0.563        0.389       54.726       21.701        0.157      348.485       28.216      859.257
06/09/2014  10:54:00       45.356      -71.155       10.281       79.624       97.316       57.240     6339.990     9470.434     3276.412        1.315        0.954       84.381       60.606        0.516      348.259       27.825      859.238
06/09/2014  10:55:00       75.580     -177.830       -8.702       71.060       96.945       51.449     5049.556     9398.304     2646.981        2.725        0.855      193.224       39.182        0.041      347.882       27.169      859.234
06/09/2014  10:56:00       38.362      -41.981       35.704       54.328      100.746       51.498     2951.512    10149.780     2652.070        1.013        0.788       56.869       64.066        1.269      348.399       28.068      859.245
06/09/2014  10:57:00       37.138       45.290       96.369       74.313       86.659       60.792     5522.467     7509.854     3695.717        1.472        0.836       58.570       55.505        0.898      348.462       28.176      859.241
06/09/2014  10:58:00       67.884       40.723       88.254       48.884       70.319       48.159     2389.615     4944.769     2319.316        1.185        0.483       79.162       30.568        0.149      348.364       28.006      859.277
06/09/2014  10:59:00       74.030       72.266       19.026       34.283       29.116       30.908     1175.331      847.749      955.318        0.702        0.149      103.454        8.514        0.007      347.657       26.785      859.269
06/09/2014  11:00:00       63.754       23.199       42.431       51.433       56.356       45.936     2645.398     3175.993     2110.077        0.717        0.397       67.843       41.489        0.374      348.295       27.886      859.271
06/09/2014  11:01:00      107.763      -17.467       59.637       62.496      107.927       50.022     3905.778    11648.141     2502.224        1.676        0.903      109.169       61.677        0.319      348.114       27.575      859.257
06/09/2014  11:02:00       44.262       50.664       51.524       36.744       30.429       37.113     1350.158      925.910     1377.341        0.542        0.183       67.275       21.839        0.105      348.221       27.759      859.254
06/09/2014  11:03:00       42.700       55.590       59.716       47.801       61.176       48.274     2284.973     3742.463     2330.412        0.842        0.418       70.097       40.490        0.334      348.436       28.132      859.247
06/09/2014  11:04:00       47.833       77.516       80.698       43.220       39.648       39.523     1867.952     1571.964     1562.076        0.990        0.250       91.086       29.771        0.107      348.118       27.582      859.237
06/09/2014  11:05:00       67.301       90.000       39.843       46.796       39.724       41.030     2189.892     1577.996     1683.459        0.983        0.273      112.380       29.957        0.071      347.917       27.235      859.223
06/09/2014  11:06:00       85.422      -27.859       19.262       51.901       56.042       39.105     2693.702     3140.730     1529.226        0.790        0.368       89.850       20.551        0.052      348.314       27.920      859.199
06/09/2014  11:07:00       42.525        9.085       15.035       48.573       32.050       30.388     2359.383     1027.227      923.453        0.321        0.216       43.484       26.833        0.381      348.641       28.487      859.183
06/09/2014  11:08:00       83.065       99.811       81.533       87.973       53.819       58.189     7739.265     2896.465     3385.935        1.876        0.701      129.854       50.504        0.151      348.285       27.869      859.155
06/09/2014  11:09:00       88.725       40.780        7.404       64.534       52.487       37.393     4164.580     2754.902     1398.273        0.895        0.416       97.649       12.104        0.015      348.253       27.814      859.146
06/09/2014  11:10:00       94.005       46.823        9.702       78.991       57.996       43.105     6239.614     3363.584     1858.073        1.129        0.573      105.021       24.528        0.055      348.636       28.475      859.134
06/09/2014  11:11:00       20.070       65.192       91.537       57.397       51.888       54.394     3294.370     2692.369     2958.680        1.099        0.447       68.212       46.346        0.462      348.831       28.815      859.130
06/09/2014  11:12:00        2.900       34.908       79.041       35.355       46.647       34.691     1250.002     2175.964     1203.488        0.605        0.231       35.028       27.352        0.610      348.570       28.363      859.120
06/09/2014  11:13:00       31.856       37.163       26.849       42.895       56.263       45.071     1839.952     3165.558     2031.412        0.508        0.352       48.948       36.828        0.566      348.210       27.741      859.115
06/09/2014  11:14:00       12.007        4.983       31.317       32.880       32.487       22.940     1081.073     1055.423      526.266        0.191        0.133       13.000       20.052        2.379      349.190       29.438      859.113
06/09/2014  11:15:00       45.067       30.986       28.731       36.846       30.169       36.660     1357.654      910.166     1343.924        0.371        0.181       54.692       26.308        0.231      348.943       29.011      859.114
06/09/2014  11:16:00       54.103       62.414        8.526       46.509       35.625       36.335     2163.084     1269.117     1320.198        0.582        0.238       82.600       27.861        0.114      348.599       28.413      859.096
06/09/2014  11:17:00       -1.246       32.237       25.402       33.580       43.497       29.751     1127.646     1892.005      885.105        0.279        0.195       32.261       25.639        0.632      349.306       29.637      859.089
06/09/2014  11:18:00        2.168       20.008       30.210       38.448       26.405       22.116     1478.249      697.208      489.123        0.199        0.133       20.125       16.733        0.691      349.122       29.318      859.083
06/09/2014  11:19:00       40.892       42.002       45.622       63.860       49.593       41.191     4078.073     2459.431     1696.673        0.687        0.412       58.620       30.874        0.277      348.808       28.775      859.054
06/09/2014  11:20:00       95.438       78.237       82.526       64.295       64.686       56.966     4133.817     4184.325     3245.147        1.680        0.578      123.408       44.137        0.128      348.757       28.685      859.034
06/09/2014  11:21:00       47.244       61.547      101.990       92.036       69.057       48.716     8470.567     4768.810     2373.208        1.601        0.781       77.589       52.975        0.466      349.048       29.190      859.018
06/09/2014  11:22:00       15.540       98.027      132.249       65.635       81.609       60.584     4307.970     6659.963     3670.464        2.099        0.732       99.251       56.038        0.319      348.736       28.650      859.008
06/09/2014  11:23:00       49.246      118.434      125.932       71.569       82.193       61.868     5122.181     6755.745     3827.644        2.401        0.785      128.265       62.928        0.241      348.430       28.117      858.998
06/09/2014  11:24:00       68.930      -74.854        0.892       86.597      112.128       66.971     7499.062    12572.662     4485.117        1.745        1.228      101.757       62.189        0.374      348.738       28.651      858.981
06/09/2014  11:25:00      109.465      -95.674      -19.572       59.539       82.714       40.480     3544.928     6841.586     1638.649        1.677        0.601      145.383       53.764        0.137      348.259       27.823      858.986
06/09/2014  11:26:00       17.418       44.988       38.941       17.966       29.587       20.059      322.776      875.396      402.376        0.272        0.080       48.242       12.177        0.064      348.656       28.513      858.964
06/09/2014  11:27:00       38.313      -32.319       64.412       68.604      110.011       72.480     4706.562    12102.452     5253.381        1.436        1.103       50.124       79.053        2.487      348.888       28.914      858.958
06/09/2014  11:28:00       77.982       62.365       56.699       67.854       70.178       49.416     4604.114     4924.916     2441.929        1.258        0.599       99.852       31.628        0.100      348.419       28.102      858.965
06/09/2014  11:29:00       71.869       41.930       74.476       68.656       69.293       58.101     4713.632     4801.584     3375.741        1.268        0.645       83.207       49.882        0.359      348.864       28.872      858.977
06/09/2014  11:30:00       43.831      -29.903       54.566       51.147       63.136       37.701     2615.988     3986.185     1421.345        0.691        0.401       53.060       41.120        0.601      349.025       29.152      858.977
06/09/2014  11:31:00       91.271       78.444       28.823       79.656       59.425       45.871     6345.077     3531.333     2104.145        1.365        0.599      120.349       36.161        0.090      348.607       28.425      858.970
06/09/2014  11:32:00       68.266       63.667       23.606       46.826       35.651       38.538     2192.670     1271.018     1485.204        0.711        0.247       93.348       12.872        0.019      348.835       28.821      858.965
06/09/2014  11:33:00       -1.441       24.340       31.678       26.595       25.788       30.961      707.278      665.044      958.560        0.196        0.117       24.383       17.552        0.518      349.103       29.285      858.949
06/09/2014  11:34:00       -2.303       28.066       10.132       21.349       41.236       31.763      455.776     1700.428     1008.892        0.203        0.158       28.161       17.970        0.407      349.226       29.499      858.938
06/09/2014  11:35:00       15.161       24.055       16.768       36.021       34.453       28.062     1297.543     1186.981      787.486        0.218        0.164       28.435       23.426        0.679      349.468       29.918      858.929
06/09/2014  11:36:00       45.773       43.656       22.264       42.197       53.660       35.417     1780.569     2879.409     1254.337        0.520        0.296       63.254       14.992        0.056      349.386       29.776      858.909
06/09/2014  11:37:00       80.849       30.395       44.558       73.140       66.001       38.912     5349.507     4356.080     1514.144        1.033        0.561       86.374       40.187        0.216      348.823       28.801      858.904
06/09/2014  11:38:00      107.280       84.094       42.851       60.271       57.155       51.731     3632.586     3266.723     2676.117        1.499        0.479      136.311       36.342        0.071      348.800       28.759      858.885
06/09/2014  11:39:00       54.276       65.566       39.917       43.326       40.975       41.564     1877.112     1678.986     1727.602        0.706        0.264       85.116       35.464        0.174      348.665       28.526      858.887
06/09/2014  11:40:00       47.807       31.004       15.199       27.003       30.880       29.892      729.170      953.546      893.527        0.303        0.129       56.981       19.171        0.113      348.755       28.683      858.890
06/09/2014  11:41:00       42.485       60.105        8.200       39.051       39.212       24.461     1525.009     1537.599      598.349        0.457        0.183       73.604       21.050        0.082      348.693       28.577      858.886
06/09/2014  11:42:00       16.673       32.467       56.761       33.550       42.126       18.962     1125.608     1774.592      359.574        0.391        0.163       36.498       17.713        0.236      349.120       29.315      858.881
06/09/2014  11:43:00       14.221      -29.208       28.965       28.118       24.741       21.323      790.619      612.101      454.675        0.188        0.093       32.486        5.788        0.032      349.069       29.227      858.874
06/09/2014  11:44:00      -13.913       24.859       17.252       26.557       31.655       30.092      705.249     1002.045      905.509        0.186        0.131       28.488       15.559        0.298      349.383       29.772      858.851
06/09/2014  11:45:00      -80.622       42.176       -8.334       56.623       33.911       29.748     3206.154     1149.953      884.946        0.679        0.262       90.987       24.161        0.071      348.846       28.841      858.843
06/09/2014  11:46:00      -39.531       37.261       24.016       50.730       31.781       24.274     2573.505     1010.052      589.244        0.385        0.209       54.324       28.272        0.271      349.488       29.954      858.828
06/09/2014  11:47:00        2.144        9.552       23.269       23.888       24.045       18.788      570.619      578.161      352.982        0.107        0.075        9.790       12.359        1.594      349.668       30.266      858.803
06/09/2014  11:48:00        5.264       16.075       36.357       19.992       19.662       18.534      399.664      386.593      343.513        0.137        0.056       16.915        8.971        0.281      349.494       29.964      858.791
06/09/2014  11:49:00       12.196       74.006       -5.889       37.856       55.382       27.283     1433.086     3067.148      744.348        0.545        0.262       75.004       22.587        0.091      349.133       29.338      858.746
06/09/2014  11:50:00       33.208       75.331        8.608       51.245       72.912       41.855     2626.096     5316.169     1751.847        0.827        0.485       82.326       41.503        0.254      349.217       29.482      858.719
06/09/2014  11:51:00       64.459       12.200        2.399       47.755       49.824       34.347     2280.496     2482.478     1179.709        0.512        0.297       65.603       18.247        0.077      349.033       29.165      858.705
06/09/2014  11:52:00       62.634       46.052       13.495       46.735       49.937       32.520     2184.134     2493.678     1057.522        0.598        0.287       77.742       27.006        0.121      349.211       29.474      858.686
06/09/2014  11:53:00       16.572       -8.242      -16.547       41.634       49.445       16.458     1733.358     2444.799      270.877        0.253        0.222       18.508       23.686        1.638      348.556       28.338      858.680
06/09/2014  11:54:00      -16.675      -68.604        2.212       30.010       35.018       23.572      900.614     1226.246      555.647        0.384        0.134       70.602       18.844        0.071      348.796       28.754      858.659
06/09/2014  11:55:00      -70.951      -45.609       -9.514       43.664       58.623       21.125     1906.506     3436.669      446.269        0.650        0.289       84.346       21.169        0.063      348.671       28.537      858.654
06/09/2014  11:56:00     -104.064      -61.690        4.381       55.152       54.127       31.983     3041.774     2929.711     1022.927        1.082        0.350      120.976       31.599        0.068      349.122       29.319      858.634
06/09/2014  11:57:00      -44.527      -42.070       24.516       67.758       43.687       31.622     4591.170     1908.556      999.965        0.593        0.375       61.258       20.766        0.115      349.414       29.824      858.622
06/09/2014  11:58:00      -56.409      -58.825        6.130       55.524       44.962       29.203     3082.920     2021.555      852.837        0.632        0.298       81.501       20.248        0.062      349.215       29.480      858.614
06/09/2014  11:59:00     -111.726     -122.847       -5.006       65.978       60.501       34.146     4353.060     3660.370     1165.937        1.839        0.459      166.055       31.562        0.036      348.807       28.772      858.595
06/09/2014  12:00:00     -124.476     -121.246      -10.627       40.404       38.326       19.447     1632.453     1468.910      378.190        1.689        0.174      173.767       11.913        0.005      348.662       28.520      858.579
06/09/2014  12:01:00      -78.382     -101.133       -6.578       70.901       53.239       27.650     5026.981     2834.427      764.541        1.252        0.431      127.951       29.610        0.054      348.808       28.775      858.560
06/09/2014  12:02:00     -141.959     -101.945        5.393       98.038       91.359       43.481     9611.452     8346.490     1890.556        2.521        0.992      174.772       46.020        0.069      348.990       29.086      858.545
06/09/2014  12:03:00      -85.462      -94.779        7.857       66.069       61.878       41.539     4365.176     3828.830     1725.479        1.313        0.496      127.620       26.771        0.044      348.966       29.048      858.536
06/09/2014  12:04:00      -68.780     -122.836       -6.129       57.184       57.974       29.849     3269.973     3361.001      890.975        1.369        0.376      140.781       23.265        0.027      348.929       28.983      858.524
06/09/2014  12:05:00     -172.235     -102.835       -7.740       81.401       53.427       34.542     6626.200     2854.474     1193.173        2.548        0.534      200.599       32.979        0.027      348.904       28.939      858.507
06/09/2014  12:06:00      -93.869      -36.792       13.716       92.482       59.658       38.093     8552.873     3559.098     1451.070        1.196        0.678      100.822       39.704        0.155      349.352       29.716      858.487
06/09/2014  12:07:00     -109.097      -61.536        3.183       60.420       52.510       28.203     3650.532     2757.318      795.384        1.145        0.360      125.255       34.077        0.074      349.022       29.146      858.478
06/09/2014  12:08:00      -15.201      -84.232      -14.933       66.029       39.507       21.846     4359.849     1560.835      477.266        0.697        0.320       85.593       10.395        0.015      349.048       29.189      858.484
06/09/2014  12:09:00      -36.830      -84.116       15.971       74.557       77.664       49.465     5558.692     6031.641     2446.803        1.136        0.702       91.826       48.573        0.280      349.597       30.141      858.476
06/09/2014  12:10:00       89.273     -136.931       -8.102       57.928       82.694       45.011     3355.699     6838.319     2025.951        1.950        0.611      163.462       44.567        0.074      349.165       29.391      858.494
06/09/2014  12:11:00      -21.667       25.049        2.539       47.075       68.578       32.484     2216.089     4702.912     1055.227        0.454        0.399       33.119       28.887        0.761      349.478       29.937      858.491
06/09/2014  12:12:00      -82.342      161.250      -12.954       29.425       43.279       28.451      865.816     1873.095      809.432        1.825        0.177      181.058       21.085        0.014      348.917       28.963      858.447
06/09/2014  12:13:00      -20.467      158.004       -8.909       47.914       71.868       37.019     2295.795     5165.009     1370.386        1.715        0.442      159.324       33.307        0.044      349.228       29.501      858.393
06/09/2014  12:14:00       25.761      162.212      -11.304       43.022       79.000       34.606     1850.866     6241.026     1197.580        1.819        0.464      164.245       36.939        0.051      349.378       29.761      858.372
06/09/2014  12:15:00      -13.557       40.649      -13.367       45.495       42.309       33.136     2069.801     1790.031     1097.999        0.349        0.248       42.850       22.248        0.270      349.454       29.895      858.346
06/09/2014  12:16:00      -32.854      -13.421       -8.936       29.308       25.022       12.135      858.954      626.099      147.255        0.149        0.082       35.489        6.978        0.039      349.548       30.058      858.334
06/09/2014  12:17:00      -57.293      -82.171        7.352       55.784       61.595       35.610     3111.832     3793.906     1268.079        0.913        0.409      100.172       25.698        0.066      349.303       29.631      858.300
06/09/2014  12:18:00      -10.405       15.798       30.480       32.983       35.911       22.879     1087.885     1289.616      523.451        0.209        0.145       18.917       24.223        1.640      350.174       31.145      858.283
06/09/2014  12:19:00       53.859       64.319       37.977       31.293       34.302       27.990      979.228     1176.609      783.448        0.571        0.147       83.892       19.368        0.053      349.567       30.091      858.257
06/09/2014  12:20:00       32.157       26.868       19.790       35.190       28.768       34.600     1238.321      827.593     1197.141        0.270        0.163       41.904       23.418        0.312      350.025       30.885      858.247
06/09/2014  12:21:00       30.660       -7.538       52.119       63.234       74.972       39.520     3998.568     5620.733     1561.846        0.745        0.559       31.573       32.919        1.087      350.252       31.280      858.238
06/09/2014  12:22:00      -41.142      -11.571       14.388       39.825       48.178       24.421     1586.068     2321.074      596.384        0.327        0.225       42.738       22.532        0.278      350.153       31.107      858.241
06/09/2014  12:23:00       10.698       18.879       27.906       20.107       23.323       27.817      404.299      543.945      773.764        0.149        0.086       21.699       15.329        0.499      350.595       31.876      858.254
06/09/2014  12:24:00       15.406      103.670       -7.250       24.581       63.261       32.415      604.239     4001.929     1050.749        0.835        0.283      104.809       38.807        0.137      349.809       30.509      858.253
06/09/2014  12:25:00       14.977       60.473        3.256       41.527       48.626       38.882     1724.499     2364.490     1511.793        0.475        0.280       62.300       33.583        0.291      349.937       30.731      858.244
06/09/2014  12:26:00        4.321      -56.053       13.256       56.286      101.307       37.594     3168.100    10263.034     1413.285        0.909        0.742       56.219       44.735        0.633      349.773       30.448      858.239
06/09/2014  12:27:00      -65.743      -77.094       -3.943       37.330       42.612       27.475     1393.552     1815.783      754.850        0.712        0.198      101.320       12.872        0.016      349.418       29.832      858.213
06/09/2014  12:28:00      -25.578      -52.043       -6.762       44.146       70.514       20.095     1948.873     4972.271      403.792        0.537        0.366       57.989       18.567        0.103      349.366       29.742      858.185
06/09/2014  12:29:00       22.961       21.423       46.712       34.460       25.929       20.607     1187.526      672.324      424.646        0.273        0.114       31.403       13.866        0.195      350.476       31.669      858.141
06/09/2014  12:30:00       23.630       32.638       19.886       40.705       41.402       43.295     1656.932     1714.147     1874.483        0.363        0.262       40.294       31.169        0.598      350.325       31.407      858.118
06/09/2014  12:31:00       43.951       20.025       29.959       62.841       48.639       36.669     3949.045     2365.758     1344.589        0.544        0.383       48.298       35.024        0.526      350.394       31.529      858.080
06/09/2014  12:32:00       71.274       79.577        7.672       50.426       48.230       38.271     2542.813     2326.164     1464.646        0.890        0.317      106.829       29.168        0.075      349.830       30.546      858.056
06/09/2014  12:33:00       73.314       93.249       78.269       63.253       65.511       53.016     4000.934     4291.707     2810.644        1.565        0.555      118.619       43.505        0.135      349.765       30.433      858.051
06/09/2014  12:34:00       10.508      -61.908       18.079       61.967      107.968       56.498     3839.852    11657.096     3191.970        1.148        0.934       62.794       70.122        1.247      349.928       30.717      858.043
06/09/2014  12:35:00       61.200      -39.330       34.356       65.578       86.316       62.149     4300.445     7450.391     3862.456        1.104        0.781       72.748       73.133        1.011      350.176       31.147      858.051
06/09/2014  12:36:00       74.787      -60.228       15.309       44.753       67.084       36.471     2002.802     4500.280     1330.136        0.864        0.392       96.023       30.320        0.100      349.614       30.172      858.046
06/09/2014  12:37:00      -16.845      -40.136        7.670       46.605       43.181       29.003     2172.072     1864.608      841.167        0.341        0.244       43.527       26.081        0.359      349.862       30.603      858.032
06/09/2014  12:38:00       -3.027      -91.051        3.740       54.659       71.016       46.398     2987.647     5043.314     2152.779        0.925        0.509       91.102       40.184        0.195      350.137       31.079      858.021
06/09/2014  12:39:00       78.733     -112.083      -15.387       71.213       61.293       53.078     5071.249     3756.809     2817.229        1.532        0.582      136.973       47.437        0.120      350.146       31.094      858.015
06/09/2014  12:40:00      -18.936      -46.647       46.200      103.868       88.975       64.033    10788.462     7916.539     4100.251        1.373        1.140       50.344       62.279        1.530      350.348       31.445      857.996
06/09/2014  12:41:00     -121.346      -72.662        4.650      135.618       95.294       51.738    18392.114     9080.914     2676.823        2.508        1.507      141.437       44.587        0.099      349.740       30.388      857.984
06/09/2014  12:42:00      -68.454       78.855       -9.200       33.948       52.098       35.059     1152.465     2714.206     1229.111        0.804        0.255      104.422       24.444        0.055      349.657       30.245      857.952
06/09/2014  12:43:00      -66.914       98.093       -3.802       48.609       73.918       41.833     2362.842     5463.832     1750.034        1.184        0.479      118.742       38.642        0.106      349.850       30.581      857.926
06/09/2014  12:44:00       43.286      -58.065        1.164       72.982       90.810       48.456     5326.337     8246.528     2347.998        1.058        0.796       72.424       52.273        0.521      350.035       30.901      857.935
06/09/2014  12:45:00      134.549     -220.621       -2.987      118.880      138.206       81.563    14132.509    19101.026     6652.468        5.333        1.994      258.413       84.562        0.107      349.749       30.403      857.892
06/09/2014  12:46:00       26.117       79.890      136.705       84.586      106.975       80.116     7154.710    11443.555     6418.637        2.538        1.251       84.050       87.293        1.079      350.110       31.031      857.867
06/09/2014  12:47:00       42.635      -24.495       16.988       30.878       49.478       44.499      953.468     2448.086     1980.124        0.404        0.269       49.170       37.802        0.591      349.720       30.356      857.836
06/09/2014  12:48:00       37.289       99.509       62.220       64.542      104.770       80.772     4165.732    10976.693     6524.097        1.841        1.083      106.266       51.230        0.232      349.683       30.290      857.773
06/09/2014  12:49:00      236.189       18.722       80.897      134.596      158.126       85.537    18116.109    25003.989     7316.511        5.655        2.522      236.930       88.210        0.139      349.824       30.532      857.753
06/09/2014  12:50:00       44.635      105.031      121.313       82.097       71.266       41.349     6739.895     5078.896     1709.725        2.063        0.676      114.122       28.967        0.064      350.040       30.908      857.747
06/09/2014  12:51:00      173.085     -215.676      -26.776      108.745      190.535       85.236    11825.517    36303.648     7265.173        6.628        2.770      276.540      115.164        0.173      349.844       30.568      857.746
06/09/2014  12:52:00      169.625     -204.093      -23.598      107.440      131.296       56.008    11543.336    17238.731     3136.895        5.145        1.596      265.380       76.816        0.084      349.729       30.369      857.765
06/09/2014  12:53:00       85.523      -82.752       23.651       75.426      117.485       70.880     5689.116    13802.685     5023.961        1.961        1.226      119.005       78.804        0.438      350.008       30.853      857.778
06/09/2014  12:54:00       39.847       24.860       54.704       50.909       63.827       45.460     2591.719     4073.885     2066.632        0.696        0.437       46.966       37.137        0.625      350.232       31.245      857.765
06/09/2014  12:55:00      -17.005       -0.057       30.863       44.555       21.958       24.093     1985.142      482.166      580.463        0.214        0.152       17.005        4.736        0.078      350.206       31.198      857.728
06/09/2014  12:56:00       73.485       59.591       45.260       61.446       58.360       47.554     3775.650     3405.834     2261.367        1.022        0.472       94.610       34.537        0.133      350.028       30.891      857.729
06/09/2014  12:57:00       30.638        0.495       33.858       51.958       65.698       32.209     2699.654     4316.181     1037.406        0.507        0.403       30.642       39.927        1.698      350.054       30.936      857.714
06/09/2014  12:58:00       53.844      -72.952        7.264       58.745       64.846       41.085     3450.994     4204.990     1687.997        0.881        0.467       90.671       34.441        0.144      350.356       31.461      857.678
06/09/2014  12:59:00       39.717       21.347       31.470       36.884       27.097       25.581     1360.405      734.229      654.367        0.289        0.137       45.091       17.640        0.153      350.671       32.008      857.665
06/09/2014  13:00:00       -5.720       12.134       -0.473       74.431       85.362       47.712     5539.983     7286.708     2276.437        0.764        0.755       13.414       38.052        8.047      350.501       31.711      857.672
06/09/2014  13:01:00      -50.868        0.394       -1.775       63.740       69.951       56.277     4062.812     4893.109     3167.081        0.735        0.606       50.869       49.707        0.955      350.244       31.267      857.655
06/09/2014  13:02:00      -75.325       -4.160        3.133       53.552       33.935       29.595     2867.800     1151.610      875.864        0.530        0.245       75.440       25.778        0.117      350.500       31.711      857.646
06/09/2014  13:03:00      -94.845     -149.100       -5.117       68.244      171.220       58.496     4657.257    29316.434     3421.752        3.432        1.870      176.710       67.495        0.146      350.328       31.411      857.626
06/09/2014  13:04:00      -29.966     -130.992       19.009      104.969      113.198       67.193    11018.498    12813.780     4514.897        2.338        1.417      134.376       67.703        0.254      350.501       31.710      857.598
06/09/2014  13:05:00     -121.966     -114.878       20.643      109.769      198.642       64.913    12049.312    39458.519     4213.704        4.210        2.786      167.549       61.828        0.136      350.156       31.109      857.601
06/09/2014  13:06:00       41.728     -237.475        0.958      214.070      150.355       84.708    45825.864    22606.539     7175.406        6.686        3.780      241.113       93.298        0.150      350.264       31.298      857.549
06/09/2014  13:07:00      -26.460     -199.384       12.494      105.703      121.732       55.815    11173.137    14818.772     3115.327        3.485        1.455      201.132       64.399        0.103      350.293       31.347      857.543
06/09/2014  13:08:00       -8.293     -201.637       -5.660       66.259       73.839       49.669     4390.224     5452.161     2467.046        2.653        0.615      201.807       40.652        0.041      350.370       31.482      857.561
06/09/2014  13:09:00      -87.782     -190.802      -10.758      131.838      125.752       64.113    17381.273    15813.533     4110.469        4.076        1.865      210.027       67.162        0.102      350.313       31.381      857.536
06/09/2014  13:10:00     -132.279     -223.753       -9.109       95.064      108.376       53.399     9037.088    11745.329     2851.505        4.564        1.182      259.929       49.090        0.036      350.384       31.504      857.551
06/09/2014  13:11:00      -82.419     -111.476        5.103       83.080       80.871       47.365     6902.246     6540.192     2243.447        1.746        0.784      138.636       29.845        0.046      350.478       31.671      857.477
06/09/2014  13:12:00     -135.456     -218.165      -17.428      196.786      194.790       93.985    38724.602    37943.147     8833.197        7.586        4.275      256.796       79.710        0.096      350.484       31.681      857.460
06/09/2014  13:13:00     -281.229     -263.241       -8.832      258.208      225.363      108.064    66671.521    50788.314    11677.738       13.877        6.457      385.208       61.439        0.025      350.368       31.477      857.444
06/09/2014  13:14:00     -428.567     -223.021        7.946      217.930      179.270       89.012    47493.476    32137.708     7923.123       16.050        4.378      483.123       86.853        0.032      350.266       31.300      857.504
06/09/2014  13:15:00     -264.074     -137.376       -2.097      157.448      112.484       83.513    24789.987    12652.658     6974.485        6.651        2.221      297.670       91.868        0.095      350.384       31.505      857.519
06/09/2014  13:16:00     -251.009     -210.221      -16.145      178.054      127.432       72.853    31703.096    16239.021     5307.530        8.034        2.662      327.411       85.498        0.068      350.343       31.433      857.535
06/09/2014  13:17:00     -214.376     -158.875       16.468      135.914      110.786       61.308    18472.672    12273.568     3758.702        5.298        1.725      266.830       54.997        0.042      350.264       31.296      857.521
06/09/2014  13:18:00     -275.947     -209.738       -0.436      178.677      126.371       74.819    31925.513    15969.706     5597.831        8.680        2.675      346.608       81.677        0.056      350.284       31.333      857.508
06/09/2014  13:19:00     -302.601     -202.730      -21.948      160.023      132.123       79.282    25607.211    17456.459     6285.619        9.124        2.467      364.234       66.643        0.033      350.124       31.053      857.508
06/09/2014  13:20:00     -358.452     -149.573      -21.504      164.928      111.710       68.844    27201.297    12479.123     4739.522        9.786        2.221      388.407       68.132        0.031      350.235       31.246      857.484
06/09/2014  13:21:00     -337.098     -123.495       -3.356      183.104      126.365       71.075    33527.205    15967.996     5051.587        9.171        2.727      359.007       82.657        0.053      350.323       31.399      857.464
06/09/2014  13:22:00     -308.070      -74.317      -17.001      173.819      121.631       66.288    30212.945    14794.066     4394.042        7.505        2.470      316.907       60.453        0.036      350.345       31.437      857.437
06/09/2014  13:23:00     -379.229     -136.616      -15.785      115.288      129.434       66.939    13291.363    16753.203     4480.788        9.862        1.726      403.086       54.596        0.018      350.321       31.394      857.406
06/09/2014  13:24:00     -375.887     -228.356      -13.570      212.474      189.887       93.313    45145.240    36057.206     8707.259       14.175        4.495      439.816       97.459        0.049      350.267       31.303      857.409
06/09/2014  13:25:00     -159.740     -147.852       19.405      136.016      118.892       69.961    18500.257    14135.213     4894.486        4.263        1.876      217.663       82.596        0.144      350.287       31.337      857.420
06/09/2014  13:26:00     -230.915     -105.386      -10.785      120.967       89.842       58.458    14633.119     8071.511     3417.380        4.533        1.306      253.826       56.202        0.049      350.487       31.685      857.406
06/09/2014  13:27:00     -249.826      -42.398       29.538      274.304      143.011       98.313    75242.495    20452.024     9665.420        8.520        5.268      253.399      134.723        0.283      350.634       31.942      857.394
06/09/2014  13:28:00      -44.674        6.794       50.894      178.109      165.699      117.350    31722.727    27456.309    13771.098        3.878        3.648       45.187       93.815        4.310      350.813       32.254      857.353
06/09/2014  13:29:00     -306.047       -0.083      -22.854      208.950      129.996       85.435    43660.040    16898.857     7299.193        8.101        3.393      306.047       99.003        0.105      350.850       32.317      857.349
06/09/2014  13:30:00     -441.748      -96.588      -17.564      213.120      211.209       94.028    45420.246    44609.377     8841.274       15.181        4.944      452.184      101.189        0.050      350.646       31.961      857.354
06/09/2014  13:31:00     -207.162     -198.857       14.035      143.111      111.221       72.090    20480.622    12370.174     5196.989        6.034        1.902      287.158       63.531        0.049      350.310       31.376      857.392
06/09/2014  13:32:00     -376.318     -287.046      -12.146      247.298      164.605       84.181    61156.179    27094.840     7086.498       15.973        4.767      473.298      114.119        0.058      350.169       31.131      857.358
06/09/2014  13:33:00     -504.335     -268.000      -32.177      224.657      162.160       88.569    50470.601    26295.980     7844.444       20.590        4.231      571.119       91.410        0.026      350.214       31.209      857.319
06/09/2014  13:34:00     -422.475     -249.570       -0.878      245.994      165.702      116.199    60513.048    27457.105    13502.171       17.110        5.074      490.684      136.602        0.078      350.469       31.653      857.352
06/09/2014  13:35:00     -183.592      -59.048       19.340      146.051      105.118       65.760    21330.935    11049.787     4324.419        3.713        1.835      192.854       69.888        0.131      350.652       31.973      857.396
06/09/2014  13:36:00     -220.255     -219.720      -18.037      107.690       87.448       60.931    11597.159     7647.210     3712.640        6.003        1.148      311.110       59.185        0.036      350.433       31.589      857.386
06/09/2014  13:37:00     -135.371     -245.143       31.202      266.349      244.576      120.425    70941.639    59817.320    14502.091       11.230        7.263      280.036      129.453        0.214      350.559       31.810      857.332
06/09/2014  13:38:00     -244.736     -197.983      -18.372      214.250      159.247       73.676    45903.235    25359.502     5428.171        8.805        3.835      314.790       81.596        0.067      350.538       31.773      857.379
06/09/2014  13:39:00     -211.211     -293.838        3.462      152.624      197.136       70.614    23293.980    38862.484     4986.401        9.904        3.357      361.872       72.667        0.040      350.285       31.333      857.413
06/09/2014  13:40:00      -62.129      -80.859       -2.644      105.516       78.507       46.890    11133.729     6163.316     2198.676        1.495        0.975      101.971       31.013        0.093      350.375       31.493      857.307
06/09/2014  13:41:00     -139.080      -95.729        6.923      138.011       87.048       50.676    19047.151     7577.377     2568.106        2.887        1.460      168.841       41.218        0.060      350.789       32.211      857.323
06/09/2014  13:42:00     -377.359     -235.687       -0.544      264.623      176.617       98.736    70025.534    31193.557     9748.834       15.444        5.548      444.914      110.420        0.062      350.418       31.564      857.371
06/09/2014  13:43:00     -319.912     -220.763       17.990      223.582      176.707       96.923    49989.008    31225.353     9394.134       12.099        4.530      388.690      102.651        0.070      350.150       31.100      857.382
06/09/2014  13:44:00     -282.761     -204.009        5.422      204.110      122.408       67.878    41660.986    14983.647     4607.371        9.142        3.063      348.674       70.321        0.041      349.983       30.808      857.338
06/09/2014  13:45:00     -181.702     -190.335        1.044      140.861      132.323       69.728    19841.753    17509.309     4861.925        5.572        2.111      263.140       74.078        0.079      350.349       31.444      857.366
06/09/2014  13:46:00      -54.311     -101.151       19.301       92.547      105.361       53.450     8564.969    11100.928     2856.953        1.803        1.126      114.809       48.383        0.178      350.674       32.013      857.357
06/09/2014  13:47:00      -81.402     -142.346        7.697       92.520      100.423       53.669     8559.881    10084.706     2880.369        2.423        1.076      163.978       32.398        0.039      350.618       31.914      857.351
06/09/2014  13:48:00      -22.933     -183.980        1.493      114.848      140.180       94.385    13190.124    19650.571     8908.532        3.805        2.087      185.403       76.576        0.171      350.534       31.768      857.316
06/09/2014  13:49:00      -68.061      -30.690        0.905      105.444       81.535       46.796    11118.414     6647.948     2189.826        1.276        0.998       74.660       55.279        0.548      350.900       32.406      857.350
06/09/2014  13:50:00      -69.365     -179.664       -8.159      149.759      102.069       71.207    22427.834    10418.095     5070.405        3.753        1.896      192.589       49.454        0.066      350.460       31.638      857.339
06/09/2014  13:51:00     -108.663      -98.400       -4.479       85.418       79.087       42.398     7296.312     6254.745     1797.562        1.843        0.767      146.596       30.929        0.045      350.814       32.256      857.323
06/09/2014  13:52:00     -145.895     -203.904       -8.438      106.259      132.163       58.101    11290.979    17467.132     3375.698        4.753        1.607      250.723       52.122        0.043      350.633       31.940      857.341
06/09/2014  13:53:00     -220.923     -242.601       12.425      227.369      150.914       72.879    51696.588    22774.995     5311.290        9.378        3.989      328.119       88.340        0.072      350.761       32.161      857.320
06/09/2014  13:54:00     -327.754     -231.490       13.186      205.373      180.800       87.984    42178.202    32688.525     7741.143       12.188        4.130      401.261      101.008        0.063      350.484       31.680      857.345
06/09/2014  13:55:00     -393.064     -280.983      -14.007      206.224      135.593       88.182    42528.225    18385.522     7775.987       15.116        3.434      483.168       81.618        0.029      350.154       31.104      857.316
06/09/2014  13:56:00     -168.332     -260.449       15.384      166.542      168.511       73.907    27736.386    28395.813     5462.227        7.899        3.080      310.111       84.414        0.074      350.319       31.393      857.358
06/09/2014  13:57:00      -55.858     -281.543      -22.042      222.538      158.444       82.273    49523.220    25104.499     6768.853        8.212        4.070      287.031       74.033        0.067      350.423       31.573      857.309
06/09/2014  13:58:00     -112.471     -136.190       11.994      112.464      140.883       65.947    12648.146    19848.089     4348.949        3.409        1.842      176.628       77.102        0.191      350.379       31.497      857.314
06/09/2014  13:59:00       20.511     -178.371      -17.187       91.169       78.960       49.898     8311.778     6234.723     2489.780        2.478        0.852      179.547       31.670        0.031      350.160       31.117      857.311
06/09/2014  14:00:00      -62.346      -25.672        9.302      100.133       43.319       38.443    10026.542     1876.539     1477.896        0.900        0.669       67.425       46.695        0.480      350.613       31.906      857.261
06/09/2014  14:01:00     -234.912     -123.868        1.214      209.072      155.003       85.062    43711.067    24025.775     7235.542        7.274        3.749      265.569      103.011        0.150      350.628       31.931      857.288
06/09/2014  14:02:00     -381.345     -234.772      -25.001      197.603      198.195      108.880    39046.892    39281.316    11854.812       14.566        4.509      447.819      105.266        0.055      350.450       31.619      857.315
06/09/2014  14:03:00     -505.077     -168.051      -23.247      234.025      158.030       80.307    54767.900    24973.539     6449.191       18.502        4.310      532.300       93.988        0.031      350.329       31.409      857.320
06/09/2014  14:04:00     -235.056     -107.294       13.288      165.751      129.566       75.142    27473.506    16787.455     5646.280        5.841        2.495      258.386       86.596        0.112      350.663       31.990      857.312
06/09/2014  14:05:00     -230.457     -176.782       -6.726      190.024      141.951       73.729    36109.290    20150.163     5435.967        7.304        3.085      290.452       76.780        0.070      350.613       31.904      857.280
06/09/2014  14:06:00     -445.823     -229.649      -21.675      195.845      159.059       81.129    38355.073    25299.848     6581.869       16.109        3.512      501.495       78.833        0.025      350.623       31.921      857.245
06/09/2014  14:07:00     -430.538      -56.628      -17.790      219.514      155.428      102.579    48186.549    24157.965    10522.530       13.586        4.143      434.246      102.517        0.056      350.463       31.641      857.231
06/09/2014  14:08:00     -377.468      -74.769       -2.058      213.863      145.972      100.159    45737.414    21307.909    10031.812       11.256        3.854      384.802      112.312        0.085      350.539       31.775      857.224
06/09/2014  14:09:00     -545.279     -234.797      -11.486      243.078      215.768      103.290    59086.953    46555.862    10668.926       23.443        5.816      593.682      111.847        0.035      350.344       31.436      857.216
06/09/2014  14:10:00     -446.628     -127.942        5.111      281.905      216.012      117.601    79470.478    46661.348    13830.026       17.789        6.998      464.592      124.191        0.071      350.437       31.598      857.227
06/09/2014  14:11:00     -299.456     -180.347       -1.258      197.285      185.538      102.728    38921.275    34424.271    10553.068       10.303        4.195      349.569      106.338        0.093      350.272       31.312      857.212
06/09/2014  14:12:00     -431.141     -315.368       -9.022      288.348      197.682      129.348    83144.660    39078.232    16730.949       21.216        6.948      534.172      152.379        0.081      350.388       31.512      857.236
06/09/2014  14:13:00     -388.519     -117.813        8.854      269.403      160.547       84.402    72577.762    25775.322     7123.688       13.517        5.274      405.989      113.510        0.078      350.561       31.813      857.211
06/09/2014  14:14:00     -426.228     -112.698       11.712      204.441      193.067      112.604    41795.969    37274.853    12679.696       14.311        4.588      440.876      126.098        0.082      350.354       31.453      857.200
06/09/2014  14:15:00     -305.312     -162.841      -15.269      207.742      165.671       95.687    43156.742    27446.808     9155.988        9.985        3.988      346.024       94.229        0.074      350.316       31.387      857.211
06/09/2014  14:16:00     -484.029     -333.740        4.831      290.921      217.609      114.842    84635.086    47353.883    13188.671       24.541        7.259      587.934      127.407        0.047      350.275       31.317      857.136
06/09/2014  14:17:00     -588.704     -330.061      -11.057      212.949      224.965      100.050    45347.334    50609.408    10010.087       28.078        5.298      674.917       91.782        0.018      350.311       31.377      857.163
06/09/2014  14:18:00     -403.463     -338.666       -9.218      266.070      214.128      100.168    70793.076    45850.930    10033.664       20.210        6.334      526.761      104.242        0.039      350.105       31.021      857.170
06/09/2014  14:19:00     -378.827      -78.880       -4.280      271.684      196.179      100.538    73812.019    38486.170    10107.824       13.605        6.120      386.952      117.925        0.093      350.433       31.592      857.129
06/09/2014  14:20:00     -282.468     -224.444        1.624      205.486      176.157       96.072    42224.465    31031.291     9229.874       10.631        4.124      360.782      100.829        0.078      350.654       31.976      857.117
06/09/2014  14:21:00     -362.430     -294.912       11.329      216.563      192.516      100.417    46899.688    37062.353    10083.543       15.623        4.702      467.256      113.837        0.059      350.521       31.744      857.118
06/09/2014  14:22:00     -302.498     -124.308        7.164      212.401      166.217       92.604    45113.989    27628.244     8575.551        9.415        4.066      327.044      100.297        0.094      350.702       32.059      857.112
06/09/2014  14:23:00     -307.684     -223.742       -0.872      315.219      212.735      100.113    99363.025    45256.199    10022.555       14.966        7.732      380.434      126.863        0.111      350.717       32.085      857.122
06/09/2014  14:24:00     -588.389     -245.666      -30.692      320.572      218.414      123.486   102766.175    47704.540    15248.834       28.658        8.286      637.615      137.788        0.047      350.428       31.582      857.090
06/09/2014  14:25:00     -442.016     -216.913        7.862      263.244      221.097      107.408    69297.589    48883.974    11536.418       18.608        6.486      492.371      113.388        0.053      350.411       31.553      857.124
06/09/2014  14:26:00     -411.926     -192.757       -3.364      260.314      176.362      107.594    67763.413    31103.463    11576.489       15.862        5.522      454.795      119.774        0.069      350.374       31.489      857.111
06/09/2014  14:27:00     -385.473     -122.930       -5.288      209.664      209.634       81.134    43958.976    43946.274     6582.744       12.909        4.724      404.601       78.005        0.037      350.463       31.643      857.090
06/09/2014  14:28:00     -542.504     -321.878      -30.997      352.521      310.950      131.010   124270.714    96689.919    17163.679       31.846       11.906      630.806      147.557        0.055      350.435       31.595      857.058
06/09/2014  14:29:00     -564.527     -255.572        5.050      246.648      215.397      101.676    60835.377    46395.690    10338.083       25.078        5.878      619.683       84.400        0.019      350.354       31.454      857.083
06/09/2014  14:30:00     -547.291     -306.745      -19.972      239.743      181.015       96.274    57476.924    32766.561     9268.620       24.675        4.976      627.392      110.229        0.031      350.453       31.624      857.144
06/09/2014  14:31:00     -244.086     -195.444       17.775      222.700      199.775      106.979    49595.119    39909.905    11444.407        9.950        5.047      312.692      122.536        0.154      350.662       31.990      857.190
06/09/2014  14:32:00     -258.286     -173.476        0.896      216.686      156.743       92.463    46952.988    24568.255     8549.400        8.843        4.004      311.136       94.434        0.092      350.462       31.641      857.164
06/09/2014  14:33:00     -376.494     -275.252        0.133      223.156      161.952       97.844    49798.711    26228.489     9573.366       15.154        4.280      466.381      101.121        0.047      350.240       31.256      857.143
06/09/2014  14:34:00     -323.355     -192.494       -8.612      211.568      131.845       84.732    44761.130    17383.231     7179.559       10.549        3.466      376.315       96.081        0.065      350.360       31.464      857.088
06/09/2014  14:35:00     -301.605      -18.966       -1.140      184.462      138.012       72.555    34026.309    19047.223     5264.253        7.482        2.917      302.201       75.096        0.062      350.671       32.005      857.014
06/09/2014  14:36:00     -376.522     -166.231       -2.362      265.049      193.115       94.759    70250.799    37293.536     8979.190       14.295        5.826      411.584      114.077        0.077      350.731       32.110      857.049
06/09/2014  14:37:00     -502.145     -341.279      -29.618      261.147      213.860      115.880    68197.508    45736.124    13428.093       24.841        6.368      607.142      126.702        0.044      350.252       31.276      857.115
06/09/2014  14:38:00     -352.225     -178.887      -26.129      259.328      192.764      102.170    67251.179    37158.056    10438.665       13.578        5.742      395.048      113.444        0.082      350.670       32.002      857.076
06/09/2014  14:39:00     -369.677      -96.914      -17.944      234.496      194.889      102.223    54988.549    37981.895    10449.596       12.488        5.171      382.169      113.286        0.088      350.626       31.927      857.123
06/09/2014  14:40:00     -528.013      -82.606      -25.274      228.552      207.473       92.591    52235.861    43045.052     8573.142       19.504        5.193      534.436       92.442        0.030      350.341       31.432      857.077
06/09/2014  14:41:00     -400.973     -116.192      -13.910      227.558      154.899       79.525    51782.433    23993.829     6324.281       12.827        4.105      417.469       96.718        0.054      350.600       31.882      857.096
06/09/2014  14:42:00     -540.766     -193.656      -37.223      201.558      179.768       97.709    40625.674    32316.644     9546.958       20.689        4.124      574.395       89.061        0.024      350.415       31.559      857.075
06/09/2014  14:43:00     -450.635     -125.421      -12.039      240.485      178.124       87.879    57833.109    31728.028     7722.803       15.810        4.864      467.763       96.495        0.043      350.429       31.584      857.078
06/09/2014  14:44:00     -514.227     -167.372      -11.021      168.472      212.011       94.556    28382.958    44948.552     8940.896       18.740        4.114      540.780      103.821        0.037      350.150       31.099      857.038
06/09/2014  14:45:00     -402.885     -158.683       12.803      269.582      216.218      104.762    72674.344    46750.174    10975.079       15.901        6.520      433.009      120.230        0.077      350.386       31.507      857.045
06/09/2014  14:46:00     -236.069      -87.007        5.596      263.215      169.279       96.103    69282.164    28655.525     9235.865        8.523        5.359      251.593      132.423        0.277      350.708       32.069      857.030
06/09/2014  14:47:00     -450.302     -220.671      -26.246      235.179      181.226       96.490    55309.122    32842.742     9310.308       17.479        4.873      501.465      120.429        0.058      350.639       31.949      857.012
06/09/2014  14:48:00     -439.622     -310.519       13.886      281.170      245.698      120.452    79056.581    60367.537    14508.783       22.188        7.697      538.228      140.029        0.068      350.403       31.540      857.080
06/09/2014  14:49:00     -436.058     -251.598       -0.614      274.967      197.029      125.560    75607.053    38820.311    15765.206       19.180        6.510      503.437      144.741        0.083      350.437       31.599      857.085
06/09/2014  14:50:00     -491.441     -142.819      -18.629      235.289      181.744       93.560    55360.748    33031.033     8753.518       17.969        4.857      511.773      100.317        0.038      350.436       31.596      857.049
06/09/2014  14:51:00     -427.898     -138.012      -26.115      213.539      160.163       75.050    45599.114    25652.089     5632.484       13.984        3.844      449.605       94.280        0.044      350.480       31.673      857.012
06/09/2014  14:52:00     -426.757       73.242      -31.615      267.748      159.431       86.726    71688.884    25418.128     7521.357       14.654        5.231      432.996       99.405        0.053      350.708       32.070      856.992
06/09/2014  14:53:00     -337.406      -11.554        8.947      286.008      167.491       97.211    81800.563    28053.228     9450.007       11.666        5.965      337.604      119.947        0.126      350.837       32.294      856.996
06/09/2014  14:54:00     -181.240      -57.712       25.564      177.409      128.541       74.797    31473.880    16522.875     5594.605        4.520        2.680      190.207       91.814        0.233      351.004       32.587      857.029
06/09/2014  14:55:00     -217.349      -94.576        3.810      153.621      127.302       63.835    23599.284    16205.755     4074.934        5.003        2.194      237.034       65.648        0.077      350.877       32.364      857.024
06/09/2014  14:56:00     -201.514     -153.763      -11.546      125.659      120.718       72.886    15790.263    14572.843     5312.433        5.002        1.784      253.477       66.013        0.068      350.620       31.917      857.003
06/09/2014  14:57:00     -197.454       37.613        4.314      169.934      120.298       72.334    28877.398    14471.635     5232.209        4.449        2.429      201.005       79.239        0.155      350.958       32.505      856.988
06/09/2014  14:58:00     -169.673      -69.946        4.309      168.121      148.271       86.666    28264.705    21984.270     7510.969        4.572        2.888      183.524       87.141        0.225      350.868       32.348      857.007
06/09/2014  14:59:00     -344.943     -181.243       -6.244      238.147      197.334       90.012    56713.816    38940.577     8102.161       12.780        5.188      389.660      107.612        0.076      350.476       31.665      857.014
06/09/2014  15:00:00     -469.393     -233.919       -8.527      321.611      225.162      110.492   103433.677    50698.003    12208.584       22.070        8.317      524.450      145.831        0.077      350.483       31.678      857.020
06/09/2014  15:01:00     -431.415     -285.844        4.636      269.378      219.955      119.539    72564.728    48380.397    14289.530       20.152        6.762      517.519      129.334        0.062      350.485       31.680      857.007
06/09/2014  15:02:00     -482.089     -147.949        0.877      247.690      185.268      103.600    61350.443    34324.112    10732.968       18.034        5.320      504.280      121.735        0.058      350.472       31.659      856.937
06/09/2014  15:03:00     -497.152     -156.974      -14.672      247.002      163.433       88.364    61009.797    26710.446     7808.269       18.376        4.776      521.346       92.847        0.032      350.542       31.780      856.916
06/09/2014  15:04:00     -656.342     -157.103      -36.670      257.689      200.584      103.545    66403.466    40233.809    10721.501       28.707        5.868      674.882      111.389        0.027      350.540       31.775      856.858
06/09/2014  15:05:00     -479.695     -131.873      -24.288      221.366      122.042       76.146    49003.041    14894.189     5798.278       15.888        3.485      497.492       80.027        0.026      350.730       32.107      856.894
06/09/2014  15:06:00     -289.904     -151.611       -3.947      271.451      210.568      114.528    73685.489    44338.741    13116.628       11.907        6.557      327.155      110.187        0.113      350.757       32.156      856.913
06/09/2014  15:07:00     -679.002     -126.050      -14.125      273.672      249.364      108.009    74896.515    62182.283    11666.019       31.291        7.437      690.603      115.764        0.028      350.243       31.259      856.904
06/09/2014  15:08:00     -317.470     -163.159        0.469      200.316      229.069      105.491    40126.514    52472.770    11128.305       11.555        5.186      356.943      106.900        0.090      350.621       31.917      856.902
06/09/2014  15:09:00     -313.692     -173.511       12.445      240.985      196.166      110.530    58073.886    38481.106    12216.787       11.870        5.439      358.482      146.025        0.166      350.819       32.264      856.912
06/09/2014  15:10:00     -368.225     -203.868        2.413      223.698      176.557       98.645    50040.786    31172.526     9730.785       13.404        4.547      420.894      107.739        0.066      350.509       31.724      856.940
06/09/2014  15:11:00     -530.887       19.655      -31.751      189.177      199.942       74.565    35788.092    39976.706     5559.981       18.227        4.066      531.250       78.367        0.022      350.490       31.689      856.899
06/09/2014  15:12:00     -348.486     -161.852       -4.468      177.044      153.476       80.808    31344.488    23555.005     6529.856       10.453        3.071      384.238       85.040        0.049      350.591       31.867      856.865
06/09/2014  15:13:00     -230.725     -167.023       14.932      186.441      140.890       92.043    34760.226    19850.126     8471.884        7.221        3.154      284.834      100.401        0.124      350.705       32.065      856.892
06/09/2014  15:14:00     -405.777     -197.287       12.963      275.348      179.078      111.172    75816.636    32068.842    12359.247       16.197        6.012      451.195      146.081        0.105      350.556       31.803      856.907
06/09/2014  15:15:00     -327.633       -2.515        4.112      295.413      175.468      109.957    87268.923    30789.020    12090.582       11.874        6.507      327.643      145.050        0.196      350.612       31.902      856.810
06/09/2014  15:16:00     -588.960       26.259      -42.596      248.668      209.334      104.120    61835.910    43820.833    10840.950       23.292        5.825      589.545      108.873        0.034      350.456       31.630      856.759
06/09/2014  15:17:00     -473.661      -37.995      -10.840      279.838      202.140      104.821    78309.242    40860.525    10987.423       17.801        6.508      475.183      119.800        0.064      350.647       31.963      856.777
06/09/2014  15:18:00     -317.199     -189.125       18.479      239.823      185.750       94.601    57514.926    34502.984     8949.305       11.883        5.048      369.301      116.820        0.100      350.828       32.279      856.839
06/09/2014  15:19:00     -577.768     -322.715        0.602      282.108      224.250      119.137    79585.137    50288.187    14193.724       29.099        7.203      661.787      135.911        0.042      350.365       31.472      856.830
06/09/2014  15:20:00     -214.449     -170.099       16.685      241.118      194.500      115.433    58137.715    37830.290    13324.759        9.223        5.465      273.719      136.654        0.249      350.673       32.007      856.841
06/09/2014  15:21:00     -328.161      -88.256        7.247      213.437      158.423       91.208    45555.326    25097.906     8318.929        9.724        3.949      339.822      106.258        0.098      350.553       31.799      856.839
06/09/2014  15:22:00     -386.031     -323.943       -4.974      272.314      192.872      106.473    74154.993    37199.648    11336.600       18.832        6.135      503.944      124.208        0.061      350.500       31.708      856.806
06/09/2014  15:23:00     -389.739     -259.093      -19.246      212.570      197.444      108.859    45185.908    38984.066    11850.318       15.769        4.801      468.001      116.082        0.062      350.417       31.563      856.773
06/09/2014  15:24:00     -375.398     -163.120       11.169      269.889      190.621       90.909    72839.917    36336.549     8264.438       14.253        5.872      409.306      111.639        0.074      350.634       31.939      856.785
06/09/2014  15:25:00     -412.341     -162.948       -4.238      250.888      187.254      103.884    62944.802    35064.195    10791.939       15.268        5.440      443.371      108.914        0.060      350.585       31.855      856.793
06/09/2014  15:26:00     -438.880     -195.981       -1.947      219.249      274.424      120.516    48070.286    75308.396    14524.072       18.444        6.895      480.650      136.880        0.081      350.457       31.633      856.771
06/09/2014  15:27:00     -518.341     -136.519       -7.798      283.630      273.862      123.353    80445.948    75000.660    15216.072       22.899        8.533      536.018      127.526        0.057      350.383       31.503      856.763
06/09/2014  15:28:00     -577.727     -253.260      -29.422      305.078      224.548      106.977    93072.742    50421.663    11444.045       27.683        7.747      630.800      118.865        0.036      350.205       31.194      856.772
06/09/2014  15:29:00     -257.865     -225.017       -2.443      184.218      123.419       86.748    33936.168    15232.206     7525.283        8.690        2.835      342.238       81.675        0.057      350.306       31.370      856.740
06/09/2014  15:30:00     -286.773     -181.974       -0.411      225.151      134.590       87.050    50693.065    18114.591     7577.767        9.586        3.819      339.637      106.123        0.098      350.639       31.948      856.717
06/09/2014  15:31:00     -481.322     -206.034       -4.785      226.037      164.620       86.567    51092.837    27099.738     7493.796       17.990        4.284      523.565      105.387        0.041      350.538       31.774      856.700
06/09/2014  15:32:00     -455.411     -289.517      -12.077      258.089      241.589      125.920    66610.105    58365.194    15855.842       21.607        7.042      539.648      136.565        0.064      350.395       31.524      856.670
06/09/2014  15:33:00     -392.424     -195.447       -1.827      264.862      203.424      109.212    70152.073    41381.434    11927.256       15.781        6.173      438.402      142.054        0.105      350.588       31.860      856.657
06/09/2014  15:34:00     -476.805     -223.530      -15.637      225.186      231.794      116.898    50708.876    53728.266    13665.247       19.781        5.905      526.601      125.813        0.057      350.528       31.754      856.687
06/09/2014  15:35:00     -431.036     -166.170       -6.581      273.662      234.546      110.711    74890.808    55011.807    12256.974       17.778        7.108      461.957      107.709        0.054      350.348       31.442      856.709
06/09/2014  15:36:00     -348.821     -264.283        2.783      238.625      178.255      103.148    56941.752    31774.763    10639.528       14.543        4.968      437.631      113.605        0.067      350.170       31.133      856.677
06/09/2014  15:37:00     -546.317      -95.941      -18.525      283.174      216.515       97.499    80187.672    46878.849     9505.997       22.227        6.829      554.677       99.352        0.032      350.432       31.589      856.669
06/09/2014  15:38:00     -499.417     -101.733      -11.471      216.353      133.431       81.884    46808.582    17803.915     6705.029       16.560        3.566      509.673       93.835        0.034      350.475       31.663      856.669
06/09/2014  15:39:00     -389.106     -104.602        1.193      234.342      190.436      103.970    54916.317    36265.697    10809.831       13.215        5.100      402.921      122.104        0.092      350.555       31.802      856.665
06/09/2014  15:40:00     -481.158      -44.536      -20.738      233.986      161.873       90.497    54749.653    26202.928     8189.687       16.152        4.457      483.215      111.966        0.054      350.451       31.623      856.662
06/09/2014  15:41:00     -699.609     -154.080      -25.973      320.858      222.409      103.353   102949.559    49465.764    10681.797       33.846        8.155      716.375      130.494        0.033      350.405       31.542      856.629
06/09/2014  15:42:00     -643.181     -203.977      -13.404      231.919      192.317      101.774    53786.518    36985.705    10357.854       27.828        5.057      674.750      117.229        0.030      350.164       31.123      856.661
06/09/2014  15:43:00     -437.893      -61.657      -14.173      189.642      176.680       72.122    35964.080    31215.688     5201.544       13.406        3.619      442.213       75.774        0.029      350.334       31.417      856.641
06/09/2014  15:44:00     -398.321     -103.390      -13.905      151.953      177.379       83.824    23089.742    31463.354     7026.518       11.555        3.079      411.520       64.607        0.025      350.500       31.707      856.648
06/09/2014  15:45:00     -652.254     -167.246      -16.268      228.366      262.925      103.501    52151.222    69129.620    10712.409       29.281        6.600      673.354      110.868        0.027      350.374       31.487      856.666
06/09/2014  15:46:00     -305.605      -26.029       15.786      255.580      193.083      110.354    65320.903    37281.113    12177.950       10.453        5.739      306.712      127.058        0.172      350.646       31.962      856.612
06/09/2014  15:47:00     -461.685     -237.466        0.489      257.836      250.665      124.162    66479.368    62832.850    15416.210       20.711        7.236      519.176      137.465        0.070      350.538       31.773      856.646
06/09/2014  15:48:00     -542.177     -336.903      -16.413      255.608      192.838      124.313    65335.340    37186.652    15453.846       26.283        5.899      638.326      137.011        0.046      350.337       31.422      856.655
06/09/2014  15:49:00     -485.236     -274.509      -17.492      231.425      193.219      113.290    53557.420    37333.719    12834.522       20.740        5.186      557.502      113.445        0.041      350.201       31.188      856.634
06/09/2014  15:50:00     -485.509     -312.226      -26.154      183.619      180.277       91.733    33716.117    32499.898     8414.852       20.425        3.732      577.239       99.161        0.030      350.151       31.099      856.607
06/09/2014  15:51:00     -271.239     -156.537        3.843      195.824      171.822       75.035    38347.146    29522.654     5630.246        8.578        3.675      313.168       87.245        0.078      350.442       31.606      856.614
06/09/2014  15:52:00     -348.234     -210.770        3.228      198.340      176.146       98.313    39338.817    31027.582     9665.383       12.285        4.002      407.052       97.659        0.058      350.633       31.939      856.586
06/09/2014  15:53:00     -620.048      -97.516      -25.147      244.577      216.323      102.678    59818.107    46795.842    10542.864       25.586        5.858      627.670      109.226        0.030      350.460       31.639      856.552
06/09/2014  15:54:00     -339.842     -255.698       10.200      324.662      259.108      141.551   105405.617    67136.992    20036.662       18.675        9.629      425.293      164.168        0.149      350.342       31.433      856.468
06/09/2014  15:55:00     -566.346      -34.445      -31.990      313.678      213.698      111.714    98393.669    45666.654    12480.102       23.972        7.827      567.393      132.942        0.055      350.436       31.596      856.472
06/09/2014  15:56:00     -144.537      -35.495       33.602      160.442      173.354      109.038    25741.629    30051.769    11889.300        4.547        3.384      148.831      107.374        0.520      350.804       32.238      856.546
06/09/2014  15:57:00     -442.981     -171.111       -9.711      274.373      171.658      107.064    75280.629    29466.417    11462.744       17.089        5.810      474.880      128.057        0.073      350.513       31.730      856.600
06/09/2014  15:58:00     -413.176     -112.127      -13.076      212.565      196.571       86.164    45183.737    38640.322     7424.175       13.734        4.562      428.120       77.300        0.033      350.444       31.611      856.613
06/09/2014  15:59:00     -448.093     -113.287       -0.437      208.800      210.574       98.562    43597.413    44341.267     9714.433       15.562        4.883      462.192       91.586        0.039      350.329       31.409      856.568
06/09/2014  16:00:00     -463.930     -164.962       -3.557      242.897      226.918      121.860    58998.957    51491.997    14849.740       18.388        6.267      492.385      131.078        0.071      350.368       31.478      856.516
06/09/2014  16:01:00     -468.973     -152.790      -18.733      291.439      228.657       98.070    84936.779    52283.828     9617.650       19.521        7.342      493.235       95.443        0.037      350.361       31.466      856.581
06/09/2014  16:02:00     -445.450     -262.233       -4.866      314.810      232.037      114.355    99105.044    53841.170    13077.094       21.659        8.301      516.906      155.491        0.090      350.129       31.064      856.590
06/09/2014  16:03:00     -323.423     -185.839       21.027      339.874      183.420      106.325   115514.213    33642.904    11305.072       14.999        8.023      373.013      127.426        0.117      350.357       31.459      856.507
06/09/2014  16:04:00     -776.321     -403.751      -39.549      291.091      241.774      119.815    84733.778    58454.557    14355.713       46.237        7.877      875.037      113.770        0.017      350.125       31.055      856.531
06/09/2014  16:05:00     -440.210     -252.478      -15.534      215.701      201.087      112.440    46527.049    40436.037    12642.864       17.867        4.980      507.474      121.906        0.058      350.351       31.449      856.595
06/09/2014  16:06:00     -603.382     -293.497      -25.931      313.878      219.520      134.696    98519.316    48189.111    18143.134       30.784        8.243      670.977      158.127        0.056      350.219       31.218      856.590
06/09/2014  16:07:00     -428.679      -48.972       16.869      301.861      213.458      101.708    91119.991    45564.159    10344.573       16.671        7.351      431.467      121.710        0.080      350.305       31.369      856.600
06/09/2014  16:08:00     -464.603     -217.921      -34.395      217.252      169.876       92.165    47198.493    28857.721     8494.415       17.453        4.228      513.172       92.620        0.033      350.297       31.356      856.609
06/09/2014  16:09:00     -645.747     -304.807       -8.468      241.885      162.579       97.151    58508.362    26431.859     9438.242       30.216        4.719      714.070      107.402        0.023      350.149       31.096      856.598
06/09/2014  16:10:00     -405.195     -207.184      -13.742      237.890      184.585      112.979    56591.452    34071.744    12764.165       15.534        5.171      455.091      121.319        0.071      350.301       31.363      856.581
06/09/2014  16:11:00     -520.137     -299.353      -17.651      242.056      215.213      121.543    58591.067    46316.778    14772.584       24.005        5.984      600.129      128.548        0.046      350.234       31.244      856.594
06/09/2014  16:12:00     -310.351     -143.291        1.470      195.891      111.289       72.746    38373.113    12385.217     5291.986        8.644        2.803      341.833      102.617        0.090      350.192       31.172      856.597
06/09/2014  16:13:00     -370.014     -215.180      -13.939      167.461      139.135       83.911    28043.208    19358.670     7041.040       11.892        2.722      428.033       84.721        0.039      350.239       31.253      856.551
06/09/2014  16:14:00     -509.274     -259.659      -19.863      260.213      208.869       86.997    67710.974    43626.088     7568.404       22.302        5.945      571.649      114.762        0.040      350.291       31.343      856.535
06/09/2014  16:15:00     -381.948     -131.556       -3.459      190.910      112.496       74.254    36446.683    12655.454     5513.613       10.890        2.731      403.969       87.026        0.046      350.425       31.576      856.525
06/09/2014  16:16:00     -316.817     -103.123       -2.940      214.297      117.257       79.060    45923.309    13749.202     6250.500        8.846        3.296      333.178      101.302        0.092      350.516       31.734      856.518
06/09/2014  16:17:00     -208.075     -195.260       -3.299      208.033      132.345       84.251    43277.776    17515.091     7098.163        7.465        3.395      285.345       87.876        0.095      350.608       31.893      856.507
06/09/2014  16:18:00     -464.579     -149.166      -20.370      303.546      298.807      114.417    92140.082    89285.718    13091.213       21.648        9.726      487.938      132.474        0.074      350.583       31.851      856.512
06/09/2014  16:19:00     -328.247     -221.003       20.212      234.231      180.128      121.618    54864.314    32446.022    14790.951       12.953        5.105      395.712      127.180        0.103      350.427       31.579      856.501
06/09/2014  16:20:00     -213.257     -149.161        4.002      166.392      130.998       79.109    27686.197    17160.419     6258.187        5.942        2.555      260.245       78.375        0.091      350.722       32.094      856.546
06/09/2014  16:21:00     -210.218     -196.803       18.257      213.898      164.901       82.497    45752.185    27192.444     6805.681        8.149        3.988      287.964       98.814        0.118      350.653       31.974      856.531
06/09/2014  16:22:00     -405.271     -325.008       -1.521      253.150      198.690      120.854    64084.946    39477.660    14605.799       19.400        5.908      519.494      135.547        0.068      350.181       31.152      856.541
06/09/2014  16:23:00     -503.380     -208.236      -12.507      233.787      226.327      120.494    54656.285    51223.729    14518.854       20.863        6.020      544.751      109.793        0.041      350.361       31.465      856.490
06/09/2014  16:24:00     -419.273     -207.263       23.276      280.400      239.403      132.240    78623.949    57313.710    17487.498       18.633        7.671      467.705      149.907        0.103      350.393       31.521      856.491
06/09/2014  16:25:00     -514.452     -263.396      -13.714      253.442      233.466      119.121    64233.056    54506.223    14189.781       23.356        6.646      577.961      129.134        0.050      350.365       31.471      856.503
06/09/2014  16:26:00     -538.523     -241.445      -13.591      288.520      232.291      133.980    83244.068    53959.169    17950.723       25.179        7.758      590.171      141.893        0.058      350.292       31.345      856.529
06/09/2014  16:27:00     -458.005     -234.420       -8.280      229.440      236.502      120.595    52642.753    55933.242    14543.102       19.393        6.156      514.511      135.416        0.069      350.152       31.102      856.554
06/09/2014  16:28:00     -337.776     -201.336       19.949      238.073      224.629      106.252    56678.594    50458.186    11289.528       13.671        5.921      393.228      133.672        0.116      350.171       31.135      856.479
06/09/2014  16:29:00     -364.250     -258.688      -20.643      195.637      264.403      105.857    38273.683    69908.921    11205.767       15.969        5.969      446.763      120.017        0.072      350.151       31.099      856.471
06/09/2014  16:30:00     -405.485     -152.733       -5.630      216.876      190.591       88.624    47035.332    36324.848     7854.133       13.948        4.561      433.296      103.108        0.057      350.224       31.226      856.470
06/09/2014  16:31:00     -518.189     -231.503      -36.588      272.463      205.618      100.906    74236.068    42278.732    10181.921       22.505        6.335      567.550      106.045        0.035      350.278       31.321      856.478
06/09/2014  16:32:00     -289.415     -167.551        6.630      187.985      143.336       76.305    35338.284    20545.138     5822.406        8.678        3.085      334.416       71.869        0.046      350.561       31.813      856.469
06/09/2014  16:33:00     -571.724     -221.979      -10.094      234.948      174.532      105.953    55200.489    30461.582    11225.994       23.655        4.844      613.305      111.735        0.033      350.214       31.208      856.486
06/09/2014  16:34:00     -555.760     -344.950      -11.231      266.984      182.056      112.939    71280.292    33144.293    12755.155       27.256        5.859      654.110      106.161        0.026      350.109       31.028      856.430
06/09/2014  16:35:00     -469.796     -344.866        3.762      278.759      171.326      112.519    77706.534    29352.728    12660.541       22.967        5.986      582.787      126.146        0.047      350.095       31.004      856.399
06/09/2014  16:36:00     -569.675     -361.684      -18.330      213.128      205.388      101.913    45423.396    42184.061    10386.356       27.682        4.900      674.792       68.958        0.010      350.132       31.067      856.401
06/09/2014  16:37:00     -571.300     -283.099      -10.917      240.499      201.118       99.121    57839.897    40448.468     9824.889       25.736        5.406      637.596      119.008        0.035      350.345       31.437      856.448
06/09/2014  16:38:00     -456.864     -294.985       -2.752      265.800      200.704      115.052    70649.634    40281.933    13237.025       20.994        6.208      543.820      126.574        0.054      350.413       31.556      856.481
06/09/2014  16:39:00     -445.984     -385.578       -9.333      244.772      198.768      126.457    59913.384    39508.664    15991.498       23.152        5.771      589.553      136.355        0.053      350.301       31.362      856.525
06/09/2014  16:40:00     -361.782     -183.815       -7.640      155.927      142.267       77.954    24313.140    20239.809     6076.760       10.767        2.531      405.800       84.564        0.043      350.324       31.402      856.488
06/09/2014  16:41:00     -576.887     -175.702      -14.748      228.801      168.952       95.235    52349.839    28544.913     9069.667       22.691        4.498      603.050      104.677        0.030      350.196       31.177      856.444
06/09/2014  16:42:00     -202.640      -55.830       22.556      153.592      121.979       80.084    23590.523    14878.818     6413.393        4.478        2.244      210.190       83.667        0.158      350.490       31.690      856.461
06/09/2014  16:43:00     -377.562     -198.461        0.651      199.171      213.784       96.828    39669.277    45703.733     9375.708       13.833        4.737      426.544      109.748        0.066      350.365       31.473      856.458
06/09/2014  16:44:00     -559.226     -228.635      -27.045      202.603      222.309      105.233    41048.136    49421.150    11074.049       23.362        5.077      604.158      101.737        0.028      350.333       31.416      856.459
06/09/2014  16:45:00     -466.413     -304.464      -17.712      252.991      190.378      123.251    64004.645    36243.696    15190.912       21.298        5.772      556.991      116.522        0.044      350.356       31.456      856.442
06/09/2014  16:46:00     -501.484     -174.581      -26.054      281.651      209.373       99.752    79327.088    43837.002     9950.538       20.786        6.656      531.004      116.909        0.048      350.322       31.396      856.451
06/09/2014  16:47:00     -842.683     -154.407      -49.405      306.922      244.648      119.996    94201.168    59852.739    14399.000       45.240        8.423      856.712      141.997        0.027      350.169       31.132      856.438
06/09/2014  16:48:00     -630.447     -140.422      -22.751      318.570      204.428      113.782   101486.742    41790.790    12946.395       28.694        7.811      645.896      140.129        0.047      350.200       31.185      856.439
06/09/2014  16:49:00     -234.773      -45.796       30.522      211.736      152.907       82.886    44832.035    23380.577     6870.166        6.660        3.754      239.198      105.515        0.195      350.423       31.575      856.470
06/09/2014  16:50:00     -557.453     -188.670      -35.453      234.238      159.887       99.070    54867.390    25563.741     9814.781       21.891        4.512      588.515      100.282        0.029      350.328       31.408      856.443
06/09/2014  16:51:00     -576.521     -209.752      -15.873      266.558      215.916       97.992    71053.084    46619.620     9602.365       25.193        6.364      613.492       90.635        0.022      350.373       31.487      856.437
06/09/2014  16:52:00     -604.504     -130.500      -28.554      227.593      171.312       95.984    51798.459    29347.893     9212.952       23.680        4.518      618.430       81.178        0.017      350.245       31.264      856.425
06/09/2014  16:53:00     -366.601      -73.951      -24.613      159.801      157.287       88.539    25536.426    24739.304     7839.232        9.928        2.906      373.985       88.343        0.056      350.492       31.693      856.424
06/09/2014  16:54:00     -424.429      -26.621       -1.172      344.907      214.821      108.695   118960.745    46147.998    11814.562       17.886        8.846      425.263      135.762        0.102      350.483       31.678      856.399
06/09/2014  16:55:00     -495.550     -185.366      -18.830      205.885      188.931      106.463    42388.479    35694.964    11334.363       18.484        4.471      529.084      105.597        0.040      350.424       31.575      856.424
06/09/2014  16:56:00     -500.258     -332.930       -8.557      288.595      238.603      132.259    83286.950    56931.453    17492.498       25.942        7.886      600.917      153.986        0.066      350.190       31.168      856.449
06/09/2014  16:57:00     -396.380     -193.712       -0.003      201.340      228.703       81.578    40537.816    52304.968     6655.032       14.705        4.975      441.182       91.552        0.043      350.364       31.469      856.469
06/09/2014  16:58:00     -443.498      -78.429       -9.265      273.746      198.998      113.409    74936.787    39600.253    12861.514       16.514        6.370      450.379      123.843        0.076      350.315       31.386      856.453
06/09/2014  16:59:00     -376.434      -15.561        2.851      183.883      145.160       97.841    33812.994    21071.296     9572.888       10.319        3.223      376.755      102.722        0.074      350.282       31.327      856.453
06/09/2014  17:00:00     -347.028     -268.675        4.336      297.784      206.987      129.450    88675.187    42843.779    16757.332       17.043        7.414      438.879      163.998        0.140      350.244       31.262      856.422
06/09/2014  17:01:00     -640.689     -333.752      -38.045      257.662      246.235      110.062    66389.908    60631.476    12113.602       33.120        6.957      722.407      111.231        0.024      350.161       31.116      856.423
06/09/2014  17:02:00     -514.302     -112.621      -23.066      253.015      195.097       90.942    64016.454    38062.663     8270.524       19.402        5.517      526.488      107.092        0.041      350.299       31.358      856.453
06/09/2014  17:03:00     -435.535      -32.691      -27.183      211.734      164.264       97.219    44831.359    26982.627     9451.438       13.637        4.063      436.760      105.326        0.058      350.309       31.374      856.431
06/09/2014  17:04:00     -613.476     -116.511      -49.266      227.279      193.568       93.652    51655.913    37468.561     8770.695       24.511        4.895      624.442      105.136        0.028      350.104       31.019      856.451
06/09/2014  17:05:00     -432.383     -127.418      -17.689      170.549      156.521       90.982    29086.899    24498.903     8277.714       13.267        3.093      450.766       86.935        0.037      350.198       31.182      856.440
06/09/2014  17:06:00     -417.773      -89.188      -11.465      198.062      168.503       91.077    39228.470    28393.412     8295.080       12.926        3.796      427.187       78.528        0.034      350.305       31.368      856.434
06/09/2014  17:07:00     -288.857     -127.938       -9.366      154.784      164.923       78.329    23958.165    27199.439     6135.397        7.858        2.865      315.922       74.042        0.055      350.417       31.563      856.451
06/09/2014  17:08:00     -607.746     -151.099      -34.800      313.438      196.197      101.211    98243.276    38493.218    10243.745       27.016        7.349      626.248      121.667        0.038      350.296       31.352      856.405
06/09/2014  17:09:00     -745.943     -177.021      -39.973      294.914      225.496      128.733    86974.457    50848.290    16572.180       37.185        7.720      766.660      142.527        0.035      350.231       31.239      856.361
06/09/2014  17:10:00     -317.675     -183.212       21.674      255.493      203.128      112.887    65276.540    41260.848    12743.434       12.710        5.964      366.721      126.413        0.119      350.221       31.223      856.458
06/09/2014  17:11:00     -382.407      -30.211      -15.982      170.873      163.050       90.336    29197.714    26585.419     8160.620       10.566        3.197      383.598       96.195        0.063      350.329       31.409      856.464
06/09/2014  17:12:00     -281.706      -97.322      -13.130      148.519      145.438       64.385    22057.828    21152.093     4145.398        6.817        2.368      298.044       41.004        0.019      350.387       31.509      856.450
06/09/2014  17:13:00     -317.093     -247.946       24.888      223.348      176.664      123.909    49884.463    31210.042    15353.414       12.953        4.822      402.523      141.421        0.123      350.321       31.396      856.482
06/09/2014  17:14:00     -465.320     -228.760        4.479      293.806      213.005      124.302    86321.973    45371.090    15451.079       20.798        7.357      518.511      142.041        0.075      350.195       31.178      856.495
06/09/2014  17:15:00     -461.795     -221.792      -20.926      266.194      170.046      116.819    70859.070    28915.749    13646.565       18.813        5.671      512.295      137.824        0.072      350.181       31.154      856.492
06/09/2014  17:16:00     -365.112      -45.125       -5.583      222.026      178.060      114.632    49295.502    31705.419    13140.590       11.474        4.707      367.890       91.917        0.062      350.251       31.275      856.475
06/09/2014  17:17:00     -516.910     -197.154      -10.252      243.197      199.591       98.184    59144.789    39836.370     9640.179       20.738        5.431      553.232      102.713        0.034      349.992       30.823      856.419
06/09/2014  17:18:00     -469.430     -331.582       -0.136      327.400      213.232      107.909   107190.610    45467.712    11644.251       24.728        8.215      574.727      130.924        0.052      350.086       30.986      856.417
06/09/2014  17:19:00     -458.163     -324.087        0.250      301.803      257.680      116.990    91085.195    66398.760    13686.605       24.303        8.559      561.200      132.990        0.056      350.117       31.041      856.432
06/09/2014  17:20:00     -505.839     -212.113      -24.334      253.046      233.999      116.505    64032.214    54755.352    13573.490       21.689        6.618      548.511      121.736        0.049      350.035       30.898      856.432
06/09/2014  17:21:00     -416.983     -109.907      -13.727      291.594      167.665       97.098    85027.327    28111.457     9427.985       15.433        6.128      431.224      135.307        0.098      350.151       31.100      856.463
06/09/2014  17:22:00     -362.232     -195.085        7.522      265.221      261.888      114.560    70342.062    68585.491    13124.035       16.066        7.603      411.424      141.075        0.118      350.243       31.260      856.473
06/09/2014  17:23:00     -552.337      -86.561      -33.278      273.761      253.288      114.867    74945.352    64154.608    13194.427       23.296        7.615      559.079      133.602        0.057      350.112       31.033      856.462
06/09/2014  17:24:00     -308.211     -188.485       -6.736      168.037      194.125       88.163    28236.280    37684.369     7772.726       10.212        3.685      361.277       88.394        0.060      350.274       31.315      856.451
06/09/2014  17:25:00     -436.769     -252.463      -18.875      197.599      166.595       90.630    39045.177    27753.784     8213.797       16.492        3.751      504.484      103.286        0.042      350.156       31.108      856.463
06/09/2014  17:26:00     -306.473     -184.336       12.186      208.852      150.872       81.706    43619.179    22762.407     6675.857       10.054        3.653      357.638       98.889        0.076      350.214       31.210      856.454
06/09/2014  17:27:00     -122.121      -69.916       27.234      155.912      124.537       73.976    24308.610    15509.420     5472.519        3.291        2.265      140.719       85.074        0.365      350.398       31.532      856.457
06/09/2014  17:28:00     -463.373     -241.086       -6.135      287.175      202.745      112.616    82469.259    41105.661    12682.380       20.454        6.813      522.338      127.052        0.059      350.197       31.179      856.458
06/09/2014  17:29:00     -427.778     -149.495      -13.763      265.901      139.702       86.409    70703.081    19516.748     7466.437       15.159        4.884      453.147      106.913        0.056      350.086       30.988      856.453
06/09/2014  17:30:00     -414.555     -160.386       -0.136      242.942      173.809       99.449    59020.946    30209.581     9890.036       14.833        4.956      444.499      113.489        0.065      350.095       31.003      856.439
06/09/2014  17:31:00     -498.754     -240.573       -7.962      313.981      202.566      108.941    98583.786    41032.934    11868.190       22.906        7.574      553.743      122.078        0.049      349.994       30.827      856.431
06/09/2014  17:32:00     -524.434     -246.429      -25.417      240.035      192.504      103.239    57617.032    37057.748    10658.337       22.085        5.267      579.446      109.985        0.036      350.036       30.900      856.450
06/09/2014  17:33:00     -447.209     -147.971      -22.584      220.607      165.945       90.505    48667.450    27537.728     8191.104       15.338        4.220      471.054       91.876        0.038      350.072       30.963      856.463
06/09/2014  17:34:00     -476.401      -93.133       -1.795      284.701      168.212      105.206    81054.756    28295.246    11068.208       17.801        6.021      485.419      138.160        0.081      350.017       30.868      856.428
06/09/2014  17:35:00     -452.329     -228.678       -5.035      308.077      204.652      135.952    94911.386    41882.541    18482.884       20.607        7.764      506.848      157.268        0.096      349.963       30.773      856.399
06/09/2014  17:36:00     -446.035     -203.549      -15.605      235.586      181.229       97.056    55500.881    32843.884     9419.903       16.918        4.888      490.285       97.177        0.039      350.021       30.874      856.394
06/09/2014  17:37:00     -486.647     -351.667       -4.286      300.455      246.600      132.899    90273.184    60811.727    17662.205       26.460        8.437      600.413      159.434        0.071      349.920       30.698      856.406
06/09/2014  17:38:00     -597.433     -193.852      -29.982      251.573      290.557      103.110    63289.015    84423.411    10631.586       27.685        7.917      628.096      106.468        0.029      349.903       30.669      856.434
06/09/2014  17:39:00     -409.224     -172.298       -0.062      269.178      226.375      124.401    72456.799    51245.609    15475.538       16.814        6.959      444.017      138.561        0.097      349.919       30.698      856.409
06/09/2014  17:40:00     -648.357     -371.773      -24.706      258.754      214.843      106.652    66953.773    46157.402    11374.569       34.182        6.224      747.383      115.208        0.024      349.874       30.618      856.373
06/09/2014  17:41:00     -409.758     -141.670      -26.467      272.032      216.660       90.175    74001.669    46941.558     8131.466       15.885        6.454      433.557      106.686        0.061      349.978       30.799      856.401
06/09/2014  17:42:00     -496.176     -245.467      -13.361      220.465      188.089       99.975    48604.680    35377.549     9995.074       20.028        4.699      553.575      113.906        0.042      350.024       30.880      856.365
06/09/2014  17:43:00     -452.120     -336.557      -12.901      281.498      229.488      116.332    79241.379    52664.831    13533.062       23.162        7.272      563.634      139.694        0.061      349.942       30.737      856.341
06/09/2014  17:44:00     -400.454     -146.464       -3.876      260.225      176.034       90.101    67716.795    30988.047     8118.137       14.431        5.341      426.398      111.642        0.069      350.018       30.869      856.375
06/09/2014  17:45:00     -469.074     -290.521      -12.099      320.370      224.493      131.119   102636.826    50397.204    17192.168       23.737        8.511      551.754      152.761        0.077      349.875       30.620      856.380
06/09/2014  17:46:00     -496.905     -276.151      -20.703      267.851      171.994      102.949    71744.197    29581.827    10598.563       21.774        5.596      568.484      116.353        0.042      349.897       30.659      856.368
06/09/2014  17:47:00     -472.911     -200.805      -26.994      278.859      189.903      102.401    77762.604    36063.134    10485.867       19.448        6.216      513.778      125.490        0.060      349.812       30.513      856.368
06/09/2014  17:48:00     -464.962     -325.771       -9.043      237.167      206.122      117.097    56248.336    42486.450    13711.795       21.740        5.622      567.729      133.380        0.055      349.845       30.569      856.314
06/09/2014  17:49:00     -240.438      -91.114        5.995      172.728      147.279       79.462    29834.811    21691.000     6314.136        6.198        2.892      257.123       92.221        0.129      350.059       30.940      856.304
06/09/2014  17:50:00     -141.968      -19.800       28.736      182.432      129.744       97.679    33281.406    16833.612     9541.240        4.050        2.983      143.342       90.920        0.402      350.191       31.170      856.323
06/09/2014  17:51:00     -380.783     -212.580       -2.111      299.483      189.001      113.699    89690.273    35721.358    12927.543       16.424        6.917      436.103      118.627        0.074      349.976       30.796      856.277
06/09/2014  17:52:00     -539.645     -301.334      -19.430      302.938      277.830      111.796    91771.399    77189.485    12498.246       28.190        9.073      618.077      121.750        0.039      349.887       30.642      856.239
06/09/2014  17:53:00     -656.429     -314.596      -22.815      275.836      175.589      102.374    76085.592    30831.580    10480.349       32.387        5.870      727.921      115.708        0.025      349.857       30.589      856.218
06/09/2014  17:54:00     -587.817     -307.621       -8.352      308.151      233.557      125.331    94957.256    54548.897    15707.794       30.269        8.261      663.445      149.685        0.051      349.882       30.633      856.220
06/09/2014  17:55:00     -543.598     -235.325      -33.222      216.689      227.968      102.193    46954.326    51969.292    10443.453       23.066        5.468      592.348       91.276        0.024      349.909       30.680      856.251
06/09/2014  17:56:00     -564.065     -277.876      -32.096      260.875      197.215      111.559    68055.849    38893.653    12445.344       25.788        5.970      628.796      120.479        0.037      349.895       30.657      856.246
06/09/2014  17:57:00     -571.515     -345.008      -39.365      289.082      207.938      123.148    83568.521    43238.107    15165.417       29.457        7.099      667.577      129.593        0.038      349.924       30.704      856.213
06/09/2014  17:58:00     -541.584     -111.972      -12.676      258.341      246.125      107.660    66739.844    60577.445    11590.638       22.244        6.945      553.038      124.714        0.051      349.973       30.791      856.256
06/09/2014  17:59:00     -557.308     -259.229      -23.490      239.844      216.643      108.787    57525.087    46934.106    11834.600       24.730        5.815      614.648      108.108        0.031      349.966       30.778      856.274
06/09/2014  18:00:00     -358.274     -241.836        4.705      311.744      239.049      119.070    97184.271    57144.384    14177.763       17.766        8.425      432.256      144.443        0.112      349.901       30.666      856.259
06/09/2014  18:01:00     -431.544     -198.527      -16.372      245.016      167.029       91.924    60032.894    27898.669     8450.095       16.113        4.819      475.019      109.617        0.053      349.900       30.663      856.290
06/09/2014  18:02:00     -249.900      -68.191        5.126      166.488      129.949       82.045    27718.268    16886.863     6731.365        5.922        2.567      259.037       87.939        0.115      349.932       30.720      856.280
06/09/2014  18:03:00     -324.354      -55.631        0.546      244.774      139.980       91.102    59914.159    19594.484     8299.568        9.804        4.390      329.090      114.671        0.121      350.002       30.842      856.241
06/09/2014  18:04:00     -446.502      -80.151       -7.801      240.692      186.808       98.654    57932.444    34897.407     9732.592       15.419        5.128      453.638      114.583        0.064      349.951       30.754      856.255
06/09/2014  18:05:00     -529.290     -163.409      -24.582      196.266      188.764       98.765    38520.478    35631.696     9754.439       19.567        4.195      553.941      105.204        0.036      349.912       30.686      856.268
06/09/2014  18:06:00     -401.005     -268.161       -7.006      275.589      186.015      103.056    75949.392    34601.455    10620.630       17.695        6.059      482.406      118.393        0.060      349.933       30.723      856.262
06/09/2014  18:07:00     -606.341     -178.978      -30.817      235.316      160.212      101.430    55373.499    25667.748    10288.058       24.597        4.566      632.205      100.869        0.025      349.804       30.498      856.238
06/09/2014  18:08:00     -216.044     -124.922       20.543      143.513      156.398       75.614    20596.043    24460.331     5717.417        5.673        2.539      249.561       77.656        0.097      349.933       30.723      856.268
06/09/2014  18:09:00     -371.800     -246.864        0.377      227.067      137.660       93.742    51559.349    18950.140     8787.596       13.922        3.965      446.292       97.205        0.047      349.863       30.600      856.222
06/09/2014  18:10:00     -360.583     -288.050       -3.612      227.316      177.275      103.492    51672.704    31426.540    10710.567       15.339        4.690      461.511      101.220        0.048      349.816       30.517      856.228
06/09/2014  18:11:00     -486.755     -295.974      -13.272      242.771      168.209      101.311    58937.816    28294.228    10263.838       21.109        4.875      569.676       95.166        0.028      349.751       30.405      856.220
06/09/2014  18:12:00     -467.106     -253.566        1.467      243.999      174.512       99.977    59535.509    30454.559     9995.493       19.122        4.999      531.492      118.737        0.050      349.764       30.427      856.251
06/09/2014  18:13:00     -317.062     -260.331      -15.760      201.498      172.513       89.961    40601.312    29760.659     8092.994       12.349        3.923      410.244       90.191        0.048      349.797       30.484      856.250
06/09/2014  18:14:00     -330.416     -156.479        1.891      148.298      154.511       73.661    21992.360    23873.644     5425.901        9.247        2.565      365.596       77.595        0.045      349.841       30.562      856.251
06/09/2014  18:15:00     -488.039     -377.560       -6.651      231.123      159.350      118.616    53417.677    25392.517    14069.732       23.681        4.644      617.036      136.959        0.049      349.784       30.461      856.212
06/09/2014  18:16:00     -370.529     -140.009      -21.697      198.291      121.144       80.834    39319.242    14675.890     6534.206       10.894        3.026      396.099       82.912        0.044      349.837       30.555      856.225
06/09/2014  18:17:00     -431.546     -281.709       12.652      209.980      189.758      114.763    44091.515    36008.230    13170.474       17.950        4.664      515.356      123.402        0.057      349.771       30.440      856.212
06/09/2014  18:18:00     -471.896     -206.175      -27.196      213.196      154.298       80.675    45452.568    23807.784     6508.535       17.084        3.788      514.970       83.619        0.026      349.816       30.516      856.209
06/09/2014  18:19:00     -472.750       -8.394       -3.070      225.851      264.241       98.066    51008.528    69823.250     9616.901       17.699        6.522      472.824       93.049        0.039      349.899       30.661      856.213
06/09/2014  18:20:00     -400.530      -93.060      -18.817      222.200      164.552       93.633    49372.863    27077.227     8767.119       12.731        4.261      411.199      106.120        0.067      349.902       30.667      856.214
06/09/2014  18:21:00     -652.472     -100.247      -12.078      220.796      145.812       80.777    48750.854    21261.038     6524.858       25.621        3.827      660.128       89.907        0.019      349.792       30.477      856.211
06/09/2014  18:22:00     -513.178     -136.743       -6.980      286.216      205.535      110.997    81919.603    42244.587    12320.240       20.927        6.824      531.084      133.264        0.063      349.800       30.490      856.153
06/09/2014  18:23:00     -533.725      -93.912       -7.771      239.228      157.044      102.149    57229.811    24662.822    10434.364       19.302        4.616      541.924      114.498        0.045      349.820       30.525      856.203
06/09/2014  18:24:00     -413.250     -148.571        5.696      258.065      176.472       82.855    66597.323    31142.500     6864.935       14.873        5.230      439.146      107.144        0.060      349.823       30.530      856.219
06/09/2014  18:25:00     -465.887     -203.130      -32.942      179.960      190.336       79.891    32385.624    36227.928     6382.623       16.718        3.750      508.244       68.245        0.018      349.838       30.556      856.245
06/09/2014  18:26:00     -428.317     -144.926      -14.560      167.362      161.775       81.983    28009.949    26171.178     6721.143       13.278        3.045      452.171       79.358        0.031      349.792       30.476      856.252
06/09/2014  18:27:00     -470.267      -99.061      -25.190      232.848      168.019       85.339    54218.202    28230.273     7282.730       16.065        4.487      480.587       97.746        0.041      349.753       30.408      856.212
06/09/2014  18:28:00     -330.619      -35.523       -9.177      264.501      171.844       90.287    69960.583    29530.210     8151.786       10.913        5.382      332.522      106.469        0.103      349.845       30.570      856.192
06/09/2014  18:29:00     -353.477      -76.197       -5.105      204.425      134.152       80.616    41789.703    17996.640     6498.979        9.852        3.314      361.596       91.448        0.064      349.852       30.582      856.203
06/09/2014  18:30:00     -319.691      -38.783       -1.065      198.892      159.512       93.038    39558.172    25444.228     8656.066        8.867        3.683      322.035      102.394        0.101      349.819       30.523      856.191
06/09/2014  18:31:00     -484.115      -56.003      -36.347      212.688      188.421      112.053    45236.001    35502.576    12555.854       16.604        4.665      487.343      112.000        0.053      349.766       30.431      856.163
06/09/2014  18:32:00     -703.690     -111.165      -66.682      289.419      180.721       96.855    83763.599    32660.015     9380.845       31.887        6.290      712.416      120.326        0.029      349.644       30.221      856.161
06/09/2014  18:33:00     -563.939     -140.640      -27.240      272.630      188.296       96.410    74327.070    35455.346     9294.953       22.879        5.954      581.212      106.182        0.033      349.731       30.371      856.147
06/09/2014  18:34:00     -489.782       -9.949      -21.757      221.444      157.011       87.079    49037.408    24652.530     7582.759       16.085        4.064      489.883       98.198        0.040      349.744       30.393      856.175
06/09/2014  18:35:00     -368.816     -146.334       -5.018      179.992      134.789       85.369    32397.117    18167.979     7287.950       10.765        2.893      396.786      103.003        0.067      349.755       30.413      856.165
06/09/2014  18:36:00     -462.944       10.725      -18.289      268.644      169.177       91.590    72169.729    28620.969     8388.777       16.195        5.459      463.068      117.639        0.065      349.696       30.310      856.156
06/09/2014  18:37:00     -352.258     -109.142      -11.701      183.010      201.363       91.443    33492.677    40547.143     8361.740       10.925        4.120      368.778       80.834        0.048      349.793       30.479      856.165
06/09/2014  18:38:00     -338.381     -140.854        0.753      224.999      201.653      103.632    50624.466    40663.825    10739.654       11.817        5.101      366.527      117.261        0.102      349.713       30.339      856.165
06/09/2014  18:39:00     -535.547      -89.704      -22.356      249.286      162.068      106.525    62143.409    26265.945    11347.674       19.754        4.988      543.008      117.675        0.047      349.684       30.288      856.197
06/09/2014  18:40:00     -263.619     -107.340        5.140      175.528      151.138       86.735    30810.129    22842.804     7522.975        7.110        3.059      284.635       86.951        0.093      349.720       30.352      856.212
06/09/2014  18:41:00     -354.179      -79.858        6.116      176.642      177.003       85.901    31202.438    31330.032     7378.993       10.087        3.496      363.071       71.274        0.039      349.706       30.327      856.245
06/09/2014  18:42:00     -504.642      -27.398      -10.107      254.198      163.177      103.749    64616.585    26626.666    10763.755       17.874        5.100      505.385      110.037        0.047      349.592       30.130      856.258
06/09/2014  18:43:00     -475.444      -89.020      -18.150      273.129      181.701      105.305    74599.244    33015.111    11089.152       17.648        5.935      483.706      128.451        0.071      349.556       30.065      856.255
06/09/2014  18:44:00     -429.029     -130.795      -14.803      240.335      181.941       95.300    57761.014    33102.658     9082.125       15.065        4.997      448.523       98.909        0.049      349.586       30.119      856.270
06/09/2014  18:45:00     -643.883     -291.026      -36.470      238.731      226.231      115.837    56992.655    51180.405    13418.275       31.108        6.080      706.599      112.734        0.025      349.428       29.844      856.276
06/09/2014  18:46:00     -300.135     -160.528       -3.475      204.905      211.408       89.651    41986.116    44693.471     8037.271       10.527        4.736      340.368       89.989        0.070      349.523       30.009      856.272
06/09/2014  18:47:00     -337.126      -43.274        2.441      174.524      149.247       78.608    30458.753    22274.698     6179.211        8.721        2.946      339.892       86.119        0.064      349.555       30.064      856.269
06/09/2014  18:48:00     -511.846     -122.885      -20.065      198.602      121.599       74.221    39442.647    14786.280     5508.764       16.860        2.987      526.391       82.500        0.025      349.512       29.990      856.279
06/09/2014  18:49:00     -360.226      -67.539      -18.090      192.378      117.237       78.167    37009.374    13744.464     6110.103        9.575        2.843      366.502       89.144        0.059      349.581       30.110      856.257
06/09/2014  18:50:00     -719.830      -30.356      -66.561      284.771      173.652      101.134    81094.269    30155.178    10228.179       32.247        6.074      720.470      120.303        0.028      349.470       29.916      856.274
06/09/2014  18:51:00     -736.566     -177.178      -44.178      250.191      196.176      115.434    62595.706    38484.878    13324.955       34.512        5.720      757.576      122.037        0.026      349.417       29.826      856.238
06/09/2014  18:52:00     -319.226      -91.785       13.803      261.936      212.227      112.455    68610.648    45040.326    12646.027       11.839        6.315      332.159      127.503        0.147      349.484       29.942      856.254
06/09/2014  18:53:00     -395.845     -244.263      -25.690      208.650      211.337       85.936    43534.763    44663.225     7384.957       15.628        4.779      465.143       92.340        0.039      349.450       29.884      856.287
06/09/2014  18:54:00     -314.418      -43.638      -12.543      146.262      160.561       77.340    21392.611    25779.709     5981.472        7.703        2.658      317.431       69.783        0.048      349.524       30.011      856.289
06/09/2014  18:55:00     -438.619       -6.730      -12.365      218.729      155.701       93.306    47842.367    24242.948     8705.926       13.667        4.040      438.671      107.001        0.059      349.494       29.960      856.302
06/09/2014  18:56:00     -631.036     -199.410      -23.148      301.550      210.864       99.136    90932.412    44463.530     9827.861       29.184        7.261      661.794      141.606        0.046      349.388       29.775      856.274
06/09/2014  18:57:00     -652.085     -107.282      -22.731      237.050      182.664      118.961    56192.798    33366.000    14151.604       27.046        5.186      660.851      136.010        0.042      349.408       29.809      856.307
06/09/2014  18:58:00     -605.919      -78.771      -50.440      193.293      172.120       96.736    37362.115    29625.284     9357.917       22.610        3.817      611.018       90.865        0.022      349.394       29.784      856.259
06/09/2014  18:59:00     -490.564      -42.196      -27.198      189.278      133.735       84.691    35826.161    17885.169     7172.623       15.202        3.044      492.376       95.684        0.038      349.431       29.850      856.295
06/09/2014  19:00:00     -420.718      -67.879      -37.327      186.122      145.169       83.120    34641.223    21073.914     6908.976       12.280        3.131      426.159       98.253        0.053      349.439       29.862      856.306
06/09/2014  19:01:00     -571.241     -110.956      -39.611      244.791      169.363      101.184    59922.447    28683.986    10238.145       21.950        4.942      581.917      112.702        0.038      349.368       29.741      856.302
06/09/2014  19:02:00     -478.724     -179.880      -26.520      216.107      170.388       96.025    46702.287    29031.910     9220.809       17.358        4.248      511.403      107.605        0.044      349.389       29.776      856.320
06/09/2014  19:03:00     -127.453      -61.304       29.893      151.748      132.002       77.082    23027.419    17424.401     5941.591        3.364        2.320      141.430       85.475        0.365      349.436       29.860      856.323
06/09/2014  19:04:00     -289.805     -117.570       12.534      159.493      151.803       81.494    25437.973    23044.295     6641.251        7.654        2.756      312.745       77.647        0.062      349.408       29.812      856.345
06/09/2014  19:05:00     -463.967     -227.473       -7.937      280.760      232.649      113.003    78826.292    54125.458    12769.730       20.637        7.286      516.729      130.392        0.064      349.317       29.654      856.331
06/09/2014  19:06:00     -539.406     -130.001      -45.863      188.181      216.348      100.649    35412.147    46806.494    10130.237       20.114        4.617      554.850       90.893        0.027      349.291       29.609      856.352
06/09/2014  19:07:00     -397.654      -46.018       -5.128      252.451      209.512      100.711    63731.413    43895.450    10142.675       13.900        5.888      400.307      107.726        0.072      349.328       29.673      856.339
06/09/2014  19:08:00     -319.710     -105.569       -8.262      197.671      185.162       91.225    39073.942    34285.068     8322.084        9.754        4.084      336.688       92.468        0.075      349.312       29.644      856.349
06/09/2014  19:09:00     -347.128     -167.954      -13.699      208.710      171.495       79.087    43559.937    29410.527     6254.731       11.405        3.961      385.625       81.104        0.044      349.273       29.577      856.349
06/09/2014  19:10:00     -292.872      -84.537       -0.164      239.868      191.221       95.739    57536.831    36565.475     9165.919        9.808        5.163      304.829      103.430        0.115      349.334       29.682      856.356
06/09/2014  19:11:00     -377.599     -126.932      -14.131      239.182      213.625      108.513    57207.933    45635.702    11775.142       13.674        5.731      398.362      123.845        0.097      349.290       29.606      856.337
06/09/2014  19:12:00     -446.669     -126.576       -9.359      246.776      177.183      108.899    60898.599    31393.789    11858.967       15.987        5.208      464.257      124.043        0.071      349.262       29.557      856.367
06/09/2014  19:13:00     -418.572     -127.669      -18.928      270.145      186.246      103.351    72978.142    34687.610    10681.473       15.508        5.917      437.610      126.454        0.084      349.252       29.539      856.355
06/09/2014  19:14:00     -190.540      -19.386       17.755      186.243      131.247       99.054    34686.491    17225.658     9811.791        4.935        3.086      191.524       98.405        0.264      349.206       29.463      856.342
06/09/2014  19:15:00     -488.970      -72.298      -33.006      286.013      164.949       90.455    81803.244    27208.180     8182.047       18.128        5.860      494.286      118.429        0.057      349.226       29.495      856.365
06/09/2014  19:16:00     -607.603      -93.226      -59.098      226.651      208.769      108.292    51370.532    43584.469    11727.057       24.401        5.334      614.714      117.319        0.036      349.189       29.430      856.340
06/09/2014  19:17:00     -398.063     -154.183      -12.562      218.884      184.715       90.399    47910.062    34119.583     8172.044       13.628        4.510      426.880      104.498        0.060      349.197       29.445      856.338
06/09/2014  19:18:00     -341.436      -52.569        0.339      236.176      172.063       93.123    55778.903    29605.615     8671.939       10.668        4.703      345.459       82.820        0.057      349.211       29.470      856.374
06/09/2014  19:19:00     -468.531      -52.601      -28.696      261.914      133.761       94.394    68599.178    17892.082     8910.223       15.924        4.770      471.475      121.070        0.066      349.214       29.473      856.370
06/09/2014  19:20:00     -432.713     -100.963       -9.357      264.242      149.236      101.245    69823.838    22271.397    10250.451       14.992        5.117      444.335      119.509        0.072      349.161       29.382      856.380
06/09/2014  19:21:00     -339.332     -108.362        8.873      232.356      164.159       89.231    53989.150    26948.283     7962.189       10.792        4.445      356.215       84.579        0.056      349.186       29.426      856.423
06/09/2014  19:22:00     -366.192      -53.011      -22.927      188.053      130.362       72.664    35363.857    16994.132     5280.060        9.753        2.882      370.009       85.439        0.053      349.190       29.431      856.454
06/09/2014  19:23:00     -449.152     -131.255      -12.068      174.883      169.294       83.730    30584.027    28660.435     7010.631       14.267        3.313      467.938       88.224        0.036      349.118       29.307      856.435
06/09/2014  19:24:00     -420.892     -122.762      -19.906      152.477      164.452       78.001    23249.231    27044.600     6084.212       12.449        2.819      438.430       64.964        0.022      349.119       29.308      856.472
06/09/2014  19:25:00     -258.453       -6.711        3.940      171.265      129.968       75.218    29331.770    16891.661     5657.715        5.936        2.594      258.540       90.913        0.124      349.121       29.313      856.459
06/09/2014  19:26:00     -325.523       -9.887      -10.596      293.476      112.832       81.924    86128.392    12731.082     6711.530       10.586        5.279      325.673      128.708        0.156      349.089       29.258      856.448
06/09/2014  19:27:00     -400.151      -89.124       -7.303      250.362      214.997       98.968    62680.936    46223.630     9794.574       14.339        5.935      409.956      114.789        0.078      349.083       29.246      856.409
06/09/2014  19:28:00     -439.514      -50.737      -20.325      284.867      156.255       98.177    81149.175    24415.595     9638.778       15.566        5.760      442.433      134.850        0.093      349.065       29.215      856.399
06/09/2014  19:29:00     -446.364     -153.551      -13.900      225.590      183.500      108.097    50890.915    33672.173    11684.921       15.961        4.812      472.036      118.222        0.063      349.046       29.182      856.371
06/09/2014  19:30:00     -555.480     -169.466      -30.394      256.923      173.470      104.093    66009.584    30091.958    10835.363       22.255        5.347      580.755      124.211        0.046      349.026       29.148      856.360
06/09/2014  19:31:00     -437.133      -47.732      -27.705      183.293      165.156       88.112    33596.383    27276.399     7763.660       13.137        3.432      439.731       78.463        0.032      349.053       29.194      856.375
06/09/2014  19:32:00     -231.422      -45.764       -3.446      169.252      161.585       87.265    28646.252    26109.819     7615.133        5.901        3.119      235.903       75.632        0.103      349.079       29.239      856.367
06/09/2014  19:33:00     -551.892     -151.850      -37.661      318.389      218.506      104.805   101371.341    47744.678    10983.992       24.455        8.005      572.401      119.965        0.044      349.021       29.140      856.372
06/09/2014  19:34:00     -444.332     -110.478      -11.033      221.696      143.800       81.452    49149.066    20678.357     6634.476       14.310        3.823      457.861       93.277        0.042      349.025       29.147      856.413
06/09/2014  19:35:00     -323.569      -97.368      -15.568      218.892      183.742      100.406    47913.735    33760.967    10081.329       10.307        4.588      337.902      111.903        0.110      349.012       29.126      856.447
06/09/2014  19:36:00     -345.739     -126.460      -21.229      142.895      153.277       78.133    20418.924    23493.990     6104.757        9.299        2.501      368.140       68.273        0.034      349.011       29.124      856.478
06/09/2014  19:37:00     -286.840      -19.706       -1.264      175.882      154.899       88.828    30934.490    23993.550     7890.332        7.273        3.141      287.517       79.632        0.077      349.012       29.123      856.486
06/09/2014  19:38:00     -634.187     -108.571      -30.187      183.912      163.351       91.528    33823.640    26683.494     8377.415       24.188        3.444      643.414       93.755        0.021      348.949       29.017      856.470
06/09/2014  19:39:00     -255.457      -60.654       12.762      202.176      149.328       87.757    40875.281    22298.759     7701.204        6.998        3.544      262.558      106.772        0.165      348.968       29.047      856.494
06/09/2014  19:40:00     -251.972     -237.035       12.935      244.202      220.214      114.757    59634.779    48494.316    13169.158       12.055        6.065      345.942      134.759        0.152      348.930       28.982      856.471
06/09/2014  19:41:00     -327.565      -89.877        1.503      242.622      162.186      103.556    58865.449    26304.189    10723.873       10.562        4.795      339.671      125.865        0.137      348.921       28.966      856.482
06/09/2014  19:42:00     -439.959      -49.434      -23.462      244.322      160.605       86.509    59693.280    25794.033     7483.780       14.475        4.649      442.727      104.947        0.056      348.893       28.918      856.459
06/09/2014  19:43:00     -318.880     -138.148       -0.257      243.501      152.940       95.836    59292.582    23390.741     9184.455       10.630        4.593      347.519      110.930        0.102      348.866       28.871      856.456
06/09/2014  19:44:00     -539.158     -116.179      -38.923      193.123      167.080       87.139    37296.670    27915.573     7593.214       18.924        3.640      551.533       97.853        0.031      348.883       28.901      856.439
06/09/2014  19:45:00     -436.545     -178.245      -15.073      290.547      196.277      103.969    84417.527    38524.764    10809.530       17.814        6.688      471.532      122.848        0.068      348.860       28.861      856.430
06/09/2014  19:46:00     -605.576      -87.692      -13.877      254.949      227.981      114.440    64998.828    51975.239    13096.598       25.232        6.504      611.892      123.872        0.041      348.840       28.825      856.423
06/09/2014  19:47:00     -444.098      -77.735      -15.129      234.330      182.681      117.910    54910.639    33372.269    13902.692       15.282        5.109      450.850      112.587        0.062      348.835       28.815      856.440
06/09/2014  19:48:00     -300.187      -79.010       -0.909      215.724      118.064       75.931    46536.783    13939.119     5765.483        8.129        3.312      310.411       92.335        0.088      348.807       28.768      856.446
06/09/2014  19:49:00     -198.827      -40.846       -5.456      200.976      133.637       90.911    40391.495    17858.840     8264.736        5.386        3.326      202.979       99.729        0.241      348.812       28.778      856.409
06/09/2014  19:50:00     -438.727      -62.300       -6.243      230.619      161.604       92.394    53185.261    26115.882     8536.684       14.211        4.392      443.128       96.231        0.047      348.771       28.706      856.382
06/09/2014  19:51:00     -401.579      -79.556      -11.835      216.542      207.341       92.164    46890.328    42990.146     8494.132       13.304        4.919      409.384       95.569        0.054      348.736       28.647      856.360
06/09/2014  19:52:00     -539.029     -110.906      -16.146      225.497      166.088      107.608    50848.857    27585.206    11579.557       19.655        4.501      550.320      113.387        0.042      348.713       28.607      856.356
06/09/2014  19:53:00     -411.153     -129.551       -3.509      269.666      169.619       96.280    72719.802    28770.439     9269.823       14.828        5.538      431.080      112.568        0.068      348.696       28.579      856.374
06/09/2014  19:54:00     -463.887     -120.817      -16.330      230.801      208.553      122.711    53268.991    43494.429    15057.894       17.092        5.591      479.362      128.835        0.072      348.681       28.551      856.383
06/09/2014  19:55:00     -391.919     -208.447      -17.224      209.274      189.715      118.667    43795.491    35991.621    14081.756       14.559        4.693      443.904      116.801        0.069      348.681       28.552      856.374
06/09/2014  19:56:00     -412.248     -187.337       -7.629      200.673      165.743       89.925    40269.555    27470.787     8086.541       14.045        3.791      452.818       92.628        0.042      348.659       28.513      856.405
06/09/2014  19:57:00     -429.988     -203.855      -10.095      206.151      209.160      113.420    42498.383    43747.916    12864.089       16.281        4.956      475.864      126.188        0.070      348.644       28.488      856.376
06/09/2014  19:58:00     -393.649     -155.300       -0.509      171.168      149.374       87.641    29298.421    22312.632     7680.921       11.917        2.965      423.176       87.666        0.043      348.630       28.463      856.420
06/09/2014  19:59:00     -468.556      -49.597      -13.599      221.295      143.020       97.353    48971.547    20454.634     9477.662       15.053        3.945      471.174       99.980        0.045      348.611       28.430      856.437
06/09/2014  20:00:00     -393.237     -150.936       -6.868      203.326      195.420      100.361    41341.394    38189.084    10072.415       13.352        4.480      421.209      106.055        0.063      348.627       28.456      856.469
06/09/2014  20:01:00     -501.938      -82.628      -13.008      229.700      143.242       92.116    52762.253    20518.242     8485.400       17.034        4.088      508.694      101.245        0.040      348.625       28.455      856.494
06/09/2014  20:02:00     -313.476     -212.840        4.430      259.672      164.941      102.716    67429.705    27205.393    10550.637       12.437        5.259      378.904      115.165        0.092      348.607       28.424      856.494
06/09/2014  20:03:00     -405.079     -137.427      -20.657      153.144      116.836       66.015    23453.218    13650.716     4357.977       11.242        2.073      427.756       61.715        0.021      348.603       28.416      856.516
06/09/2014  20:04:00     -425.189      -56.743      -17.328      201.054      161.735       79.366    40422.893    26158.372     6298.984       12.858        3.644      428.958       90.858        0.045      348.577       28.371      856.513
06/09/2014  20:05:00     -344.265     -143.632       -8.027      166.843      167.116       80.498    27836.719    27927.894     6479.906       10.072        3.112      373.026       91.763        0.061      348.565       28.349      856.526
06/09/2014  20:06:00     -511.342     -219.080      -34.166      215.117      172.148       94.223    46275.274    29635.023     8877.999       19.770        4.239      556.297       93.233        0.028      348.558       28.338      856.521
06/09/2014  20:07:00     -630.112      -43.951      -22.424      246.073      153.315       95.968    60551.993    23505.367     9209.825       24.636        4.663      631.643      112.288        0.032      348.538       28.302      856.524
06/09/2014  20:08:00     -317.682     -182.210       -5.560      179.699      142.559       81.594    32291.898    20323.115     6657.656        9.670        2.964      366.227       90.525        0.061      348.533       28.294      856.550
06/09/2014  20:09:00     -391.658     -161.781       -3.039      237.867      158.630       79.285    56580.472    25163.500     6286.099       13.379        4.402      423.756       83.009        0.038      348.556       28.333      856.555
06/09/2014  20:10:00     -415.289      -79.246      -15.430      203.592      159.753       95.059    41449.561    25520.945     9036.224       12.748        3.800      422.783      106.902        0.064      348.531       28.291      856.576
06/09/2014  20:11:00     -201.231      -26.526        4.480      113.216      100.850       58.533    12817.875    10170.732     3426.072        3.381        1.321      202.972       52.974        0.068      348.482       28.208      856.593
06/09/2014  20:12:00     -275.329     -114.875       -6.984      136.558      104.282       61.893    18647.971    10874.809     3830.744        6.120        1.668      298.333       65.575        0.048      348.475       28.195      856.586
06/09/2014  20:13:00     -201.277      -93.921        2.441      143.329      107.633       49.168    20543.162    11584.901     2417.505        4.194        1.727      222.112       54.881        0.061      348.447       28.146      856.609
06/09/2014  20:14:00     -227.238     -130.229        2.823      156.032      128.734       87.575    24346.057    16572.560     7669.369        5.859        2.429      261.910       79.380        0.092      348.412       28.087      856.586
06/09/2014  20:15:00     -484.122     -137.283      -38.150      165.220      179.395       84.698    27297.539    32182.487     7173.810       16.065        3.333      503.211       77.269        0.024      348.470       28.186      856.599
06/09/2014  20:16:00     -243.879     -127.251       -1.343      130.901      118.687       66.872    17134.975    14086.643     4471.881        5.568        1.785      275.082       67.380        0.060      348.421       28.102      856.610
06/09/2014  20:17:00     -360.881     -183.695      -31.437      171.544      155.809       71.317    29427.410    24276.459     5086.108       11.187        2.939      404.943       77.055        0.036      348.416       28.093      856.608
06/09/2014  20:18:00     -228.259      -61.165       -4.153      126.969      134.606       79.743    16121.102    18118.834     6358.985        4.822        2.030      236.312       72.173        0.093      348.389       28.046      856.609
06/09/2014  20:19:00     -488.284      -78.571       -6.030      247.864      186.977       93.087    61436.727    34960.291     8665.208       17.483        5.253      494.565      113.464        0.053      348.402       28.068      856.605
06/09/2014  20:20:00     -281.351      -89.640       11.536      169.634      171.889       96.692    28775.601    29545.712     9349.335        7.749        3.384      295.286       87.982        0.089      348.389       28.045      856.629
06/09/2014  20:21:00     -294.939     -147.384        6.754      172.329      184.088       89.402    29697.256    33888.256     7992.721        9.016        3.579      329.713       84.936        0.066      348.388       28.044      856.649
06/09/2014  20:22:00     -317.105     -135.200       16.848      248.279      171.868       93.776    61642.633    29538.570     8793.961       10.953        4.999      344.724      120.757        0.123      348.370       28.014      856.636
06/09/2014  20:23:00     -410.988     -172.484       -0.299      172.622      171.448       84.079    29798.470    29394.287     7069.339       13.245        3.313      445.715       93.591        0.044      348.405       28.074      856.663
06/09/2014  20:24:00     -307.794     -116.348        4.257      210.972      165.838       95.083    44509.223    27502.364     9040.683        9.466        4.053      329.050       93.507        0.081      348.381       28.032      856.653
06/09/2014  20:25:00     -358.175      -75.618       -5.749      212.798      153.242       93.701    45283.189    23483.005     8779.904       10.578        3.877      366.070      112.404        0.094      348.358       27.991      856.660
06/09/2014  20:26:00     -359.177     -154.296       -5.781      167.936      157.972       93.170    28202.573    24955.114     8680.669       10.733        3.092      390.916       91.354        0.055      348.330       27.943      856.722
06/09/2014  20:27:00     -361.720     -228.164      -19.182      205.430      151.189       82.872    42201.438    22858.110     6867.832       12.759        3.596      427.668       96.094        0.050      348.339       27.960      856.722
06/09/2014  20:28:00     -266.613     -160.581       -2.471      181.573      128.324       88.402    32968.906    16467.168     7814.900        7.705        2.863      311.237       98.383        0.100      348.286       27.868      856.749
06/09/2014  20:29:00     -215.969      -85.695       15.515      179.193      138.418       84.449    32110.036    19159.552     7131.694        5.630        2.920      232.350       86.493        0.139      348.275       27.847      856.763
06/09/2014  20:30:00     -348.889     -185.751       -1.990      201.740      173.214       93.679    40699.006    30003.066     8775.836       11.784        3.974      395.256      104.187        0.069      348.294       27.881      856.757
06/09/2014  20:31:00     -442.906     -105.246      -20.527      240.258      180.711      106.525    57723.720    32656.383    11347.497       15.468        5.086      455.239      119.466        0.069      348.299       27.890      856.780
06/09/2014  20:32:00     -356.514     -160.427      -11.144      223.005      170.665      101.967    49731.387    29126.636    10397.254       12.109        4.463      390.946      112.559        0.083      348.320       27.925      856.783
06/09/2014  20:33:00     -426.584     -214.654       -8.613      227.518      171.647       88.117    51764.403    29462.844     7764.573       15.854        4.450      477.546      107.180        0.050      348.332       27.947      856.792
06/09/2014  20:34:00     -465.082     -311.226      -11.626      233.866      173.206      116.567    54693.220    30000.145    13587.945       20.577        4.914      559.609      122.825        0.048      348.323       27.931      856.793
06/09/2014  20:35:00     -359.127     -142.107        8.508      273.767      170.054      114.371    74948.204    28918.439    13080.828       13.307        5.847      386.221      143.465        0.138      348.292       27.878      856.812
06/09/2014  20:36:00     -435.603     -221.897      -12.678      208.910      161.735       96.234    43643.187    26158.105     9260.911       15.909        3.953      488.865      116.814        0.057      348.288       27.871      856.854
06/09/2014  20:37:00     -483.638     -266.378      -26.801      212.050      154.419       79.799    44965.257    23845.168     6367.937       19.037        3.759      552.144       81.255        0.022      348.288       27.870      856.854
06/09/2014  20:38:00     -384.570     -166.598      -15.395      248.786      151.762       88.872    61894.488    23031.569     7898.216       13.434        4.641      419.105      112.492        0.072      348.263       27.828      856.879
06/09/2014  20:39:00     -425.807     -220.329       -1.900      209.740      170.198       91.949    43990.988    28967.269     8454.584       15.562        4.071      479.434       95.744        0.040      348.285       27.865      856.884
06/09/2014  20:40:00     -341.491     -217.020       -3.862      228.149      154.762       93.995    52052.192    23951.262     8835.121       12.427        4.242      404.615      107.784        0.071      348.233       27.775      856.894
06/09/2014  20:41:00     -252.495     -125.918       -9.703      177.790      107.263       79.252    31609.263    11505.246     6280.907        6.454        2.470      282.151       81.825        0.084      348.216       27.747      856.911
06/09/2014  20:42:00     -313.156      -98.378       -8.359      216.396      148.443       94.363    46827.184    22035.420     8904.439        9.278        3.888      328.246      105.949        0.104      348.188       27.699      856.913
06/09/2014  20:43:00     -393.384     -125.018      -19.766      163.316      172.779       84.561    26672.097    29852.527     7150.639       11.721        3.184      412.772       93.804        0.052      348.209       27.733      856.932
06/09/2014  20:44:00     -305.874     -191.802       10.413      227.389      186.717       89.268    51705.909    34863.303     7968.734       11.248        4.727      361.036      111.696        0.096      348.184       27.692      856.938
06/09/2014  20:45:00     -285.745     -111.522        2.213      164.729      122.587       64.222    27135.727    15027.493     4124.452        7.018        2.314      306.736       67.744        0.049      348.148       27.629      856.939
06/09/2014  20:46:00     -249.355      -48.578       -4.853      123.019      111.511       46.639    15133.621    12434.704     2175.199        4.715        1.487      254.042       49.520        0.038      348.090       27.530      856.926
06/09/2014  20:47:00     -318.187     -162.100       -7.058      155.618      136.494       68.567    24216.900    18630.495     4701.462        8.755        2.377      357.099       71.263        0.040      348.108       27.559      856.927
06/09/2014  20:48:00     -271.983     -171.762      -26.203      154.141      115.852       85.772    23759.344    13421.649     7356.751        7.434        2.227      321.678       82.055        0.065      348.072       27.497      856.910
06/09/2014  20:49:00     -245.490     -120.621      -11.350      149.646      108.130       69.334    22393.905    11692.140     4807.141        5.691        1.945      273.523       68.219        0.062      348.021       27.410      856.908
06/09/2014  20:50:00     -337.079     -184.075      -18.639      123.548      124.174       72.111    15264.016    15419.067     5200.051        9.186        1.794      384.065       67.526        0.031      347.990       27.356      856.901
06/09/2014  20:51:00     -196.472     -116.858       14.087      195.921      139.029       74.562    38385.051    19328.988     5559.445        5.785        3.164      228.598       81.981        0.129      347.928       27.250      856.866
06/09/2014  20:52:00     -198.761      -46.070      -14.811      128.115       86.075       57.977    16413.499     7408.905     3361.370        3.451        1.359      204.031       58.537        0.082      347.928       27.250      856.873
06/09/2014  20:53:00     -361.479      -27.993       -5.362      138.961      139.341       73.998    19310.133    19415.804     5475.731        8.783        2.210      362.561       72.056        0.039      347.918       27.232      856.858
06/09/2014  20:54:00     -327.784      -97.281       -4.055      153.974      127.141       72.354    23708.066    16164.900     5235.056        8.101        2.255      341.915       73.612        0.046      347.899       27.199      856.846
06/09/2014  20:55:00     -359.358     -129.541       -1.946      202.877      139.289       77.239    41159.191    19401.428     5965.786       10.621        3.326      381.993       83.783        0.048      347.919       27.235      856.840
06/09/2014  20:56:00     -382.610      -89.664      -27.668      184.573      108.945       80.109    34067.221    11868.905     6417.440       10.377        2.618      392.976       98.033        0.062      347.919       27.232      856.820
06/09/2014  20:57:00     -258.532     -144.363        0.827      213.020      168.495       92.430    45377.705    28390.585     8543.216        8.498        4.116      296.107      112.215        0.144      347.898       27.199      856.827
06/09/2014  20:58:00     -365.013     -187.523      -28.136      113.697      111.342       64.371    12926.907    12396.930     4143.635        9.932        1.473      410.365       51.606        0.016      347.932       27.255      856.832
06/09/2014  20:59:00     -326.452      -66.737       -7.593      181.369      160.294       87.130    32894.794    25694.117     7591.709        8.862        3.309      333.204       93.601        0.079      347.855       27.124      856.830
06/09/2014  21:00:00     -298.780     -150.357      -11.448      139.586      119.711       67.344    19484.294    14330.756     4535.281        7.517        1.918      334.480       61.070        0.033      347.828       27.074      856.845
06/09/2014  21:01:00     -175.378      -63.746        7.358      145.322      135.767       68.101    21118.389    18432.604     4637.718        3.952        2.209      186.604       73.419        0.155      347.777       26.988      856.832
06/09/2014  21:02:00     -303.457      -91.959        5.170      226.360      151.310       89.435    51238.817    22894.604     7998.622        9.134        4.107      317.085      103.703        0.107      347.842       27.099      856.836
06/09/2014  21:03:00     -331.551     -153.799      -21.757      117.243      133.435       68.282    13745.944    17804.783     4662.479        8.513        1.811      365.486       64.153        0.031      347.843       27.101      856.861
06/09/2014  21:04:00     -304.125     -168.527        9.244      178.126      155.317       85.922    31728.788    24123.234     7382.648        9.210        3.162      347.697       97.244        0.078      347.798       27.025      856.874
06/09/2014  21:05:00     -368.726     -109.652        1.264      217.661      170.047       88.595    47376.486    28915.849     7849.035       11.605        4.207      384.685      107.209        0.078      347.821       27.063      856.886
06/09/2014  21:06:00     -338.109     -170.252      -20.745      159.953      132.866       79.293    25585.105    17653.416     6287.307        9.662        2.476      378.554       77.068        0.041      347.834       27.086      856.898
06/09/2014  21:07:00     -303.425     -136.862      -14.192      152.763      129.925       70.580    23336.537    16880.525     4981.592        7.809        2.260      332.863       71.327        0.046      347.846       27.107      856.903
06/09/2014  21:08:00     -196.097     -147.701        5.369      158.920      116.933       73.135    25255.540    13673.320     5348.761        5.228        2.214      245.499       77.024        0.098      347.781       26.995      856.912
06/09/2014  21:09:00     -371.412     -185.763       -9.760      291.028      166.582       95.028    84697.280    27749.715     9030.310       14.699        6.074      415.277      132.001        0.101      347.819       27.061      856.917
06/09/2014  21:10:00     -298.789      -37.241      -18.366      175.201      126.454       66.159    30695.474    15990.704     4377.004        7.102        2.553      301.101       66.731        0.049      347.790       27.010      856.930
06/09/2014  21:11:00     -478.944     -253.643      -11.756      165.430      172.347       95.999    27367.142    29703.610     9215.713       18.006        3.314      541.961       93.352        0.030      347.868       27.145      856.929
06/09/2014  21:12:00     -443.768      -74.503      -20.674      218.683      174.923       84.870    47822.227    30597.948     7202.884       14.425        4.281      449.979      108.623        0.058      347.843       27.102      856.936
06/09/2014  21:13:00     -405.949     -139.281      -23.859      108.602      147.816       64.543    11794.409    21849.648     4165.763       11.128        1.890      429.178       60.485        0.020      347.861       27.133      856.967
06/09/2014  21:14:00     -365.072     -259.145      -18.525      190.121      177.861       93.019    36146.104    31634.507     8652.527       13.859        3.822      447.698      108.687        0.059      347.881       27.168      856.963
06/09/2014  21:15:00     -261.198     -121.088       15.917      162.384      133.538       76.523    26368.651    17832.305     5855.724        6.659        2.503      287.901       86.160        0.090      347.793       27.017      856.996
06/09/2014  21:16:00     -393.552     -134.670       -9.670      165.275      145.752       68.424    27315.728    21243.607     4681.886       11.317        2.662      415.956       78.609        0.036      347.772       26.980      857.006
06/09/2014  21:17:00     -238.620     -130.566        6.639      150.323      152.769       80.447    22596.922    23338.440     6471.742        6.321        2.620      272.006       75.145        0.076      347.739       26.924      857.030
06/09/2014  21:18:00     -347.525     -136.343      -14.603      205.441      143.770       70.512    42206.160    20669.917     4971.978       10.370        3.392      373.313       77.506        0.043      347.715       26.882      857.052
06/09/2014  21:19:00     -291.966     -132.695      -13.605      199.304      132.450       84.364    39721.913    17542.911     7117.310        8.370        3.219      320.705       81.482        0.065      347.710       26.873      857.070
06/09/2014  21:20:00     -330.586      -71.354       -7.445      178.302      147.442       75.139    31791.569    21739.040     5645.923        8.680        2.959      338.199       77.234        0.052      347.669       26.803      857.080
06/09/2014  21:21:00     -437.121      -73.485      -17.400      132.664      115.662       76.405    17599.797    13377.772     5837.738       11.679        1.841      443.255       71.606        0.026      347.673       26.808      857.106
06/09/2014  21:22:00     -258.549      -90.165       -2.438      149.701      106.588       69.389    22410.402    11360.902     4814.836        5.678        1.929      273.820       75.168        0.075      347.646       26.762      857.129
06/09/2014  21:23:00     -264.198      -82.674        0.607      239.891      133.836       80.689    57547.646    17912.073     6510.724        7.929        4.099      276.831      113.502        0.168      347.611       26.702      857.144
06/09/2014  21:24:00     -269.627     -156.526       -1.540      136.237      109.234       61.070    18560.391    11932.011     3729.520        6.571        1.711      311.768       67.088        0.046      347.604       26.692      857.176
06/09/2014  21:25:00     -177.091      -94.297       11.751      147.884      122.362       79.554    21869.652    14972.498     6328.830        4.177        2.159      200.632       69.073        0.119      347.576       26.643      857.210
06/09/2014  21:26:00     -330.044      -98.379       -3.782      194.150      137.772       79.942    37694.093    18981.181     6390.735        9.083        3.153      344.394       93.316        0.073      347.565       26.624      857.247
06/09/2014  21:27:00     -278.554      -38.535        4.327      125.502      105.344       72.060    15750.640    11097.272     5192.602        5.556        1.602      281.207       72.062        0.066      347.574       26.639      857.272
06/09/2014  21:28:00     -286.748      -59.048       -8.778      141.965      108.524       70.583    20154.064    11777.466     4981.974        6.134        1.846      292.764       74.037        0.064      347.557       26.611      857.275
06/09/2014  21:29:00     -200.930      -62.762       -2.027      103.203      105.948       49.313    10650.809    11224.877     2431.784        3.431        1.215      210.504       40.703        0.037      347.496       26.504      857.286
06/09/2014  21:30:00     -330.645      -84.540      -11.806      150.012      141.115       67.158    22503.666    19913.366     4510.220        8.176        2.346      341.282       59.700        0.031      347.532       26.567      857.294
06/09/2014  21:31:00     -317.708       -9.491        2.481      165.376      124.090       75.266    27349.347    15398.310     5664.982        7.472        2.421      317.850       77.531        0.059      347.517       26.540      857.304
06/09/2014  21:32:00     -284.563      -84.033       -5.751      111.067       85.236       49.639    12335.875     7265.146     2464.079        5.506        1.103      296.711       45.326        0.023      347.518       26.541      857.342
06/09/2014  21:33:00     -183.807      -91.825        4.404      146.664       83.356       62.915    21510.461     6948.166     3958.282        3.732        1.621      205.467       63.510        0.096      347.478       26.473      857.352
06/09/2014  21:34:00     -262.215     -122.755        1.957      124.614      117.274       65.479    15528.710    13753.147     4287.522        5.869        1.678      289.527       74.604        0.066      347.484       26.482      857.361
06/09/2014  21:35:00     -319.618      -68.442      -11.682      124.741       85.639       68.473    15560.210     7333.987     4688.495        6.728        1.379      326.864       69.157        0.045      347.449       26.421      857.363
06/09/2014  21:36:00     -265.916      -74.918      -12.075      139.213      102.396       56.923    19380.188    10485.040     3240.259        5.478        1.655      276.268       61.926        0.050      347.434       26.395      857.358
06/09/2014  21:37:00     -255.713      -62.737       -8.331       91.787       77.349       49.536     8424.914     5982.924     2453.863        4.313        0.843      263.296       35.965        0.019      347.393       26.327      857.345
06/09/2014  21:38:00     -169.204      -69.052        5.269       84.421       98.036       51.441     7126.865     9611.084     2646.186        2.640        0.969      182.751       46.289        0.064      347.312       26.188      857.377
06/09/2014  21:39:00     -219.597      -22.285      -10.813      107.456       84.166       55.926    11546.758     7083.842     3127.731        3.529        1.088      220.725       53.783        0.059      347.354       26.260      857.397
06/09/2014  21:40:00     -178.880       -1.224       -2.130       89.218       70.476       50.768     7959.927     4966.933     2577.366        2.375        0.775      178.884       46.624        0.068      347.276       26.128      857.420
06/09/2014  21:41:00     -136.597       -2.403       -0.821       75.191       73.273       39.262     5653.747     5368.959     1541.530        1.561        0.628      136.618       42.835        0.098      347.279       26.131      857.438
06/09/2014  21:42:00      -88.847      -20.703        3.998       55.839       54.881       25.103     3117.992     3011.953      630.166        0.755        0.338       91.227       24.973        0.075      347.188       25.976      857.447
06/09/2014  21:43:00     -233.417       12.056      -18.635       72.577       68.126       40.726     5267.446     4641.099     1658.588        3.327        0.578      233.728       31.405        0.018      347.254       26.085      857.437
06/09/2014  21:44:00     -173.747      -37.351       -1.413       80.349       70.354       41.067     6455.997     4949.737     1686.492        2.234        0.655      177.716       42.348        0.057      347.192       25.979      857.442
06/09/2014  21:45:00     -247.218      -48.484      -12.700      123.998       75.810       48.766    15375.573     5747.103     2378.110        4.356        1.175      251.927       57.212        0.052      347.226       26.039      857.447
06/09/2014  21:46:00     -288.251      -90.321       -7.453      112.730       68.180       49.309    12708.068     4648.455     2431.419        5.554        0.989      302.070       52.932        0.031      347.213       26.015      857.450
06/09/2014  21:47:00     -118.554       -2.215        7.087       87.752       74.280       42.246     7700.417     5517.523     1784.694        1.455        0.750      118.575       34.806        0.086      347.135       25.884      857.451
06/09/2014  21:48:00     -163.137       -0.599       -3.257       71.215       70.877       34.260     5071.516     5023.512     1173.720        1.894        0.563      163.138       27.814        0.029      347.178       25.957      857.462
06/09/2014  21:49:00     -172.804       -3.286      -12.589       90.385       94.676       47.573     8169.511     8963.549     2263.185        2.471        0.970      172.836       43.553        0.063      347.220       26.031      857.498
06/09/2014  21:50:00     -155.668       21.539       -2.309       91.495       53.793       40.071     8371.402     2893.739     1605.657        1.878        0.644      157.151       40.851        0.068      347.207       26.007      857.508
06/09/2014  21:51:00      -80.344      -35.597       12.872       74.002       59.279       38.215     5476.366     3514.006     1460.420        0.917        0.523       87.877       37.422        0.181      347.148       25.906      857.517
06/09/2014  21:52:00     -144.179      -42.756      -10.127       61.399       54.389       36.410     3769.886     2958.194     1325.669        1.538        0.403      150.385       33.506        0.050      347.261       26.101      857.523
06/09/2014  21:53:00     -191.746      -31.135      -14.232       81.967       59.247       38.805     6718.587     3510.170     1505.824        2.483        0.587      194.257       34.433        0.031      347.240       26.063      857.517
06/09/2014  21:54:00     -198.940      -22.396      -11.891       86.717       62.853       42.794     7519.767     3950.497     1831.335        2.676        0.665      200.196       40.002        0.040      347.194       25.983      857.521
06/09/2014  21:55:00     -265.421      -30.966      -26.868      105.584       64.308       49.707    11148.007     4135.569     2470.786        4.494        0.888      267.221       55.436        0.043      347.229       26.045      857.543
06/09/2014  21:56:00     -173.043      -64.046       -4.825       92.161       66.940       38.765     8493.688     4480.970     1502.733        2.427        0.724      184.515       43.079        0.055      347.163       25.932      857.572
06/09/2014  21:57:00     -218.217      -28.539      -13.397       69.532       76.090       46.027     4834.646     5789.683     2118.468        3.068        0.637      220.075       42.867        0.038      347.215       26.020      857.569
06/09/2014  21:58:00     -232.299      -10.927      -17.006      153.485       76.672       55.200    23557.717     5878.612     3047.002        4.342        1.624      232.556       75.650        0.106      347.183       25.965      857.580
06/09/2014  21:59:00     -207.049       -8.804      -11.018      112.704       81.866       48.066    12702.152     6702.022     2310.293        3.239        1.086      207.236       50.896        0.060      347.267       26.110      857.588
06/09/2014  22:00:00     -229.736      -34.457      -14.391      120.703       72.767       50.080    14569.198     5295.052     2508.015        3.827        1.119      232.306       59.211        0.065      347.241       26.064      857.594
06/09/2014  22:01:00     -190.847       -6.048       -7.461       97.057       85.039       42.093     9420.149     7231.588     1771.824        2.747        0.921      190.943       44.543        0.054      347.214       26.016      857.605
06/09/2014  22:02:00     -207.943      -79.025      -19.523       94.630       92.619       42.946     8954.871     8578.365     1844.344        3.462        0.969      222.453       50.139        0.051      347.285       26.140      857.633
06/09/2014  22:03:00     -168.228      -34.042       -8.450       73.723       68.597       40.218     5435.111     4705.550     1617.466        2.064        0.588      171.638       38.014        0.049      347.191       25.980      857.643
06/09/2014  22:04:00     -199.409       26.731       -8.365       91.316       73.029       51.428     8338.568     5333.225     2644.839        2.843        0.816      201.193       46.261        0.053      347.218       26.023      857.649
06/09/2014  22:05:00     -138.492        8.136       -9.519       72.259       61.947       44.476     5221.381     3837.428     1978.114        1.518        0.552      138.730       40.065        0.083      347.203       26.001      857.660
06/09/2014  22:06:00      -98.253        3.210      -13.756       66.357       49.362       25.390     4403.210     2436.649      644.671        0.867        0.374       98.306       18.312        0.035      347.148       25.909      857.665
06/09/2014  22:07:00      -36.854        8.747        3.135       43.324       33.982       23.033     1876.961     1154.747      530.529        0.250        0.178       37.877       23.888        0.398      347.008       25.666      857.677
06/09/2014  22:08:00      -80.769       32.098       -8.480       36.385       33.626       25.297     1323.839     1130.732      639.950        0.536        0.155       86.913       24.622        0.080      347.071       25.775      857.711
06/09/2014  22:09:00      -85.840       39.081       -3.776       44.974       23.286       21.402     2022.705      542.218      458.025        0.597        0.151       94.318       19.766        0.044      347.044       25.729      857.732
06/09/2014  22:10:00      -95.167      -17.543      -13.476       23.134       39.518       24.797      535.199     1561.637      614.877        0.613        0.136       96.771       16.313        0.028      347.060       25.757      857.742
06/09/2014  22:11:00     -183.346        5.957      -25.019       59.441       49.589       24.365     3533.191     2459.072      593.647        2.043        0.329      183.443       23.452        0.016      347.011       25.671      857.743
06/09/2014  22:12:00     -238.096      -53.780      -12.094       84.549       78.143       51.826     7148.612     6106.311     2685.902        3.783        0.797      244.095       48.116        0.039      347.001       25.650      857.745
06/09/2014  22:13:00     -224.172      -74.845       -8.323       49.720       57.707       30.926     2472.029     3330.041      956.398        3.134        0.338      236.337       22.224        0.009      346.984       25.621      857.750
06/09/2014  22:14:00     -254.019      -32.824      -17.658       75.875       50.076       36.027     5756.969     2507.583     1297.938        3.774        0.478      256.131       34.358        0.018      346.937       25.540      857.770
06/09/2014  22:15:00     -186.771      -47.658      -14.807       84.281       64.752       36.849     7103.340     4192.851     1357.839        2.501        0.633      192.755       42.275        0.048      346.890       25.460      857.785
06/09/2014  22:16:00     -243.900      -23.432      -26.117       71.089       55.328       35.606     5053.627     3061.222     1267.801        3.505        0.469      245.023       34.477        0.020      346.898       25.470      857.801
06/09/2014  22:17:00     -232.254      -68.238       -9.773       61.453       86.181       31.855     3776.497     7427.203     1014.737        3.545        0.611      242.071       25.805        0.011      346.857       25.401      857.805
06/09/2014  22:18:00     -249.444      -35.920       -8.376       84.403       80.655       49.726     7123.917     6505.263     2472.666        3.984        0.805      252.017       48.340        0.037      346.966       25.590      857.823
06/09/2014  22:19:00     -242.942      -26.973      -19.943       91.707       94.686       42.173     8410.103     8965.493     1778.546        3.965        0.958      244.435       44.827        0.034      346.924       25.518      857.825
06/09/2014  22:20:00     -168.977      -51.567       -7.134       76.100       52.379       38.308     5791.197     2743.586     1467.529        2.063        0.500      176.670       35.185        0.040      346.858       25.407      857.839
06/09/2014  22:21:00     -181.496      -60.804      -17.160       66.558       73.096       31.993     4430.023     5342.961     1023.534        2.386        0.540      191.410       28.694        0.022      346.806       25.316      857.865
06/09/2014  22:22:00     -119.719      -40.554       -6.863       75.077       51.825       30.890     5636.511     2685.796      954.161        1.265        0.464      126.401       28.376        0.050      346.748       25.218      857.889
06/09/2014  22:23:00      -25.560       15.652       -6.718       37.909       48.044       28.720     1437.095     2308.232      824.861        0.276        0.229       29.972       21.899        0.534      346.637       25.028      857.885
06/09/2014  22:24:00      -77.423      -11.424      -15.760       28.845       50.992       31.635      832.053     2600.234     1000.743        0.540        0.222       78.261       19.468        0.062      346.664       25.074      857.887
06/09/2014  22:25:00      -62.450       12.505       -8.724       39.292       52.441       24.067     1543.896     2750.073      579.230        0.450        0.244       63.690       11.726        0.034      346.590       24.946      857.895
06/09/2014  22:26:00     -104.507       39.074      -10.161       57.985       48.330       35.359     3362.298     2335.786     1250.287        0.975        0.347      111.572       27.850        0.062      346.592       24.951      857.903
06/09/2014  22:27:00     -119.542       12.958      -18.743       60.383       46.671       30.696     3646.127     2178.196      942.216        1.079        0.338      120.242       29.764        0.061      346.603       24.968      857.915
06/09/2014  22:28:00      -63.935       -2.752        0.922       52.563       39.689       28.591     2762.859     1575.223      817.463        0.462        0.258       63.994        4.951        0.006      346.531       24.845      857.930
06/09/2014  22:29:00      -76.886       -7.755       11.053       56.314       64.055       35.024     3171.313     4103.018     1226.679        0.730        0.425       77.276       32.536        0.177      346.486       24.767      857.955
06/09/2014  22:30:00      -89.729       54.738       -0.146       51.183       62.152       31.122     2619.717     3862.908      968.609        0.925        0.373      105.107       30.732        0.085      346.509       24.808      857.964
06/09/2014  22:31:00      -75.357       53.488        9.180       57.868       76.397       43.118     3348.712     5836.513     1859.202        0.983        0.552       92.411       28.735        0.097      346.452       24.709      857.969
06/09/2014  22:32:00      -13.099       52.311        6.248       47.835       66.509       32.970     2288.180     4423.483     1087.018        0.537        0.390       53.926       26.467        0.241      346.438       24.686      857.979
06/09/2014  22:33:00      -33.098       10.324       -6.232       42.627       55.848       25.015     1817.039     3118.963      625.742        0.340        0.278       34.671       17.199        0.246      346.525       24.835      858.011
06/09/2014  22:34:00      -48.619      103.890       -3.788       49.509       63.312       30.799     2451.098     4008.400      948.602        1.029        0.370      114.704       19.809        0.030      346.546       24.871      858.028
06/09/2014  22:35:00      -24.568       54.627       -1.178       32.995       58.573       24.371     1088.691     3430.827      593.924        0.435        0.256       59.897       22.313        0.139      346.507       24.805      858.037
06/09/2014  22:36:00      -23.535       27.544        1.590       16.999       18.648       17.178      288.957      347.748      295.075        0.112        0.047       36.229        8.335        0.053      346.496       24.786      858.062
06/09/2014  22:37:00      -66.953       87.804       -8.970       48.504       62.609       30.637     2352.681     3919.906      938.621        0.974        0.361      110.418       22.401        0.041      346.785       25.284      858.081
06/09/2014  22:38:00      -93.644      136.403      -24.879       43.204       55.524       21.903     1866.612     3082.966      479.759        1.671        0.271      165.454       16.382        0.010      346.813       25.330      858.071
06/09/2014  22:39:00      -76.429      110.818      -14.537       43.339       36.417       34.234     1878.250     1326.176     1171.993        1.135        0.219      134.618       23.084        0.029      346.779       25.271      858.063
06/09/2014  22:40:00      -74.697       68.862      -13.528       46.620       39.584       27.690     2173.444     1566.883      766.712        0.751        0.225      101.596       27.221        0.072      346.850       25.395      858.069
06/09/2014  22:41:00      -76.115       73.477      -13.096       39.763       39.864       26.852     1581.125     1589.099      721.031        0.763        0.195      105.793       22.736        0.046      346.837       25.372      858.070
06/09/2014  22:42:00      -70.487       85.620      -16.605       65.010       37.538       26.990     4226.358     1409.100      728.437        0.947        0.318      110.901       36.588        0.109      346.780       25.274      858.082
06/09/2014  22:43:00      -77.737       45.068       -3.305       50.456       49.114       25.644     2545.776     2412.156      657.626        0.685        0.281       89.856       23.852        0.070      346.795       25.299      858.083
06/09/2014  22:44:00      -29.198       32.304        0.696       66.445       44.492       35.080     4414.993     1979.548     1230.607        0.476        0.381       43.544       31.922        0.537      346.732       25.191      858.086
06/09/2014  22:45:00      -57.208      100.476      -17.567       44.617       30.349       20.798     1990.693      921.060      432.548        0.851        0.167      115.621       21.809        0.036      346.779       25.273      858.085
06/09/2014  22:46:00      -67.188      106.824      -16.731       42.814       72.740       28.341     1833.069     5291.038      803.205        1.207        0.396      126.197       33.882        0.072      346.837       25.370      858.083
06/09/2014  22:47:00      -69.979       59.447      -15.438       32.711       47.076       17.808     1070.011     2216.192      317.111        0.614        0.180       91.820       21.747        0.056      346.835       25.369      858.078
06/09/2014  22:48:00     -108.360       77.842      -13.238       74.503       51.867       28.920     5550.664     2690.156      836.379        1.353        0.454      133.421       26.857        0.041      346.946       25.558      858.073
06/09/2014  22:49:00      -68.496       66.386       -6.610       38.081       32.488       27.885     1450.154     1055.490      777.571        0.621        0.164       95.388       15.711        0.027      346.984       25.627      858.074
06/09/2014  22:50:00      -47.948       63.560      -12.388       27.540       26.394       20.765      758.428      696.647      431.180        0.419        0.094       79.617       13.671        0.029      346.846       25.387      858.067
06/09/2014  22:51:00      -68.166       28.376      -12.168       24.738       17.366       12.790      611.982      301.564      163.594        0.334        0.054       73.836        8.634        0.014      346.781       25.278      858.059
06/09/2014  22:52:00      -25.719       31.028       -2.532       32.916       26.543       17.705     1083.438      704.536      313.483        0.187        0.105       40.301       18.167        0.203      346.951       25.570      858.043
06/09/2014  22:53:00      -45.249       34.795       -5.537       30.516       43.406       18.942      931.244     1884.051      358.812        0.323        0.159       57.080       20.307        0.127      346.756       25.233      858.032
06/09/2014  22:54:00     -123.777      112.535      -31.945       51.951       40.441       22.863     2698.914     1635.479      522.700        1.693        0.243      167.287       28.141        0.028      346.885       25.453      858.042
06/09/2014  22:55:00      -46.657       97.928      -22.641       23.149       23.528       15.737      535.885      553.574      247.668        0.681        0.067      108.475       13.369        0.015      346.814       25.333      858.035
06/09/2014  22:56:00      -17.363       87.673      -13.933       20.160       21.872       11.891      406.415      478.394      141.393        0.460        0.051       89.376       10.718        0.014      346.642       25.037      858.023
06/09/2014  22:57:00      -52.159       26.967        1.827       48.459       26.769       23.222     2348.243      716.590      539.267        0.353        0.180       58.717       20.242        0.119      346.741       25.207      858.001
06/09/2014  22:58:00      -97.227       83.477      -22.182       36.395       34.785       19.921     1324.569     1209.962      396.832        0.992        0.147      128.146       22.420        0.031      346.727       25.184      858.001
06/09/2014  22:59:00      -65.113       55.839       -6.818       28.695       35.071       23.476      823.416     1229.944      551.130        0.500        0.130       85.777       25.866        0.091      346.712       25.156      857.996
06/09/2014  23:00:00     -155.017       85.654      -28.767       49.942       38.319       23.260     2494.164     1468.373      541.008        1.835        0.225      177.107       21.802        0.015      346.808       25.321      857.990
06/09/2014  23:01:00     -142.497       -5.980      -15.200       30.080       54.826       23.722      904.783     3005.864      562.753        1.252        0.224      142.622       13.901        0.009      346.719       25.169      857.978
06/09/2014  23:02:00      -97.017       -8.359       -3.103       57.835       37.609       26.050     3344.847     1414.438      678.585        0.746        0.272       97.377       25.018        0.066      346.672       25.088      857.977
06/09/2014  23:03:00     -123.611       -3.593       -6.906       37.246       40.165       28.220     1387.271     1613.222      796.379        0.957        0.190      123.663       21.751        0.031      346.715       25.160      857.983
06/09/2014  23:04:00      -96.503      -20.067      -16.339       46.762       35.079       23.202     2186.704     1230.528      538.336        0.697        0.198       98.567       16.027        0.026      346.675       25.094      857.976
06/09/2014  23:05:00     -114.565      -24.402      -10.593       33.829       34.847       20.024     1144.429     1214.312      400.957        0.830        0.138      117.135       22.533        0.037      346.494       24.781      857.971
06/09/2014  23:06:00     -139.456      -58.799       -0.908       41.779       56.335       26.715     1745.490     3173.621      713.703        1.427        0.282      151.344       28.006        0.034      346.464       24.731      857.970
06/09/2014  23:07:00     -119.484      -58.289       -4.485       77.673       37.649       29.799     6033.115     1417.426      887.971        1.301        0.417      132.943       33.551        0.064      346.446       24.699      857.979
06/09/2014  23:08:00     -145.135       14.747      -12.332       64.072       60.978       36.481     4105.272     3718.343     1330.896        1.529        0.458      145.882       24.046        0.027      346.528       24.839      857.978
06/09/2014  23:09:00      -95.398        1.928       -3.523       53.509       53.622       24.683     2863.262     2875.335      609.249        0.773        0.317       95.417       15.459        0.026      346.409       24.635      857.978
06/09/2014  23:10:00     -105.432      -30.045       -2.747       49.220       54.472       34.267     2422.592     2967.216     1174.202        0.929        0.328      109.629       31.205        0.081      346.500       24.792      857.972
06/09/2014  23:11:00      -83.429      -14.910        5.256       47.822       48.326       29.685     2286.956     2335.426      881.188        0.636        0.275       84.751       25.371        0.090      346.512       24.813      857.981
06/09/2014  23:12:00      -90.764      -21.410      -12.207       51.141       51.264       25.936     2615.380     2627.954      672.683        0.738        0.296       93.255       29.681        0.101      346.611       24.983      857.983
06/09/2014  23:13:00     -101.823        6.119       -0.677       37.881       46.823       26.563     1434.999     2192.420      705.590        0.737        0.217      102.006       19.661        0.037      346.774       25.264      857.995
06/09/2014  23:14:00     -123.471      -29.629       -7.599       39.132       55.982       18.507     1531.314     3133.940      342.512        1.059        0.250      126.976       19.479        0.024      346.708       25.151      858.008
06/09/2014  23:15:00     -129.454       -4.249      -14.336       74.436       56.771       33.242     5540.700     3222.949     1105.000        1.342        0.493      129.524       31.538        0.059      346.684       25.108      858.006
06/09/2014  23:16:00     -166.939       -4.831      -12.036       67.246       54.293       34.235     4521.974     2947.730     1172.029        1.834        0.432      167.008       33.214        0.040      346.658       25.062      858.010
06/09/2014  23:17:00     -113.237      -30.386      -12.057       53.180       47.406       31.085     2828.063     2247.298      966.269        0.997        0.302      117.243       29.977        0.065      346.674       25.092      858.001
06/09/2014  23:18:00     -157.879       15.910      -19.433       52.281       64.834       31.893     2733.322     4203.395     1017.162        1.675        0.398      158.679       29.456        0.034      346.731       25.189      858.000
06/09/2014  23:19:00     -109.450      -41.548       -9.926       49.991       58.384       35.006     2499.067     3408.659     1225.445        1.047        0.357      117.070       24.134        0.042      346.500       24.794      857.991
06/09/2014  23:20:00      -93.817       21.634      -11.699       38.649       44.174       27.473     1493.719     1951.319      754.758        0.680        0.210       96.279       16.899        0.031      346.554       24.885      857.990
06/09/2014  23:21:00     -135.747      -31.858      -17.962       33.249       54.665       20.085     1105.511     2988.255      403.397        1.213        0.225      139.435       17.407        0.016      346.603       24.969      857.984
06/09/2014  23:22:00     -139.689       27.055      -16.531       41.823       36.389       21.864     1749.171     1324.150      478.046        1.203        0.178      142.285       15.267        0.012      346.694       25.125      857.974
06/09/2014  23:23:00      -95.874      -35.240       -7.442       47.425       44.434       21.506     2249.129     1974.373      462.522        0.759        0.234      102.146       22.292        0.048      346.540       24.860      857.979
06/09/2014  23:24:00     -101.457      -41.612      -10.713       28.659       27.920       18.770      821.329      779.532      352.312        0.705        0.098      109.659       19.689        0.032      346.507       24.807      857.991
06/09/2014  23:25:00     -114.011      -36.489       -7.346       69.755       42.024       29.661     4865.768     1766.029      879.753        1.095        0.376      119.708       23.534        0.039      346.699       25.134      857.988
06/09/2014  23:26:00     -104.100       30.460      -19.376       54.637       43.665       24.535     2985.206     1906.589      601.947        0.882        0.275      108.465       27.266        0.063      346.702       25.139      857.979
06/09/2014  23:27:00     -158.836       40.513      -12.265       48.745       35.022       27.686     2376.116     1226.564      766.517        1.569        0.218      163.921       27.772        0.029      346.695       25.128      857.984
06/09/2014  23:28:00     -130.676       33.032      -12.750       45.956       32.323       19.608     2111.980     1044.772      384.489        1.093        0.177      134.786       18.607        0.019      346.512       24.812      858.004
06/09/2014  23:29:00     -114.903        1.118      -17.029       24.836       28.171       19.121      616.814      793.620      365.628        0.763        0.089      114.908       14.891        0.017      346.554       24.886      858.019
06/09/2014  23:30:00      -52.826       -5.402        0.646       30.568       24.074       18.755      934.425      579.540      351.747        0.234        0.093       53.101       12.063        0.052      346.267       24.391      858.034
06/09/2014  23:31:00     -107.053       -9.996       -8.264       29.553       36.902       23.306      873.384     1361.747      543.176        0.720        0.139      107.518       18.936        0.031      346.342       24.519      858.045
06/09/2014  23:32:00      -75.589       -8.185       -8.914       33.899       40.087       22.652     1149.169     1606.952      513.102        0.456        0.163       76.030       20.854        0.075      346.250       24.362      858.058
06/09/2014  23:33:00     -114.346      -13.722      -13.071       43.589       31.622       17.981     1900.023      999.962      323.323        0.833        0.161      115.166       20.613        0.032      346.082       24.074      858.070
06/09/2014  23:34:00     -105.003      -20.697       -4.523       33.585       20.240       17.386     1127.973      409.661      302.274        0.666        0.092      107.024       15.898        0.022      346.068       24.050      858.077
06/09/2014  23:35:00      -92.611        3.594       -5.879       35.058       25.317       22.227     1229.050      640.964      494.024        0.549        0.118       92.681       19.593        0.045      346.171       24.226      858.074
06/09/2014  23:36:00     -123.803       13.341      -10.873       34.510       25.217       15.288     1190.937      635.922      233.709        0.884        0.103      124.520       12.676        0.010      346.209       24.290      858.078
06/09/2014  23:37:00     -125.172       17.792       -8.633       18.784       31.268       18.516      352.854      977.659      342.849        0.887        0.084      126.430        6.537        0.003      346.447       24.701      858.088
06/09/2014  23:38:00     -140.979       41.103       -6.671       39.010       27.108       17.260     1521.807      734.828      297.916        1.208        0.128      146.849       16.266        0.012      346.386       24.595      858.095
06/09/2014  23:39:00     -128.688      -20.524      -17.756       29.366       19.216       14.187      862.366      369.258      201.269        0.936        0.072      130.314       13.750        0.011      346.114       24.128      858.108
06/09/2014  23:40:00     -130.866      -37.602      -16.031       25.964       21.313       19.180      674.139      454.237      367.878        1.015        0.075      136.161       15.709        0.013      345.923       23.802      858.118
06/09/2014  23:41:00     -105.098      -33.711       -7.727       33.735       29.344       22.371     1138.042      861.053      500.465        0.737        0.125      110.373       19.109        0.030      345.740       23.485      858.128
06/09/2014  23:42:00     -102.223      -41.909       -3.143       25.084       25.424       15.302      629.229      646.383      234.155        0.686        0.075      110.480       15.884        0.021      345.736       23.481      858.144
06/09/2014  23:43:00     -107.334      -76.961       -2.113       50.980       37.796       26.257     2598.958     1428.565      689.423        1.108        0.236      132.074       22.431        0.029      345.847       23.670      858.144
06/09/2014  23:44:00     -178.429      -24.238       -7.451       63.909       43.687       35.990     4084.361     1908.513     1295.287        1.988        0.364      180.067       35.545        0.039      345.618       23.275      858.163
06/09/2014  23:45:00     -114.146      -38.502        4.351       58.412       46.815       31.251     3411.987     2191.610      976.629        1.055        0.329      120.465       25.637        0.045      345.574       23.201      858.155
06/09/2014  23:46:00     -126.856      -52.476       -0.669       32.415       35.901       21.533     1050.740     1288.879      463.663        1.082        0.140      137.282       16.204        0.014      345.686       23.394      858.158
06/09/2014  23:47:00     -155.492      -58.810        6.187       40.556       36.742       24.110     1644.792     1349.960      581.298        1.562        0.179      166.242       22.598        0.018      345.720       23.454      858.167
06/09/2014  23:48:00     -154.997        2.199       -8.800       53.627       39.854       24.516     2875.888     1588.335      601.015        1.458        0.253      155.012       29.397        0.036      345.519       23.106      858.165
06/09/2014  23:49:00     -188.317       -5.366      -12.065       52.471       40.533       22.814     2753.165     1642.917      520.498        2.028        0.246      188.393       17.450        0.009      345.503       23.078      858.159
06/09/2014  23:50:00     -192.040       30.475       -9.851       39.650       26.842       22.132     1572.143      720.479      489.844        2.034        0.139      194.443       23.796        0.015      345.534       23.133      858.155
06/09/2014  23:51:00     -177.896      -11.548      -14.752       72.272       35.037       26.260     5223.272     1227.562      689.605        1.957        0.357      178.271       31.976        0.032      345.669       23.361      858.142
06/09/2014  23:52:00     -170.041      -12.124      -14.096       39.076       34.332       21.730     1526.917     1178.667      472.193        1.622        0.159      170.473       20.723        0.015      345.528       23.120      858.139
06/09/2014  23:53:00     -142.633      -40.692      -11.861       66.324       34.274       30.833     4398.921     1174.704      950.699        1.433        0.326      148.324       34.408        0.054      345.396       22.894      858.125
06/09/2014  23:54:00     -181.613      -25.627      -20.571       37.771       35.225       26.780     1426.627     1240.782      717.162        1.872        0.169      183.412       21.326        0.014      345.422       22.941      858.105
06/09/2014  23:55:00     -136.970      -25.279       -7.196       52.539       33.543       28.968     2760.370     1125.144      839.127        1.209        0.236      139.283       22.844        0.027      345.402       22.907      858.100
06/09/2014  23:56:00     -204.695      -67.186      -12.063       40.913       38.181       25.973     1673.910     1457.752      674.580        2.518        0.190      215.439       19.746        0.008      345.455       22.993      858.116
06/09/2014  23:57:00     -199.252      -72.188       -5.503       44.563       49.085       28.489     1985.836     2409.320      811.596        2.507        0.260      211.926       23.166        0.012      345.501       23.072      858.132
06/09/2014  23:58:00      -74.473      -67.871       13.558       80.063       54.667       32.527     6410.134     2988.512     1058.002        1.039        0.523      100.761       39.884        0.157      345.592       23.232      858.145
06/09/2014  23:59:00     -155.659      -83.600       -5.197       60.422       44.310       31.111     3650.823     1963.364      967.863        1.891        0.329      176.688       28.327        0.026      345.731       23.468      858.158
